<?xml version="1.0" encoding="UTF-8" standalone="no" ?>
<gpx xmlns="http://www.topografix.com/GPX/1/1" xmlns:xsi="http://www.w3.org/2001/XMLSchema-instance" xsi:schemaLocation="http://www.topografix.com/GPX/1/1 http://www.topografix.com/GPX/1/1/gpx.xsd" version="1.1" creator="VisuGPX - https://www.visugpx.com">
  <metadata>
    <name>Itinéraire bord de seine Gravenchon-Honfleur-Le Havre</name>
    <desc><![CDATA[Itinéraire d'une 50aine de km à vélo, à plat longeant la Seine jusqu'au Havre]]></desc>
  </metadata>
  <trk>
    <name><![CDATA[Itinéraire bord de seine Gravenchon-Honfleur-Le Havre_1]]></name>
    <trkseg>
      <trkpt lat="49.36912" lon="1.11128">
        <ele>8</ele>
        <time>2018-06-14T13:09:17Z</time>
      </trkpt>
      <trkpt lat="49.36907" lon="1.11052">
        <ele>8</ele>
        <time>2018-06-14T13:09:30Z</time>
      </trkpt>
      <trkpt lat="49.36878" lon="1.11058">
        <ele>8</ele>
        <time>2018-06-14T13:09:38Z</time>
      </trkpt>
      <trkpt lat="49.3685" lon="1.11063">
        <ele>10</ele>
        <time>2018-06-14T13:09:45Z</time>
      </trkpt>
      <trkpt lat="49.36834" lon="1.11066">
        <ele>10</ele>
        <time>2018-06-14T13:09:49Z</time>
      </trkpt>
      <trkpt lat="49.36812" lon="1.1107">
        <ele>10</ele>
        <time>2018-06-14T13:09:55Z</time>
      </trkpt>
      <trkpt lat="49.36816" lon="1.11099">
        <ele>10</ele>
        <time>2018-06-14T13:10:00Z</time>
      </trkpt>
      <trkpt lat="49.36825" lon="1.11114">
        <ele>10</ele>
        <time>2018-06-14T13:10:04Z</time>
      </trkpt>
      <trkpt lat="49.3683" lon="1.11125">
        <ele>10</ele>
        <time>2018-06-14T13:10:06Z</time>
      </trkpt>
      <trkpt lat="49.36838" lon="1.11141">
        <ele>10</ele>
        <time>2018-06-14T13:10:10Z</time>
      </trkpt>
      <trkpt lat="49.36839" lon="1.11154">
        <ele>10</ele>
        <time>2018-06-14T13:10:12Z</time>
      </trkpt>
      <trkpt lat="49.3684" lon="1.11182">
        <ele>10</ele>
        <time>2018-06-14T13:10:17Z</time>
      </trkpt>
      <trkpt lat="49.36844" lon="1.112">
        <ele>10</ele>
        <time>2018-06-14T13:10:20Z</time>
      </trkpt>
      <trkpt lat="49.36858" lon="1.11232">
        <ele>2</ele>
        <time>2018-06-14T13:10:27Z</time>
      </trkpt>
      <trkpt lat="49.36898" lon="1.11303">
        <ele>2</ele>
        <time>2018-06-14T13:10:43Z</time>
      </trkpt>
      <trkpt lat="49.36934" lon="1.11356">
        <ele>2</ele>
        <time>2018-06-14T13:10:57Z</time>
      </trkpt>
      <trkpt lat="49.36962" lon="1.11386">
        <ele>2</ele>
        <time>2018-06-14T13:11:06Z</time>
      </trkpt>
      <trkpt lat="49.37025" lon="1.11444">
        <ele>4</ele>
        <time>2018-06-14T13:11:25Z</time>
      </trkpt>
      <trkpt lat="49.37091" lon="1.11499">
        <ele>4</ele>
        <time>2018-06-14T13:11:45Z</time>
      </trkpt>
      <trkpt lat="49.37125" lon="1.11527">
        <ele>7</ele>
        <time>2018-06-14T13:11:56Z</time>
      </trkpt>
      <trkpt lat="49.37154" lon="1.11543">
        <ele>7</ele>
        <time>2018-06-14T13:12:04Z</time>
      </trkpt>
      <trkpt lat="49.37177" lon="1.11551">
        <ele>7</ele>
        <time>2018-06-14T13:12:10Z</time>
      </trkpt>
      <trkpt lat="49.37203" lon="1.11559">
        <ele>7</ele>
        <time>2018-06-14T13:12:17Z</time>
      </trkpt>
      <trkpt lat="49.37238" lon="1.1156">
        <ele>7</ele>
        <time>2018-06-14T13:12:27Z</time>
      </trkpt>
      <trkpt lat="49.37264" lon="1.11556">
        <ele>7</ele>
        <time>2018-06-14T13:12:34Z</time>
      </trkpt>
      <trkpt lat="49.37279" lon="1.11553">
        <ele>6</ele>
        <time>2018-06-14T13:12:38Z</time>
      </trkpt>
      <trkpt lat="49.37298" lon="1.11545">
        <ele>6</ele>
        <time>2018-06-14T13:12:43Z</time>
      </trkpt>
      <trkpt lat="49.37319" lon="1.11535">
        <ele>6</ele>
        <time>2018-06-14T13:12:49Z</time>
      </trkpt>
      <trkpt lat="49.37352" lon="1.11517">
        <ele>6</ele>
        <time>2018-06-14T13:12:58Z</time>
      </trkpt>
      <trkpt lat="49.37371" lon="1.11505">
        <ele>6</ele>
        <time>2018-06-14T13:13:04Z</time>
      </trkpt>
      <trkpt lat="49.37392" lon="1.11492">
        <ele>6</ele>
        <time>2018-06-14T13:13:10Z</time>
      </trkpt>
      <trkpt lat="49.37423" lon="1.11471">
        <ele>6</ele>
        <time>2018-06-14T13:13:19Z</time>
      </trkpt>
      <trkpt lat="49.37471" lon="1.11437">
        <ele>7</ele>
        <time>2018-06-14T13:13:33Z</time>
      </trkpt>
      <trkpt lat="49.37537" lon="1.11386">
        <ele>7</ele>
        <time>2018-06-14T13:13:53Z</time>
      </trkpt>
      <trkpt lat="49.3759" lon="1.11346">
        <ele>6</ele>
        <time>2018-06-14T13:14:09Z</time>
      </trkpt>
      <trkpt lat="49.37655" lon="1.11297">
        <ele>6</ele>
        <time>2018-06-14T13:14:28Z</time>
      </trkpt>
      <trkpt lat="49.37713" lon="1.1125">
        <ele>6</ele>
        <time>2018-06-14T13:14:45Z</time>
      </trkpt>
      <trkpt lat="49.37723" lon="1.11243">
        <ele>6</ele>
        <time>2018-06-14T13:14:48Z</time>
      </trkpt>
      <trkpt lat="49.37727" lon="1.11235">
        <ele>6</ele>
        <time>2018-06-14T13:14:50Z</time>
      </trkpt>
      <trkpt lat="49.37799" lon="1.11188">
        <ele>5</ele>
        <time>2018-06-14T13:15:11Z</time>
      </trkpt>
      <trkpt lat="49.37829" lon="1.11167">
        <ele>5</ele>
        <time>2018-06-14T13:15:20Z</time>
      </trkpt>
      <trkpt lat="49.3787" lon="1.11137">
        <ele>5</ele>
        <time>2018-06-14T13:15:32Z</time>
      </trkpt>
      <trkpt lat="49.37894" lon="1.11118">
        <ele>5</ele>
        <time>2018-06-14T13:15:39Z</time>
      </trkpt>
      <trkpt lat="49.37944" lon="1.11081">
        <ele>5</ele>
        <time>2018-06-14T13:15:54Z</time>
      </trkpt>
      <trkpt lat="49.3802" lon="1.11027">
        <ele>5</ele>
        <time>2018-06-14T13:16:16Z</time>
      </trkpt>
      <trkpt lat="49.38062" lon="1.10998">
        <ele>6</ele>
        <time>2018-06-14T13:16:29Z</time>
      </trkpt>
      <trkpt lat="49.38115" lon="1.10962">
        <ele>6</ele>
        <time>2018-06-14T13:16:44Z</time>
      </trkpt>
      <trkpt lat="49.38114" lon="1.10957">
        <ele>6</ele>
        <time>2018-06-14T13:16:45Z</time>
      </trkpt>
      <trkpt lat="49.38106" lon="1.10926">
        <ele>6</ele>
        <time>2018-06-14T13:16:51Z</time>
      </trkpt>
      <trkpt lat="49.38102" lon="1.10878">
        <ele>6</ele>
        <time>2018-06-14T13:16:59Z</time>
      </trkpt>
      <trkpt lat="49.381" lon="1.10846">
        <ele>6</ele>
        <time>2018-06-14T13:17:05Z</time>
      </trkpt>
      <trkpt lat="49.38104" lon="1.10847">
        <ele>6</ele>
        <time>2018-06-14T13:17:06Z</time>
      </trkpt>
      <trkpt lat="49.38122" lon="1.10844">
        <ele>6</ele>
        <time>2018-06-14T13:17:11Z</time>
      </trkpt>
      <trkpt lat="49.38137" lon="1.10841">
        <ele>6</ele>
        <time>2018-06-14T13:17:15Z</time>
      </trkpt>
      <trkpt lat="49.38137" lon="1.10833">
        <ele>6</ele>
        <time>2018-06-14T13:17:16Z</time>
      </trkpt>
      <trkpt lat="49.38137" lon="1.10818">
        <ele>6</ele>
        <time>2018-06-14T13:17:19Z</time>
      </trkpt>
      <trkpt lat="49.38135" lon="1.10788">
        <ele>6</ele>
        <time>2018-06-14T13:17:24Z</time>
      </trkpt>
      <trkpt lat="49.38138" lon="1.10781">
        <ele>6</ele>
        <time>2018-06-14T13:17:25Z</time>
      </trkpt>
      <trkpt lat="49.38143" lon="1.10771">
        <ele>6</ele>
        <time>2018-06-14T13:17:28Z</time>
      </trkpt>
      <trkpt lat="49.38143" lon="1.10766">
        <ele>6</ele>
        <time>2018-06-14T13:17:28Z</time>
      </trkpt>
      <trkpt lat="49.38142" lon="1.10758">
        <ele>6</ele>
        <time>2018-06-14T13:17:30Z</time>
      </trkpt>
      <trkpt lat="49.38142" lon="1.10748">
        <ele>6</ele>
        <time>2018-06-14T13:17:32Z</time>
      </trkpt>
      <trkpt lat="49.38142" lon="1.1074">
        <ele>6</ele>
        <time>2018-06-14T13:17:33Z</time>
      </trkpt>
      <trkpt lat="49.3818" lon="1.10735">
        <ele>6</ele>
        <time>2018-06-14T13:17:43Z</time>
      </trkpt>
      <trkpt lat="49.38217" lon="1.10732">
        <ele>7</ele>
        <time>2018-06-14T13:17:53Z</time>
      </trkpt>
      <trkpt lat="49.38258" lon="1.10726">
        <ele>7</ele>
        <time>2018-06-14T13:18:04Z</time>
      </trkpt>
      <trkpt lat="49.38265" lon="1.10725">
        <ele>7</ele>
        <time>2018-06-14T13:18:06Z</time>
      </trkpt>
      <trkpt lat="49.3827" lon="1.10724">
        <ele>7</ele>
        <time>2018-06-14T13:18:07Z</time>
      </trkpt>
      <trkpt lat="49.38293" lon="1.10721">
        <ele>7</ele>
        <time>2018-06-14T13:18:13Z</time>
      </trkpt>
      <trkpt lat="49.38311" lon="1.10717">
        <ele>7</ele>
        <time>2018-06-14T13:18:18Z</time>
      </trkpt>
      <trkpt lat="49.38328" lon="1.1071">
        <ele>7</ele>
        <time>2018-06-14T13:18:23Z</time>
      </trkpt>
      <trkpt lat="49.38373" lon="1.10686">
        <ele>9</ele>
        <time>2018-06-14T13:18:36Z</time>
      </trkpt>
      <trkpt lat="49.38381" lon="1.10682">
        <ele>9</ele>
        <time>2018-06-14T13:18:38Z</time>
      </trkpt>
      <trkpt lat="49.38399" lon="1.10671">
        <ele>9</ele>
        <time>2018-06-14T13:18:43Z</time>
      </trkpt>
      <trkpt lat="49.38423" lon="1.10664">
        <ele>9</ele>
        <time>2018-06-14T13:18:50Z</time>
      </trkpt>
      <trkpt lat="49.38424" lon="1.10663">
        <ele>9</ele>
        <time>2018-06-14T13:18:50Z</time>
      </trkpt>
      <trkpt lat="49.38424" lon="1.10649">
        <ele>9</ele>
        <time>2018-06-14T13:18:52Z</time>
      </trkpt>
      <trkpt lat="49.3842" lon="1.10578">
        <ele>9</ele>
        <time>2018-06-14T13:19:05Z</time>
      </trkpt>
      <trkpt lat="49.3842" lon="1.10566">
        <ele>9</ele>
        <time>2018-06-14T13:19:07Z</time>
      </trkpt>
      <trkpt lat="49.38419" lon="1.10553">
        <ele>15</ele>
        <time>2018-06-14T13:19:09Z</time>
      </trkpt>
      <trkpt lat="49.38408" lon="1.103">
        <ele>20</ele>
        <time>2018-06-14T13:19:53Z</time>
      </trkpt>
      <trkpt lat="49.38456" lon="1.10291">
        <ele>20</ele>
        <time>2018-06-14T13:20:06Z</time>
      </trkpt>
      <trkpt lat="49.38503" lon="1.10283">
        <ele>20</ele>
        <time>2018-06-14T13:20:19Z</time>
      </trkpt>
      <trkpt lat="49.38527" lon="1.10277">
        <ele>20</ele>
        <time>2018-06-14T13:20:25Z</time>
      </trkpt>
      <trkpt lat="49.38547" lon="1.1027">
        <ele>20</ele>
        <time>2018-06-14T13:20:31Z</time>
      </trkpt>
      <trkpt lat="49.38561" lon="1.10263">
        <ele>24</ele>
        <time>2018-06-14T13:20:35Z</time>
      </trkpt>
      <trkpt lat="49.3857" lon="1.10251">
        <ele>24</ele>
        <time>2018-06-14T13:20:38Z</time>
      </trkpt>
      <trkpt lat="49.38573" lon="1.10248">
        <ele>24</ele>
        <time>2018-06-14T13:20:39Z</time>
      </trkpt>
      <trkpt lat="49.3858" lon="1.10233">
        <ele>24</ele>
        <time>2018-06-14T13:20:42Z</time>
      </trkpt>
      <trkpt lat="49.38581" lon="1.1023">
        <ele>24</ele>
        <time>2018-06-14T13:20:43Z</time>
      </trkpt>
      <trkpt lat="49.38584" lon="1.10222">
        <ele>24</ele>
        <time>2018-06-14T13:20:44Z</time>
      </trkpt>
      <trkpt lat="49.38587" lon="1.10213">
        <ele>24</ele>
        <time>2018-06-14T13:20:46Z</time>
      </trkpt>
      <trkpt lat="49.38587" lon="1.1019">
        <ele>24</ele>
        <time>2018-06-14T13:20:50Z</time>
      </trkpt>
      <trkpt lat="49.38586" lon="1.10149">
        <ele>24</ele>
        <time>2018-06-14T13:20:57Z</time>
      </trkpt>
      <trkpt lat="49.38584" lon="1.10113">
        <ele>24</ele>
        <time>2018-06-14T13:21:03Z</time>
      </trkpt>
      <trkpt lat="49.38581" lon="1.1006">
        <ele>24</ele>
        <time>2018-06-14T13:21:13Z</time>
      </trkpt>
      <trkpt lat="49.38574" lon="1.09977">
        <ele>27</ele>
        <time>2018-06-14T13:21:27Z</time>
      </trkpt>
      <trkpt lat="49.38574" lon="1.09973">
        <ele>27</ele>
        <time>2018-06-14T13:21:28Z</time>
      </trkpt>
      <trkpt lat="49.38573" lon="1.09957">
        <ele>27</ele>
        <time>2018-06-14T13:21:31Z</time>
      </trkpt>
      <trkpt lat="49.38572" lon="1.09937">
        <ele>27</ele>
        <time>2018-06-14T13:21:34Z</time>
      </trkpt>
      <trkpt lat="49.38572" lon="1.09925">
        <ele>27</ele>
        <time>2018-06-14T13:21:36Z</time>
      </trkpt>
      <trkpt lat="49.38571" lon="1.09914">
        <ele>27</ele>
        <time>2018-06-14T13:21:38Z</time>
      </trkpt>
      <trkpt lat="49.38568" lon="1.09818">
        <ele>27</ele>
        <time>2018-06-14T13:21:55Z</time>
      </trkpt>
      <trkpt lat="49.38562" lon="1.09688">
        <ele>25</ele>
        <time>2018-06-14T13:22:18Z</time>
      </trkpt>
      <trkpt lat="49.38556" lon="1.0953">
        <ele>25</ele>
        <time>2018-06-14T13:22:45Z</time>
      </trkpt>
      <trkpt lat="49.38556" lon="1.09525">
        <ele>25</ele>
        <time>2018-06-14T13:22:46Z</time>
      </trkpt>
      <trkpt lat="49.38542" lon="1.09269">
        <ele>29</ele>
        <time>2018-06-14T13:23:31Z</time>
      </trkpt>
      <trkpt lat="49.38538" lon="1.09194">
        <ele>36</ele>
        <time>2018-06-14T13:23:44Z</time>
      </trkpt>
      <trkpt lat="49.38534" lon="1.09123">
        <ele>36</ele>
        <time>2018-06-14T13:23:56Z</time>
      </trkpt>
      <trkpt lat="49.38532" lon="1.09074">
        <ele>36</ele>
        <time>2018-06-14T13:24:05Z</time>
      </trkpt>
      <trkpt lat="49.38527" lon="1.08979">
        <ele>46</ele>
        <time>2018-06-14T13:24:21Z</time>
      </trkpt>
      <trkpt lat="49.38516" lon="1.08776">
        <ele>46</ele>
        <time>2018-06-14T13:24:57Z</time>
      </trkpt>
      <trkpt lat="49.38517" lon="1.08738">
        <ele>46</ele>
        <time>2018-06-14T13:25:03Z</time>
      </trkpt>
      <trkpt lat="49.38528" lon="1.08725">
        <ele>46</ele>
        <time>2018-06-14T13:25:07Z</time>
      </trkpt>
      <trkpt lat="49.38547" lon="1.08707">
        <ele>46</ele>
        <time>2018-06-14T13:25:13Z</time>
      </trkpt>
      <trkpt lat="49.38574" lon="1.0867">
        <ele>46</ele>
        <time>2018-06-14T13:25:23Z</time>
      </trkpt>
      <trkpt lat="49.3858" lon="1.08657">
        <ele>46</ele>
        <time>2018-06-14T13:25:25Z</time>
      </trkpt>
      <trkpt lat="49.38583" lon="1.0865">
        <ele>46</ele>
        <time>2018-06-14T13:25:27Z</time>
      </trkpt>
      <trkpt lat="49.38591" lon="1.08655">
        <ele>46</ele>
        <time>2018-06-14T13:25:29Z</time>
      </trkpt>
      <trkpt lat="49.38603" lon="1.08665">
        <ele>41</ele>
        <time>2018-06-14T13:25:33Z</time>
      </trkpt>
      <trkpt lat="49.38608" lon="1.08673">
        <ele>41</ele>
        <time>2018-06-14T13:25:35Z</time>
      </trkpt>
      <trkpt lat="49.38614" lon="1.08685">
        <ele>41</ele>
        <time>2018-06-14T13:25:37Z</time>
      </trkpt>
      <trkpt lat="49.38623" lon="1.08705">
        <ele>41</ele>
        <time>2018-06-14T13:25:42Z</time>
      </trkpt>
      <trkpt lat="49.38631" lon="1.08715">
        <ele>41</ele>
        <time>2018-06-14T13:25:44Z</time>
      </trkpt>
      <trkpt lat="49.38633" lon="1.08718">
        <ele>41</ele>
        <time>2018-06-14T13:25:45Z</time>
      </trkpt>
      <trkpt lat="49.38638" lon="1.08724">
        <ele>41</ele>
        <time>2018-06-14T13:25:47Z</time>
      </trkpt>
      <trkpt lat="49.38643" lon="1.08726">
        <ele>41</ele>
        <time>2018-06-14T13:25:48Z</time>
      </trkpt>
      <trkpt lat="49.38675" lon="1.08726">
        <ele>41</ele>
        <time>2018-06-14T13:25:57Z</time>
      </trkpt>
      <trkpt lat="49.38683" lon="1.08725">
        <ele>41</ele>
        <time>2018-06-14T13:25:59Z</time>
      </trkpt>
      <trkpt lat="49.38722" lon="1.08725">
        <ele>41</ele>
        <time>2018-06-14T13:26:09Z</time>
      </trkpt>
      <trkpt lat="49.38726" lon="1.08725">
        <ele>41</ele>
        <time>2018-06-14T13:26:10Z</time>
      </trkpt>
      <trkpt lat="49.38732" lon="1.08725">
        <ele>41</ele>
        <time>2018-06-14T13:26:12Z</time>
      </trkpt>
      <trkpt lat="49.38802" lon="1.08724">
        <ele>40</ele>
        <time>2018-06-14T13:26:31Z</time>
      </trkpt>
      <trkpt lat="49.38809" lon="1.08724">
        <ele>40</ele>
        <time>2018-06-14T13:26:33Z</time>
      </trkpt>
      <trkpt lat="49.38814" lon="1.08723">
        <ele>40</ele>
        <time>2018-06-14T13:26:34Z</time>
      </trkpt>
      <trkpt lat="49.38902" lon="1.08709">
        <ele>40</ele>
        <time>2018-06-14T13:26:58Z</time>
      </trkpt>
      <trkpt lat="49.39002" lon="1.08694">
        <ele>39</ele>
        <time>2018-06-14T13:27:24Z</time>
      </trkpt>
      <trkpt lat="49.39042" lon="1.0869">
        <ele>39</ele>
        <time>2018-06-14T13:27:35Z</time>
      </trkpt>
      <trkpt lat="49.39176" lon="1.08687">
        <ele>34</ele>
        <time>2018-06-14T13:28:11Z</time>
      </trkpt>
      <trkpt lat="49.39196" lon="1.08686">
        <ele>34</ele>
        <time>2018-06-14T13:28:16Z</time>
      </trkpt>
      <trkpt lat="49.39197" lon="1.08692">
        <ele>34</ele>
        <time>2018-06-14T13:28:17Z</time>
      </trkpt>
      <trkpt lat="49.39198" lon="1.08695">
        <ele>34</ele>
        <time>2018-06-14T13:28:18Z</time>
      </trkpt>
      <trkpt lat="49.39202" lon="1.08698">
        <ele>34</ele>
        <time>2018-06-14T13:28:19Z</time>
      </trkpt>
      <trkpt lat="49.39205" lon="1.08699">
        <ele>34</ele>
        <time>2018-06-14T13:28:20Z</time>
      </trkpt>
      <trkpt lat="49.39206" lon="1.08699">
        <ele>34</ele>
        <time>2018-06-14T13:28:20Z</time>
      </trkpt>
      <trkpt lat="49.39209" lon="1.08697">
        <ele>34</ele>
        <time>2018-06-14T13:28:21Z</time>
      </trkpt>
      <trkpt lat="49.39212" lon="1.08694">
        <ele>34</ele>
        <time>2018-06-14T13:28:22Z</time>
      </trkpt>
      <trkpt lat="49.39214" lon="1.0869">
        <ele>34</ele>
        <time>2018-06-14T13:28:23Z</time>
      </trkpt>
      <trkpt lat="49.39215" lon="1.08683">
        <ele>34</ele>
        <time>2018-06-14T13:28:24Z</time>
      </trkpt>
      <trkpt lat="49.39223" lon="1.08683">
        <ele>34</ele>
        <time>2018-06-14T13:28:26Z</time>
      </trkpt>
      <trkpt lat="49.39236" lon="1.08678">
        <ele>44</ele>
        <time>2018-06-14T13:28:30Z</time>
      </trkpt>
      <trkpt lat="49.39243" lon="1.08672">
        <ele>44</ele>
        <time>2018-06-14T13:28:32Z</time>
      </trkpt>
      <trkpt lat="49.39255" lon="1.08657">
        <ele>44</ele>
        <time>2018-06-14T13:28:36Z</time>
      </trkpt>
      <trkpt lat="49.39317" lon="1.08574">
        <ele>44</ele>
        <time>2018-06-14T13:28:58Z</time>
      </trkpt>
      <trkpt lat="49.39323" lon="1.08565">
        <ele>44</ele>
        <time>2018-06-14T13:29:00Z</time>
      </trkpt>
      <trkpt lat="49.39403" lon="1.08466">
        <ele>49</ele>
        <time>2018-06-14T13:29:28Z</time>
      </trkpt>
      <trkpt lat="49.39472" lon="1.08397">
        <ele>49</ele>
        <time>2018-06-14T13:29:50Z</time>
      </trkpt>
      <trkpt lat="49.39547" lon="1.08349">
        <ele>52</ele>
        <time>2018-06-14T13:30:11Z</time>
      </trkpt>
      <trkpt lat="49.39447" lon="1.08263">
        <ele>51</ele>
        <time>2018-06-14T13:30:42Z</time>
      </trkpt>
      <trkpt lat="49.39452" lon="1.08212">
        <ele>51</ele>
        <time>2018-06-14T13:30:51Z</time>
      </trkpt>
      <trkpt lat="49.39457" lon="1.08155">
        <ele>51</ele>
        <time>2018-06-14T13:31:01Z</time>
      </trkpt>
      <trkpt lat="49.39715" lon="1.08035">
        <ele>52</ele>
        <time>2018-06-14T13:32:13Z</time>
      </trkpt>
      <trkpt lat="49.39736" lon="1.07799">
        <ele>53</ele>
        <time>2018-06-14T13:32:54Z</time>
      </trkpt>
      <trkpt lat="49.39813" lon="1.07815">
        <ele>53</ele>
        <time>2018-06-14T13:33:15Z</time>
      </trkpt>
      <trkpt lat="49.39849" lon="1.07821">
        <ele>53</ele>
        <time>2018-06-14T13:33:25Z</time>
      </trkpt>
      <trkpt lat="49.39898" lon="1.07829">
        <ele>53</ele>
        <time>2018-06-14T13:33:38Z</time>
      </trkpt>
      <trkpt lat="49.39948" lon="1.0784">
        <ele>54</ele>
        <time>2018-06-14T13:33:51Z</time>
      </trkpt>
      <trkpt lat="49.4" lon="1.07851">
        <ele>54</ele>
        <time>2018-06-14T13:34:06Z</time>
      </trkpt>
      <trkpt lat="49.40013" lon="1.07708">
        <ele>53</ele>
        <time>2018-06-14T13:34:31Z</time>
      </trkpt>
      <trkpt lat="49.40016" lon="1.07661">
        <ele>53</ele>
        <time>2018-06-14T13:34:39Z</time>
      </trkpt>
      <trkpt lat="49.4002" lon="1.07614">
        <ele>53</ele>
        <time>2018-06-14T13:34:47Z</time>
      </trkpt>
      <trkpt lat="49.40024" lon="1.07566">
        <ele>53</ele>
        <time>2018-06-14T13:34:55Z</time>
      </trkpt>
      <trkpt lat="49.40026" lon="1.07537">
        <ele>53</ele>
        <time>2018-06-14T13:35:01Z</time>
      </trkpt>
      <trkpt lat="49.40031" lon="1.0747">
        <ele>45</ele>
        <time>2018-06-14T13:35:12Z</time>
      </trkpt>
      <trkpt lat="49.40031" lon="1.07464">
        <ele>45</ele>
        <time>2018-06-14T13:35:13Z</time>
      </trkpt>
      <trkpt lat="49.40031" lon="1.0746">
        <ele>45</ele>
        <time>2018-06-14T13:35:14Z</time>
      </trkpt>
      <trkpt lat="49.40031" lon="1.07454">
        <ele>45</ele>
        <time>2018-06-14T13:35:15Z</time>
      </trkpt>
      <trkpt lat="49.40032" lon="1.07443">
        <ele>45</ele>
        <time>2018-06-14T13:35:17Z</time>
      </trkpt>
      <trkpt lat="49.40205" lon="1.06855">
        <ele>49</ele>
        <time>2018-06-14T13:37:09Z</time>
      </trkpt>
      <trkpt lat="49.40218" lon="1.0681">
        <ele>51</ele>
        <time>2018-06-14T13:37:18Z</time>
      </trkpt>
      <trkpt lat="49.40268" lon="1.06644">
        <ele>51</ele>
        <time>2018-06-14T13:37:50Z</time>
      </trkpt>
      <trkpt lat="49.40276" lon="1.06619">
        <ele>51</ele>
        <time>2018-06-14T13:37:54Z</time>
      </trkpt>
      <trkpt lat="49.40282" lon="1.06596">
        <ele>50</ele>
        <time>2018-06-14T13:37:59Z</time>
      </trkpt>
      <trkpt lat="49.40287" lon="1.06582">
        <ele>50</ele>
        <time>2018-06-14T13:38:01Z</time>
      </trkpt>
      <trkpt lat="49.40232" lon="1.06545">
        <ele>50</ele>
        <time>2018-06-14T13:38:18Z</time>
      </trkpt>
      <trkpt lat="49.40198" lon="1.06521">
        <ele>50</ele>
        <time>2018-06-14T13:38:28Z</time>
      </trkpt>
      <trkpt lat="49.40203" lon="1.06507">
        <ele>50</ele>
        <time>2018-06-14T13:38:30Z</time>
      </trkpt>
      <trkpt lat="49.40211" lon="1.0648">
        <ele>50</ele>
        <time>2018-06-14T13:38:35Z</time>
      </trkpt>
      <trkpt lat="49.40217" lon="1.0646">
        <ele>50</ele>
        <time>2018-06-14T13:38:39Z</time>
      </trkpt>
      <trkpt lat="49.40305" lon="1.06171">
        <ele>49</ele>
        <time>2018-06-14T13:39:35Z</time>
      </trkpt>
      <trkpt lat="49.4031" lon="1.06152">
        <ele>49</ele>
        <time>2018-06-14T13:39:38Z</time>
      </trkpt>
      <trkpt lat="49.40322" lon="1.06113">
        <ele>49</ele>
        <time>2018-06-14T13:39:46Z</time>
      </trkpt>
      <trkpt lat="49.40391" lon="1.05886">
        <ele>49</ele>
        <time>2018-06-14T13:40:30Z</time>
      </trkpt>
      <trkpt lat="49.40394" lon="1.05875">
        <ele>49</ele>
        <time>2018-06-14T13:40:31Z</time>
      </trkpt>
      <trkpt lat="49.4041" lon="1.05824">
        <ele>49</ele>
        <time>2018-06-14T13:40:41Z</time>
      </trkpt>
      <trkpt lat="49.40459" lon="1.05661">
        <ele>42</ele>
        <time>2018-06-14T13:41:13Z</time>
      </trkpt>
      <trkpt lat="49.40506" lon="1.05505">
        <ele>42</ele>
        <time>2018-06-14T13:41:42Z</time>
      </trkpt>
      <trkpt lat="49.40516" lon="1.05507">
        <ele>40</ele>
        <time>2018-06-14T13:41:45Z</time>
      </trkpt>
      <trkpt lat="49.40522" lon="1.05506">
        <ele>40</ele>
        <time>2018-06-14T13:41:47Z</time>
      </trkpt>
      <trkpt lat="49.40528" lon="1.05503">
        <ele>40</ele>
        <time>2018-06-14T13:41:48Z</time>
      </trkpt>
      <trkpt lat="49.40532" lon="1.05497">
        <ele>40</ele>
        <time>2018-06-14T13:41:50Z</time>
      </trkpt>
      <trkpt lat="49.40533" lon="1.05495">
        <ele>40</ele>
        <time>2018-06-14T13:41:50Z</time>
      </trkpt>
      <trkpt lat="49.40537" lon="1.05484">
        <ele>40</ele>
        <time>2018-06-14T13:41:52Z</time>
      </trkpt>
      <trkpt lat="49.40539" lon="1.05471">
        <ele>40</ele>
        <time>2018-06-14T13:41:55Z</time>
      </trkpt>
      <trkpt lat="49.40546" lon="1.05442">
        <ele>40</ele>
        <time>2018-06-14T13:42:00Z</time>
      </trkpt>
      <trkpt lat="49.40564" lon="1.05387">
        <ele>40</ele>
        <time>2018-06-14T13:42:11Z</time>
      </trkpt>
      <trkpt lat="49.40569" lon="1.05369">
        <ele>40</ele>
        <time>2018-06-14T13:42:14Z</time>
      </trkpt>
      <trkpt lat="49.4057" lon="1.05366">
        <ele>40</ele>
        <time>2018-06-14T13:42:15Z</time>
      </trkpt>
      <trkpt lat="49.40585" lon="1.05317">
        <ele>40</ele>
        <time>2018-06-14T13:42:24Z</time>
      </trkpt>
      <trkpt lat="49.4062" lon="1.052">
        <ele>38</ele>
        <time>2018-06-14T13:42:47Z</time>
      </trkpt>
      <trkpt lat="49.40621" lon="1.05197">
        <ele>38</ele>
        <time>2018-06-14T13:42:47Z</time>
      </trkpt>
      <trkpt lat="49.4063" lon="1.0517">
        <ele>38</ele>
        <time>2018-06-14T13:42:53Z</time>
      </trkpt>
      <trkpt lat="49.40651" lon="1.05097">
        <ele>38</ele>
        <time>2018-06-14T13:43:06Z</time>
      </trkpt>
      <trkpt lat="49.40672" lon="1.05026">
        <ele>33</ele>
        <time>2018-06-14T13:43:20Z</time>
      </trkpt>
      <trkpt lat="49.4068" lon="1.04998">
        <ele>33</ele>
        <time>2018-06-14T13:43:25Z</time>
      </trkpt>
      <trkpt lat="49.40684" lon="1.04981">
        <ele>33</ele>
        <time>2018-06-14T13:43:29Z</time>
      </trkpt>
      <trkpt lat="49.4069" lon="1.04943">
        <ele>33</ele>
        <time>2018-06-14T13:43:35Z</time>
      </trkpt>
      <trkpt lat="49.40695" lon="1.04921">
        <ele>33</ele>
        <time>2018-06-14T13:43:39Z</time>
      </trkpt>
      <trkpt lat="49.40697" lon="1.04904">
        <ele>33</ele>
        <time>2018-06-14T13:43:42Z</time>
      </trkpt>
      <trkpt lat="49.40709" lon="1.04862">
        <ele>33</ele>
        <time>2018-06-14T13:43:50Z</time>
      </trkpt>
      <trkpt lat="49.40719" lon="1.04829">
        <ele>32</ele>
        <time>2018-06-14T13:43:57Z</time>
      </trkpt>
      <trkpt lat="49.40735" lon="1.04776">
        <ele>32</ele>
        <time>2018-06-14T13:44:07Z</time>
      </trkpt>
      <trkpt lat="49.40787" lon="1.04604">
        <ele>31</ele>
        <time>2018-06-14T13:44:40Z</time>
      </trkpt>
      <trkpt lat="49.40788" lon="1.04599">
        <ele>31</ele>
        <time>2018-06-14T13:44:41Z</time>
      </trkpt>
      <trkpt lat="49.4079" lon="1.04593">
        <ele>31</ele>
        <time>2018-06-14T13:44:42Z</time>
      </trkpt>
      <trkpt lat="49.40792" lon="1.04588">
        <ele>31</ele>
        <time>2018-06-14T13:44:43Z</time>
      </trkpt>
      <trkpt lat="49.40794" lon="1.04579">
        <ele>31</ele>
        <time>2018-06-14T13:44:44Z</time>
      </trkpt>
      <trkpt lat="49.40799" lon="1.04564">
        <ele>31</ele>
        <time>2018-06-14T13:44:48Z</time>
      </trkpt>
      <trkpt lat="49.40861" lon="1.04362">
        <ele>23</ele>
        <time>2018-06-14T13:45:26Z</time>
      </trkpt>
      <trkpt lat="49.40871" lon="1.04328">
        <ele>23</ele>
        <time>2018-06-14T13:45:33Z</time>
      </trkpt>
      <trkpt lat="49.40874" lon="1.04317">
        <ele>23</ele>
        <time>2018-06-14T13:45:35Z</time>
      </trkpt>
      <trkpt lat="49.40874" lon="1.04311">
        <ele>23</ele>
        <time>2018-06-14T13:45:36Z</time>
      </trkpt>
      <trkpt lat="49.40869" lon="1.04304">
        <ele>23</ele>
        <time>2018-06-14T13:45:38Z</time>
      </trkpt>
      <trkpt lat="49.40723" lon="1.04198">
        <ele>20</ele>
        <time>2018-06-14T13:46:21Z</time>
      </trkpt>
      <trkpt lat="49.40656" lon="1.0415">
        <ele>22</ele>
        <time>2018-06-14T13:46:40Z</time>
      </trkpt>
      <trkpt lat="49.40638" lon="1.0414">
        <ele>22</ele>
        <time>2018-06-14T13:46:46Z</time>
      </trkpt>
      <trkpt lat="49.40639" lon="1.04135">
        <ele>22</ele>
        <time>2018-06-14T13:46:47Z</time>
      </trkpt>
      <trkpt lat="49.40639" lon="1.0413">
        <ele>22</ele>
        <time>2018-06-14T13:46:48Z</time>
      </trkpt>
      <trkpt lat="49.40638" lon="1.04125">
        <ele>22</ele>
        <time>2018-06-14T13:46:48Z</time>
      </trkpt>
      <trkpt lat="49.40663" lon="1.04085">
        <ele>22</ele>
        <time>2018-06-14T13:46:58Z</time>
      </trkpt>
      <trkpt lat="49.40752" lon="1.03964">
        <ele>26</ele>
        <time>2018-06-14T13:47:30Z</time>
      </trkpt>
      <trkpt lat="49.40793" lon="1.03895">
        <ele>26</ele>
        <time>2018-06-14T13:47:46Z</time>
      </trkpt>
      <trkpt lat="49.40801" lon="1.03884">
        <ele>26</ele>
        <time>2018-06-14T13:47:49Z</time>
      </trkpt>
      <trkpt lat="49.40793" lon="1.03872">
        <ele>26</ele>
        <time>2018-06-14T13:47:52Z</time>
      </trkpt>
      <trkpt lat="49.4079" lon="1.03862">
        <ele>26</ele>
        <time>2018-06-14T13:47:54Z</time>
      </trkpt>
      <trkpt lat="49.4079" lon="1.03825">
        <ele>26</ele>
        <time>2018-06-14T13:48:00Z</time>
      </trkpt>
      <trkpt lat="49.40786" lon="1.03818">
        <ele>26</ele>
        <time>2018-06-14T13:48:02Z</time>
      </trkpt>
      <trkpt lat="49.40775" lon="1.03797">
        <ele>26</ele>
        <time>2018-06-14T13:48:06Z</time>
      </trkpt>
      <trkpt lat="49.40751" lon="1.03761">
        <ele>21</ele>
        <time>2018-06-14T13:48:16Z</time>
      </trkpt>
      <trkpt lat="49.40735" lon="1.03742">
        <ele>21</ele>
        <time>2018-06-14T13:48:21Z</time>
      </trkpt>
      <trkpt lat="49.40711" lon="1.0372">
        <ele>21</ele>
        <time>2018-06-14T13:48:28Z</time>
      </trkpt>
      <trkpt lat="49.40673" lon="1.03691">
        <ele>21</ele>
        <time>2018-06-14T13:48:40Z</time>
      </trkpt>
      <trkpt lat="49.40581" lon="1.03625">
        <ele>27</ele>
        <time>2018-06-14T13:49:07Z</time>
      </trkpt>
      <trkpt lat="49.40526" lon="1.03582">
        <ele>27</ele>
        <time>2018-06-14T13:49:23Z</time>
      </trkpt>
      <trkpt lat="49.40444" lon="1.03524">
        <ele>27</ele>
        <time>2018-06-14T13:49:47Z</time>
      </trkpt>
      <trkpt lat="49.40437" lon="1.03516">
        <ele>27</ele>
        <time>2018-06-14T13:49:50Z</time>
      </trkpt>
      <trkpt lat="49.40418" lon="1.03491">
        <ele>27</ele>
        <time>2018-06-14T13:49:56Z</time>
      </trkpt>
      <trkpt lat="49.40409" lon="1.03483">
        <ele>27</ele>
        <time>2018-06-14T13:49:59Z</time>
      </trkpt>
      <trkpt lat="49.40393" lon="1.03472">
        <ele>27</ele>
        <time>2018-06-14T13:50:04Z</time>
      </trkpt>
      <trkpt lat="49.4032" lon="1.03422">
        <ele>21</ele>
        <time>2018-06-14T13:50:25Z</time>
      </trkpt>
      <trkpt lat="49.40274" lon="1.03392">
        <ele>21</ele>
        <time>2018-06-14T13:50:39Z</time>
      </trkpt>
      <trkpt lat="49.40245" lon="1.03377">
        <ele>21</ele>
        <time>2018-06-14T13:50:47Z</time>
      </trkpt>
      <trkpt lat="49.40231" lon="1.0337">
        <ele>21</ele>
        <time>2018-06-14T13:50:51Z</time>
      </trkpt>
      <trkpt lat="49.40212" lon="1.03365">
        <ele>21</ele>
        <time>2018-06-14T13:50:56Z</time>
      </trkpt>
      <trkpt lat="49.40191" lon="1.03362">
        <ele>28</ele>
        <time>2018-06-14T13:51:02Z</time>
      </trkpt>
      <trkpt lat="49.40167" lon="1.03365">
        <ele>28</ele>
        <time>2018-06-14T13:51:08Z</time>
      </trkpt>
      <trkpt lat="49.40137" lon="1.03375">
        <ele>28</ele>
        <time>2018-06-14T13:51:16Z</time>
      </trkpt>
      <trkpt lat="49.39987" lon="1.03437">
        <ele>26</ele>
        <time>2018-06-14T13:51:58Z</time>
      </trkpt>
      <trkpt lat="49.39977" lon="1.03446">
        <ele>26</ele>
        <time>2018-06-14T13:52:01Z</time>
      </trkpt>
      <trkpt lat="49.39973" lon="1.03428">
        <ele>26</ele>
        <time>2018-06-14T13:52:04Z</time>
      </trkpt>
      <trkpt lat="49.39963" lon="1.03392">
        <ele>26</ele>
        <time>2018-06-14T13:52:11Z</time>
      </trkpt>
      <trkpt lat="49.39952" lon="1.03361">
        <ele>19</ele>
        <time>2018-06-14T13:52:17Z</time>
      </trkpt>
      <trkpt lat="49.39939" lon="1.03327">
        <ele>19</ele>
        <time>2018-06-14T13:52:24Z</time>
      </trkpt>
      <trkpt lat="49.3993" lon="1.03299">
        <ele>19</ele>
        <time>2018-06-14T13:52:29Z</time>
      </trkpt>
      <trkpt lat="49.39922" lon="1.03262">
        <ele>19</ele>
        <time>2018-06-14T13:52:36Z</time>
      </trkpt>
      <trkpt lat="49.39913" lon="1.03216">
        <ele>19</ele>
        <time>2018-06-14T13:52:44Z</time>
      </trkpt>
      <trkpt lat="49.39901" lon="1.03159">
        <ele>13</ele>
        <time>2018-06-14T13:52:55Z</time>
      </trkpt>
      <trkpt lat="49.39894" lon="1.03133">
        <ele>13</ele>
        <time>2018-06-14T13:53:00Z</time>
      </trkpt>
      <trkpt lat="49.39887" lon="1.03116">
        <ele>13</ele>
        <time>2018-06-14T13:53:03Z</time>
      </trkpt>
      <trkpt lat="49.39877" lon="1.03106">
        <ele>13</ele>
        <time>2018-06-14T13:53:06Z</time>
      </trkpt>
      <trkpt lat="49.39866" lon="1.03101">
        <ele>13</ele>
        <time>2018-06-14T13:53:09Z</time>
      </trkpt>
      <trkpt lat="49.39859" lon="1.03099">
        <ele>13</ele>
        <time>2018-06-14T13:53:11Z</time>
      </trkpt>
      <trkpt lat="49.39845" lon="1.03101">
        <ele>13</ele>
        <time>2018-06-14T13:53:15Z</time>
      </trkpt>
      <trkpt lat="49.39835" lon="1.03106">
        <ele>13</ele>
        <time>2018-06-14T13:53:18Z</time>
      </trkpt>
      <trkpt lat="49.39774" lon="1.03136">
        <ele>13</ele>
        <time>2018-06-14T13:53:35Z</time>
      </trkpt>
      <trkpt lat="49.39742" lon="1.03149">
        <ele>11</ele>
        <time>2018-06-14T13:53:44Z</time>
      </trkpt>
      <trkpt lat="49.39721" lon="1.0315">
        <ele>11</ele>
        <time>2018-06-14T13:53:50Z</time>
      </trkpt>
      <trkpt lat="49.39707" lon="1.03145">
        <ele>11</ele>
        <time>2018-06-14T13:53:53Z</time>
      </trkpt>
      <trkpt lat="49.3969" lon="1.03136">
        <ele>11</ele>
        <time>2018-06-14T13:53:58Z</time>
      </trkpt>
      <trkpt lat="49.39673" lon="1.03119">
        <ele>11</ele>
        <time>2018-06-14T13:54:04Z</time>
      </trkpt>
      <trkpt lat="49.3967" lon="1.03115">
        <ele>11</ele>
        <time>2018-06-14T13:54:05Z</time>
      </trkpt>
      <trkpt lat="49.39666" lon="1.03116">
        <ele>11</ele>
        <time>2018-06-14T13:54:06Z</time>
      </trkpt>
      <trkpt lat="49.39658" lon="1.03118">
        <ele>11</ele>
        <time>2018-06-14T13:54:08Z</time>
      </trkpt>
      <trkpt lat="49.39658" lon="1.0311">
        <ele>11</ele>
        <time>2018-06-14T13:54:09Z</time>
      </trkpt>
      <trkpt lat="49.39657" lon="1.03099">
        <ele>11</ele>
        <time>2018-06-14T13:54:11Z</time>
      </trkpt>
      <trkpt lat="49.39659" lon="1.03098">
        <ele>11</ele>
        <time>2018-06-14T13:54:12Z</time>
      </trkpt>
      <trkpt lat="49.39661" lon="1.03096">
        <ele>11</ele>
        <time>2018-06-14T13:54:12Z</time>
      </trkpt>
      <trkpt lat="49.39663" lon="1.03095">
        <ele>11</ele>
        <time>2018-06-14T13:54:13Z</time>
      </trkpt>
      <trkpt lat="49.39664" lon="1.03093">
        <ele>11</ele>
        <time>2018-06-14T13:54:14Z</time>
      </trkpt>
      <trkpt lat="49.39666" lon="1.03086">
        <ele>11</ele>
        <time>2018-06-14T13:54:15Z</time>
      </trkpt>
      <trkpt lat="49.39665" lon="1.03077">
        <ele>11</ele>
        <time>2018-06-14T13:54:16Z</time>
      </trkpt>
      <trkpt lat="49.39662" lon="1.03071">
        <ele>11</ele>
        <time>2018-06-14T13:54:18Z</time>
      </trkpt>
      <trkpt lat="49.39689" lon="1.03022">
        <ele>12</ele>
        <time>2018-06-14T13:54:29Z</time>
      </trkpt>
      <trkpt lat="49.39714" lon="1.02976">
        <ele>12</ele>
        <time>2018-06-14T13:54:39Z</time>
      </trkpt>
      <trkpt lat="49.39755" lon="1.02903">
        <ele>12</ele>
        <time>2018-06-14T13:54:56Z</time>
      </trkpt>
      <trkpt lat="49.3976" lon="1.02893">
        <ele>12</ele>
        <time>2018-06-14T13:54:58Z</time>
      </trkpt>
      <trkpt lat="49.39763" lon="1.02881">
        <ele>12</ele>
        <time>2018-06-14T13:55:00Z</time>
      </trkpt>
      <trkpt lat="49.39764" lon="1.02877">
        <ele>12</ele>
        <time>2018-06-14T13:55:01Z</time>
      </trkpt>
      <trkpt lat="49.39785" lon="1.0279">
        <ele>11</ele>
        <time>2018-06-14T13:55:17Z</time>
      </trkpt>
      <trkpt lat="49.39793" lon="1.02778">
        <ele>11</ele>
        <time>2018-06-14T13:55:20Z</time>
      </trkpt>
      <trkpt lat="49.39791" lon="1.02741">
        <ele>11</ele>
        <time>2018-06-14T13:55:27Z</time>
      </trkpt>
      <trkpt lat="49.39794" lon="1.02715">
        <ele>11</ele>
        <time>2018-06-14T13:55:31Z</time>
      </trkpt>
      <trkpt lat="49.39792" lon="1.02701">
        <ele>11</ele>
        <time>2018-06-14T13:55:34Z</time>
      </trkpt>
      <trkpt lat="49.3978" lon="1.02687">
        <ele>11</ele>
        <time>2018-06-14T13:55:38Z</time>
      </trkpt>
      <trkpt lat="49.39724" lon="1.02622">
        <ele>9</ele>
        <time>2018-06-14T13:55:57Z</time>
      </trkpt>
      <trkpt lat="49.39696" lon="1.02591">
        <ele>9</ele>
        <time>2018-06-14T13:56:06Z</time>
      </trkpt>
      <trkpt lat="49.39689" lon="1.02569">
        <ele>9</ele>
        <time>2018-06-14T13:56:10Z</time>
      </trkpt>
      <trkpt lat="49.3967" lon="1.02548">
        <ele>9</ele>
        <time>2018-06-14T13:56:16Z</time>
      </trkpt>
      <trkpt lat="49.39643" lon="1.02517">
        <ele>9</ele>
        <time>2018-06-14T13:56:25Z</time>
      </trkpt>
      <trkpt lat="49.39607" lon="1.02489">
        <ele>9</ele>
        <time>2018-06-14T13:56:36Z</time>
      </trkpt>
      <trkpt lat="49.39533" lon="1.02432">
        <ele>6</ele>
        <time>2018-06-14T13:56:58Z</time>
      </trkpt>
      <trkpt lat="49.39442" lon="1.02386">
        <ele>4</ele>
        <time>2018-06-14T13:57:24Z</time>
      </trkpt>
      <trkpt lat="49.39439" lon="1.02379">
        <ele>4</ele>
        <time>2018-06-14T13:57:25Z</time>
      </trkpt>
      <trkpt lat="49.39412" lon="1.02363">
        <ele>4</ele>
        <time>2018-06-14T13:57:33Z</time>
      </trkpt>
      <trkpt lat="49.39401" lon="1.02359">
        <ele>4</ele>
        <time>2018-06-14T13:57:36Z</time>
      </trkpt>
      <trkpt lat="49.39391" lon="1.02356">
        <ele>4</ele>
        <time>2018-06-14T13:57:39Z</time>
      </trkpt>
      <trkpt lat="49.39375" lon="1.02351">
        <ele>4</ele>
        <time>2018-06-14T13:57:43Z</time>
      </trkpt>
      <trkpt lat="49.39373" lon="1.02351">
        <ele>4</ele>
        <time>2018-06-14T13:57:44Z</time>
      </trkpt>
      <trkpt lat="49.39359" lon="1.02347">
        <ele>4</ele>
        <time>2018-06-14T13:57:47Z</time>
      </trkpt>
      <trkpt lat="49.3935" lon="1.02345">
        <ele>4</ele>
        <time>2018-06-14T13:57:50Z</time>
      </trkpt>
      <trkpt lat="49.3934" lon="1.02334">
        <ele>4</ele>
        <time>2018-06-14T13:57:53Z</time>
      </trkpt>
      <trkpt lat="49.39325" lon="1.02324">
        <ele>4</ele>
        <time>2018-06-14T13:57:58Z</time>
      </trkpt>
      <trkpt lat="49.39165" lon="1.02222">
        <ele>6</ele>
        <time>2018-06-14T13:58:44Z</time>
      </trkpt>
      <trkpt lat="49.39077" lon="1.02179">
        <ele>5</ele>
        <time>2018-06-14T13:59:09Z</time>
      </trkpt>
      <trkpt lat="49.39069" lon="1.02176">
        <ele>5</ele>
        <time>2018-06-14T13:59:11Z</time>
      </trkpt>
      <trkpt lat="49.39081" lon="1.0211">
        <ele>5</ele>
        <time>2018-06-14T13:59:23Z</time>
      </trkpt>
      <trkpt lat="49.39083" lon="1.02096">
        <ele>5</ele>
        <time>2018-06-14T13:59:25Z</time>
      </trkpt>
      <trkpt lat="49.39084" lon="1.02083">
        <ele>5</ele>
        <time>2018-06-14T13:59:28Z</time>
      </trkpt>
      <trkpt lat="49.39093" lon="1.02058">
        <ele>5</ele>
        <time>2018-06-14T13:59:32Z</time>
      </trkpt>
      <trkpt lat="49.39086" lon="1.02046">
        <ele>5</ele>
        <time>2018-06-14T13:59:35Z</time>
      </trkpt>
      <trkpt lat="49.38998" lon="1.02002">
        <ele>7</ele>
        <time>2018-06-14T14:00:00Z</time>
      </trkpt>
      <trkpt lat="49.38967" lon="1.01989">
        <ele>5</ele>
        <time>2018-06-14T14:00:09Z</time>
      </trkpt>
      <trkpt lat="49.38944" lon="1.01967">
        <ele>5</ele>
        <time>2018-06-14T14:00:16Z</time>
      </trkpt>
      <trkpt lat="49.38926" lon="1.01956">
        <ele>5</ele>
        <time>2018-06-14T14:00:21Z</time>
      </trkpt>
      <trkpt lat="49.38877" lon="1.01931">
        <ele>5</ele>
        <time>2018-06-14T14:00:35Z</time>
      </trkpt>
      <trkpt lat="49.38799" lon="1.01893">
        <ele>7</ele>
        <time>2018-06-14T14:00:57Z</time>
      </trkpt>
      <trkpt lat="49.38769" lon="1.01888">
        <ele>7</ele>
        <time>2018-06-14T14:01:05Z</time>
      </trkpt>
      <trkpt lat="49.38743" lon="1.01875">
        <ele>7</ele>
        <time>2018-06-14T14:01:12Z</time>
      </trkpt>
      <trkpt lat="49.38714" lon="1.01856">
        <ele>7</ele>
        <time>2018-06-14T14:01:21Z</time>
      </trkpt>
      <trkpt lat="49.38699" lon="1.01849">
        <ele>7</ele>
        <time>2018-06-14T14:01:25Z</time>
      </trkpt>
      <trkpt lat="49.38677" lon="1.01844">
        <ele>7</ele>
        <time>2018-06-14T14:01:31Z</time>
      </trkpt>
      <trkpt lat="49.38654" lon="1.01842">
        <ele>7</ele>
        <time>2018-06-14T14:01:37Z</time>
      </trkpt>
      <trkpt lat="49.38643" lon="1.01839">
        <ele>1</ele>
        <time>2018-06-14T14:01:40Z</time>
      </trkpt>
      <trkpt lat="49.38634" lon="1.01833">
        <ele>1</ele>
        <time>2018-06-14T14:01:42Z</time>
      </trkpt>
      <trkpt lat="49.38619" lon="1.018">
        <ele>1</ele>
        <time>2018-06-14T14:01:49Z</time>
      </trkpt>
      <trkpt lat="49.38607" lon="1.01775">
        <ele>1</ele>
        <time>2018-06-14T14:01:55Z</time>
      </trkpt>
      <trkpt lat="49.38585" lon="1.01739">
        <ele>1</ele>
        <time>2018-06-14T14:02:03Z</time>
      </trkpt>
      <trkpt lat="49.38544" lon="1.01691">
        <ele>1</ele>
        <time>2018-06-14T14:02:17Z</time>
      </trkpt>
      <trkpt lat="49.38538" lon="1.01684">
        <ele>1</ele>
        <time>2018-06-14T14:02:19Z</time>
      </trkpt>
      <trkpt lat="49.38519" lon="1.01674">
        <ele>1</ele>
        <time>2018-06-14T14:02:25Z</time>
      </trkpt>
      <trkpt lat="49.38513" lon="1.01678">
        <ele>1</ele>
        <time>2018-06-14T14:02:26Z</time>
      </trkpt>
      <trkpt lat="49.3851" lon="1.01687">
        <ele>1</ele>
        <time>2018-06-14T14:02:28Z</time>
      </trkpt>
      <trkpt lat="49.38505" lon="1.0169">
        <ele>1</ele>
        <time>2018-06-14T14:02:29Z</time>
      </trkpt>
      <trkpt lat="49.38502" lon="1.01686">
        <ele>1</ele>
        <time>2018-06-14T14:02:30Z</time>
      </trkpt>
      <trkpt lat="49.38493" lon="1.01682">
        <ele>1</ele>
        <time>2018-06-14T14:02:33Z</time>
      </trkpt>
      <trkpt lat="49.38378" lon="1.0163">
        <ele>5</ele>
        <time>2018-06-14T14:03:05Z</time>
      </trkpt>
      <trkpt lat="49.38381" lon="1.01611">
        <ele>5</ele>
        <time>2018-06-14T14:03:08Z</time>
      </trkpt>
      <trkpt lat="49.38385" lon="1.01599">
        <ele>5</ele>
        <time>2018-06-14T14:03:11Z</time>
      </trkpt>
      <trkpt lat="49.3839" lon="1.01584">
        <ele>5</ele>
        <time>2018-06-14T14:03:14Z</time>
      </trkpt>
      <trkpt lat="49.38378" lon="1.0158">
        <ele>5</ele>
        <time>2018-06-14T14:03:17Z</time>
      </trkpt>
      <trkpt lat="49.38379" lon="1.0157">
        <ele>5</ele>
        <time>2018-06-14T14:03:19Z</time>
      </trkpt>
      <trkpt lat="49.38409" lon="1.01495">
        <ele>5</ele>
        <time>2018-06-14T14:03:34Z</time>
      </trkpt>
      <trkpt lat="49.38423" lon="1.01464">
        <ele>5</ele>
        <time>2018-06-14T14:03:41Z</time>
      </trkpt>
      <trkpt lat="49.38467" lon="1.01323">
        <ele>5.5</ele>
        <time>2018-06-14T14:04:08Z</time>
      </trkpt>
      <trkpt lat="49.3848" lon="1.01283">
        <ele>5</ele>
        <time>2018-06-14T14:04:16Z</time>
      </trkpt>
      <trkpt lat="49.38488" lon="1.01263">
        <ele>5.3</ele>
        <time>2018-06-14T14:04:20Z</time>
      </trkpt>
      <trkpt lat="49.38499" lon="1.01242">
        <ele>5.7</ele>
        <time>2018-06-14T14:04:24Z</time>
      </trkpt>
      <trkpt lat="49.38517" lon="1.01208">
        <ele>5</ele>
        <time>2018-06-14T14:04:32Z</time>
      </trkpt>
      <trkpt lat="49.38524" lon="1.01216">
        <ele>8</ele>
        <time>2018-06-14T14:04:34Z</time>
      </trkpt>
      <trkpt lat="49.38537" lon="1.0119">
        <ele>8</ele>
        <time>2018-06-14T14:04:40Z</time>
      </trkpt>
      <trkpt lat="49.38569" lon="1.01138">
        <ele>8</ele>
        <time>2018-06-14T14:04:52Z</time>
      </trkpt>
      <trkpt lat="49.38608" lon="1.01069">
        <ele>8</ele>
        <time>2018-06-14T14:05:08Z</time>
      </trkpt>
      <trkpt lat="49.38629" lon="1.01018">
        <ele>8</ele>
        <time>2018-06-14T14:05:19Z</time>
      </trkpt>
      <trkpt lat="49.38638" lon="1.00968">
        <ele>8</ele>
        <time>2018-06-14T14:05:28Z</time>
      </trkpt>
      <trkpt lat="49.38632" lon="1.00908">
        <ele>8</ele>
        <time>2018-06-14T14:05:38Z</time>
      </trkpt>
      <trkpt lat="49.38628" lon="1.00877">
        <ele>8</ele>
        <time>2018-06-14T14:05:44Z</time>
      </trkpt>
      <trkpt lat="49.38598" lon="1.00829">
        <ele>8</ele>
        <time>2018-06-14T14:05:56Z</time>
      </trkpt>
      <trkpt lat="49.38577" lon="1.00796">
        <ele>8</ele>
        <time>2018-06-14T14:06:03Z</time>
      </trkpt>
      <trkpt lat="49.38569" lon="1.00784">
        <ele>5</ele>
        <time>2018-06-14T14:06:06Z</time>
      </trkpt>
      <trkpt lat="49.38564" lon="1.00811">
        <ele>5</ele>
        <time>2018-06-14T14:06:11Z</time>
      </trkpt>
      <trkpt lat="49.38547" lon="1.00818">
        <ele>5</ele>
        <time>2018-06-14T14:06:16Z</time>
      </trkpt>
      <trkpt lat="49.38496" lon="1.00809">
        <ele>5</ele>
        <time>2018-06-14T14:06:30Z</time>
      </trkpt>
      <trkpt lat="49.38476" lon="1.00799">
        <ele>5</ele>
        <time>2018-06-14T14:06:35Z</time>
      </trkpt>
      <trkpt lat="49.38453" lon="1.00743">
        <ele>5</ele>
        <time>2018-06-14T14:06:47Z</time>
      </trkpt>
      <trkpt lat="49.38421" lon="1.00714">
        <ele>6</ele>
        <time>2018-06-14T14:06:57Z</time>
      </trkpt>
      <trkpt lat="49.38372" lon="1.00691">
        <ele>6</ele>
        <time>2018-06-14T14:07:11Z</time>
      </trkpt>
      <trkpt lat="49.38263" lon="1.00671">
        <ele>5</ele>
        <time>2018-06-14T14:07:40Z</time>
      </trkpt>
      <trkpt lat="49.38179" lon="1.00615">
        <ele>5</ele>
        <time>2018-06-14T14:08:04Z</time>
      </trkpt>
      <trkpt lat="49.3807" lon="1.00544">
        <ele>6</ele>
        <time>2018-06-14T14:08:36Z</time>
      </trkpt>
      <trkpt lat="49.37965" lon="1.00485">
        <ele>7</ele>
        <time>2018-06-14T14:09:06Z</time>
      </trkpt>
      <trkpt lat="49.37842" lon="1.00426">
        <ele>7</ele>
        <time>2018-06-14T14:09:40Z</time>
      </trkpt>
      <trkpt lat="49.37837" lon="1.00424">
        <ele>7</ele>
        <time>2018-06-14T14:09:42Z</time>
      </trkpt>
      <trkpt lat="49.37784" lon="1.00402">
        <ele>4</ele>
        <time>2018-06-14T14:09:56Z</time>
      </trkpt>
      <trkpt lat="49.37715" lon="1.00359">
        <ele>4</ele>
        <time>2018-06-14T14:10:16Z</time>
      </trkpt>
      <trkpt lat="49.37602" lon="1.00274">
        <ele>1</ele>
        <time>2018-06-14T14:10:50Z</time>
      </trkpt>
      <trkpt lat="49.37593" lon="1.00259">
        <ele>1</ele>
        <time>2018-06-14T14:10:53Z</time>
      </trkpt>
      <trkpt lat="49.37587" lon="1.00236">
        <ele>1</ele>
        <time>2018-06-14T14:10:58Z</time>
      </trkpt>
      <trkpt lat="49.3758" lon="1.00224">
        <ele>1</ele>
        <time>2018-06-14T14:11:00Z</time>
      </trkpt>
      <trkpt lat="49.37564" lon="1.00215">
        <ele>1</ele>
        <time>2018-06-14T14:11:05Z</time>
      </trkpt>
      <trkpt lat="49.37563" lon="1.00202">
        <ele>1</ele>
        <time>2018-06-14T14:11:07Z</time>
      </trkpt>
      <trkpt lat="49.37564" lon="1.00189">
        <ele>1</ele>
        <time>2018-06-14T14:11:10Z</time>
      </trkpt>
      <trkpt lat="49.37575" lon="1.0016">
        <ele>1</ele>
        <time>2018-06-14T14:11:15Z</time>
      </trkpt>
      <trkpt lat="49.37573" lon="1.00149">
        <ele>1</ele>
        <time>2018-06-14T14:11:17Z</time>
      </trkpt>
      <trkpt lat="49.37539" lon="1.00126">
        <ele>2</ele>
        <time>2018-06-14T14:11:27Z</time>
      </trkpt>
      <trkpt lat="49.37498" lon="1.00107">
        <ele>2</ele>
        <time>2018-06-14T14:11:39Z</time>
      </trkpt>
      <trkpt lat="49.37419" lon="1.00058">
        <ele>2</ele>
        <time>2018-06-14T14:12:02Z</time>
      </trkpt>
      <trkpt lat="49.37333" lon="1.0002">
        <ele>4.3</ele>
        <time>2018-06-14T14:12:25Z</time>
      </trkpt>
      <trkpt lat="49.37271" lon="0.99978">
        <ele>4.5</ele>
        <time>2018-06-14T14:12:44Z</time>
      </trkpt>
      <trkpt lat="49.37245" lon="0.99958">
        <ele>3.6</ele>
        <time>2018-06-14T14:12:51Z</time>
      </trkpt>
      <trkpt lat="49.37214" lon="0.9993">
        <ele>3.4</ele>
        <time>2018-06-14T14:13:01Z</time>
      </trkpt>
      <trkpt lat="49.3717" lon="0.99908">
        <ele>2.2</ele>
        <time>2018-06-14T14:13:13Z</time>
      </trkpt>
      <trkpt lat="49.37114" lon="0.99877">
        <ele>3.5</ele>
        <time>2018-06-14T14:13:29Z</time>
      </trkpt>
      <trkpt lat="49.37083" lon="0.99858">
        <ele>4.1</ele>
        <time>2018-06-14T14:13:38Z</time>
      </trkpt>
      <trkpt lat="49.37074" lon="0.99861">
        <ele>3.7</ele>
        <time>2018-06-14T14:13:41Z</time>
      </trkpt>
      <trkpt lat="49.37062" lon="0.99856">
        <ele>3.6</ele>
        <time>2018-06-14T14:13:44Z</time>
      </trkpt>
      <trkpt lat="49.37033" lon="0.99836">
        <ele>4.1</ele>
        <time>2018-06-14T14:13:52Z</time>
      </trkpt>
      <trkpt lat="49.37019" lon="0.99825">
        <ele>3.5</ele>
        <time>2018-06-14T14:13:57Z</time>
      </trkpt>
      <trkpt lat="49.36914" lon="0.99747">
        <ele>4</ele>
        <time>2018-06-14T14:14:28Z</time>
      </trkpt>
      <trkpt lat="49.36886" lon="0.99725">
        <ele>4</ele>
        <time>2018-06-14T14:14:36Z</time>
      </trkpt>
      <trkpt lat="49.36837" lon="0.99683">
        <ele>4</ele>
        <time>2018-06-14T14:14:51Z</time>
      </trkpt>
      <trkpt lat="49.36793" lon="0.99648">
        <ele>4</ele>
        <time>2018-06-14T14:15:04Z</time>
      </trkpt>
      <trkpt lat="49.36773" lon="0.99632">
        <ele>2</ele>
        <time>2018-06-14T14:15:10Z</time>
      </trkpt>
      <trkpt lat="49.36704" lon="0.99565">
        <ele>2</ele>
        <time>2018-06-14T14:15:32Z</time>
      </trkpt>
      <trkpt lat="49.36646" lon="0.99506">
        <ele>2</ele>
        <time>2018-06-14T14:15:51Z</time>
      </trkpt>
      <trkpt lat="49.3661" lon="0.99471">
        <ele>4</ele>
        <time>2018-06-14T14:16:02Z</time>
      </trkpt>
      <trkpt lat="49.36534" lon="0.99389">
        <ele>3.5</ele>
        <time>2018-06-14T14:16:27Z</time>
      </trkpt>
      <trkpt lat="49.3647" lon="0.99323">
        <ele>3</ele>
        <time>2018-06-14T14:16:48Z</time>
      </trkpt>
      <trkpt lat="49.36443" lon="0.99294">
        <ele>3</ele>
        <time>2018-06-14T14:16:56Z</time>
      </trkpt>
      <trkpt lat="49.36411" lon="0.99254">
        <ele>3</ele>
        <time>2018-06-14T14:17:07Z</time>
      </trkpt>
      <trkpt lat="49.36391" lon="0.99231">
        <ele>3</ele>
        <time>2018-06-14T14:17:14Z</time>
      </trkpt>
      <trkpt lat="49.36335" lon="0.99151">
        <ele>5</ele>
        <time>2018-06-14T14:17:35Z</time>
      </trkpt>
      <trkpt lat="49.36249" lon="0.99022">
        <ele>5</ele>
        <time>2018-06-14T14:18:07Z</time>
      </trkpt>
      <trkpt lat="49.36195" lon="0.98944">
        <ele>4</ele>
        <time>2018-06-14T14:18:26Z</time>
      </trkpt>
      <trkpt lat="49.36142" lon="0.98866">
        <ele>3.6</ele>
        <time>2018-06-14T14:18:46Z</time>
      </trkpt>
      <trkpt lat="49.36085" lon="0.98782">
        <ele>1</ele>
        <time>2018-06-14T14:19:07Z</time>
      </trkpt>
      <trkpt lat="49.36029" lon="0.987">
        <ele>1</ele>
        <time>2018-06-14T14:19:28Z</time>
      </trkpt>
      <trkpt lat="49.35994" lon="0.98648">
        <ele>2</ele>
        <time>2018-06-14T14:19:41Z</time>
      </trkpt>
      <trkpt lat="49.35964" lon="0.98604">
        <ele>2</ele>
        <time>2018-06-14T14:19:52Z</time>
      </trkpt>
      <trkpt lat="49.35919" lon="0.98538">
        <ele>2</ele>
        <time>2018-06-14T14:20:09Z</time>
      </trkpt>
      <trkpt lat="49.35893" lon="0.98501">
        <ele>2</ele>
        <time>2018-06-14T14:20:18Z</time>
      </trkpt>
      <trkpt lat="49.35864" lon="0.98456">
        <ele>2.9</ele>
        <time>2018-06-14T14:20:29Z</time>
      </trkpt>
      <trkpt lat="49.35829" lon="0.98402">
        <ele>3.7</ele>
        <time>2018-06-14T14:20:42Z</time>
      </trkpt>
      <trkpt lat="49.35794" lon="0.98353">
        <ele>3.9</ele>
        <time>2018-06-14T14:20:55Z</time>
      </trkpt>
      <trkpt lat="49.35764" lon="0.98309">
        <ele>2</ele>
        <time>2018-06-14T14:21:06Z</time>
      </trkpt>
      <trkpt lat="49.35743" lon="0.98271">
        <ele>2</ele>
        <time>2018-06-14T14:21:15Z</time>
      </trkpt>
      <trkpt lat="49.35715" lon="0.98211">
        <ele>2</ele>
        <time>2018-06-14T14:21:28Z</time>
      </trkpt>
      <trkpt lat="49.35726" lon="0.9811">
        <ele>2</ele>
        <time>2018-06-14T14:21:45Z</time>
      </trkpt>
      <trkpt lat="49.35706" lon="0.98035">
        <ele>1</ele>
        <time>2018-06-14T14:22:00Z</time>
      </trkpt>
      <trkpt lat="49.35699" lon="0.97985">
        <ele>1</ele>
        <time>2018-06-14T14:22:08Z</time>
      </trkpt>
      <trkpt lat="49.35644" lon="0.97831">
        <ele>2</ele>
        <time>2018-06-14T14:22:39Z</time>
      </trkpt>
      <trkpt lat="49.35616" lon="0.97756">
        <ele>2</ele>
        <time>2018-06-14T14:22:54Z</time>
      </trkpt>
      <trkpt lat="49.35554" lon="0.97691">
        <ele>2</ele>
        <time>2018-06-14T14:23:14Z</time>
      </trkpt>
      <trkpt lat="49.3552" lon="0.97664">
        <ele>2</ele>
        <time>2018-06-14T14:23:24Z</time>
      </trkpt>
      <trkpt lat="49.35488" lon="0.97637">
        <ele>2</ele>
        <time>2018-06-14T14:23:34Z</time>
      </trkpt>
      <trkpt lat="49.35471" lon="0.97608">
        <ele>2</ele>
        <time>2018-06-14T14:23:41Z</time>
      </trkpt>
      <trkpt lat="49.35462" lon="0.97598">
        <ele>2</ele>
        <time>2018-06-14T14:23:44Z</time>
      </trkpt>
      <trkpt lat="49.35433" lon="0.97503">
        <ele>2</ele>
        <time>2018-06-14T14:24:02Z</time>
      </trkpt>
      <trkpt lat="49.35392" lon="0.97332">
        <ele>2</ele>
        <time>2018-06-14T14:24:34Z</time>
      </trkpt>
      <trkpt lat="49.3535" lon="0.97115">
        <ele>3.1</ele>
        <time>2018-06-14T14:25:13Z</time>
      </trkpt>
      <trkpt lat="49.35315" lon="0.96823">
        <ele>3</ele>
        <time>2018-06-14T14:26:05Z</time>
      </trkpt>
      <trkpt lat="49.35303" lon="0.96682">
        <ele>8</ele>
        <time>2018-06-14T14:26:30Z</time>
      </trkpt>
      <trkpt lat="49.35287" lon="0.96421">
        <ele>4</ele>
        <time>2018-06-14T14:27:15Z</time>
      </trkpt>
      <trkpt lat="49.35277" lon="0.96147">
        <ele>2</ele>
        <time>2018-06-14T14:28:03Z</time>
      </trkpt>
      <trkpt lat="49.35272" lon="0.95771">
        <ele>5</ele>
        <time>2018-06-14T14:29:08Z</time>
      </trkpt>
      <trkpt lat="49.35271" lon="0.95735">
        <ele>5</ele>
        <time>2018-06-14T14:29:15Z</time>
      </trkpt>
      <trkpt lat="49.35269" lon="0.95638">
        <ele>4</ele>
        <time>2018-06-14T14:29:32Z</time>
      </trkpt>
      <trkpt lat="49.35273" lon="0.95417">
        <ele>4</ele>
        <time>2018-06-14T14:30:10Z</time>
      </trkpt>
      <trkpt lat="49.35275" lon="0.95268">
        <ele>4</ele>
        <time>2018-06-14T14:30:36Z</time>
      </trkpt>
      <trkpt lat="49.35275" lon="0.95212">
        <ele>3</ele>
        <time>2018-06-14T14:30:46Z</time>
      </trkpt>
      <trkpt lat="49.35273" lon="0.95152">
        <ele>3</ele>
        <time>2018-06-14T14:30:56Z</time>
      </trkpt>
      <trkpt lat="49.35269" lon="0.9508">
        <ele>3</ele>
        <time>2018-06-14T14:31:09Z</time>
      </trkpt>
      <trkpt lat="49.35264" lon="0.94996">
        <ele>3</ele>
        <time>2018-06-14T14:31:24Z</time>
      </trkpt>
      <trkpt lat="49.35252" lon="0.94796">
        <ele>4</ele>
        <time>2018-06-14T14:31:58Z</time>
      </trkpt>
      <trkpt lat="49.35238" lon="0.94554">
        <ele>1</ele>
        <time>2018-06-14T14:32:41Z</time>
      </trkpt>
      <trkpt lat="49.35225" lon="0.94313">
        <ele>3.8</ele>
        <time>2018-06-14T14:33:23Z</time>
      </trkpt>
      <trkpt lat="49.35225" lon="0.94182">
        <ele>3.1</ele>
        <time>2018-06-14T14:33:46Z</time>
      </trkpt>
      <trkpt lat="49.3523" lon="0.94098">
        <ele>2.2</ele>
        <time>2018-06-14T14:34:00Z</time>
      </trkpt>
      <trkpt lat="49.35237" lon="0.94031">
        <ele>3</ele>
        <time>2018-06-14T14:34:12Z</time>
      </trkpt>
      <trkpt lat="49.35248" lon="0.93946">
        <ele>3</ele>
        <time>2018-06-14T14:34:27Z</time>
      </trkpt>
      <trkpt lat="49.35263" lon="0.93851">
        <ele>3</ele>
        <time>2018-06-14T14:34:44Z</time>
      </trkpt>
      <trkpt lat="49.35298" lon="0.93697">
        <ele>22</ele>
        <time>2018-06-14T14:35:13Z</time>
      </trkpt>
      <trkpt lat="49.35326" lon="0.93595">
        <ele>6</ele>
        <time>2018-06-14T14:35:32Z</time>
      </trkpt>
      <trkpt lat="49.35357" lon="0.93509">
        <ele>6</ele>
        <time>2018-06-14T14:35:49Z</time>
      </trkpt>
      <trkpt lat="49.35362" lon="0.93506">
        <ele>6</ele>
        <time>2018-06-14T14:35:50Z</time>
      </trkpt>
      <trkpt lat="49.35365" lon="0.93503">
        <ele>6</ele>
        <time>2018-06-14T14:35:51Z</time>
      </trkpt>
      <trkpt lat="49.35373" lon="0.9348">
        <ele>6</ele>
        <time>2018-06-14T14:35:56Z</time>
      </trkpt>
      <trkpt lat="49.35364" lon="0.93483">
        <ele>6</ele>
        <time>2018-06-14T14:35:58Z</time>
      </trkpt>
      <trkpt lat="49.35356" lon="0.93498">
        <ele>6</ele>
        <time>2018-06-14T14:36:02Z</time>
      </trkpt>
      <trkpt lat="49.35348" lon="0.93505">
        <ele>6</ele>
        <time>2018-06-14T14:36:04Z</time>
      </trkpt>
      <trkpt lat="49.35337" lon="0.93529">
        <ele>6</ele>
        <time>2018-06-14T14:36:09Z</time>
      </trkpt>
      <trkpt lat="49.35328" lon="0.93547">
        <ele>6</ele>
        <time>2018-06-14T14:36:13Z</time>
      </trkpt>
      <trkpt lat="49.35321" lon="0.93558">
        <ele>8</ele>
        <time>2018-06-14T14:36:16Z</time>
      </trkpt>
      <trkpt lat="49.35314" lon="0.93566">
        <ele>8</ele>
        <time>2018-06-14T14:36:18Z</time>
      </trkpt>
      <trkpt lat="49.35303" lon="0.93571">
        <ele>8</ele>
        <time>2018-06-14T14:36:21Z</time>
      </trkpt>
      <trkpt lat="49.35293" lon="0.93568">
        <ele>8</ele>
        <time>2018-06-14T14:36:24Z</time>
      </trkpt>
      <trkpt lat="49.35284" lon="0.93562">
        <ele>8</ele>
        <time>2018-06-14T14:36:27Z</time>
      </trkpt>
      <trkpt lat="49.35165" lon="0.93407">
        <time>2018-06-14T14:37:08Z</time>
      </trkpt>
      <trkpt lat="49.35147" lon="0.93383">
        <time>2018-06-14T14:37:15Z</time>
      </trkpt>
      <trkpt lat="49.35133" lon="0.9337">
        <ele>4.3</ele>
        <time>2018-06-14T14:37:19Z</time>
      </trkpt>
      <trkpt lat="49.35107" lon="0.93347">
        <ele>4.6</ele>
        <time>2018-06-14T14:37:27Z</time>
      </trkpt>
      <trkpt lat="49.35097" lon="0.9334">
        <ele>4.9</ele>
        <time>2018-06-14T14:37:30Z</time>
      </trkpt>
      <trkpt lat="49.35081" lon="0.93329">
        <ele>4.9</ele>
        <time>2018-06-14T14:37:35Z</time>
      </trkpt>
      <trkpt lat="49.35064" lon="0.93313">
        <ele>5.5</ele>
        <time>2018-06-14T14:37:40Z</time>
      </trkpt>
      <trkpt lat="49.35044" lon="0.93292">
        <ele>5.9</ele>
        <time>2018-06-14T14:37:47Z</time>
      </trkpt>
      <trkpt lat="49.35027" lon="0.93268">
        <ele>7.4</ele>
        <time>2018-06-14T14:37:53Z</time>
      </trkpt>
      <trkpt lat="49.35019" lon="0.93258">
        <ele>9</ele>
        <time>2018-06-14T14:37:55Z</time>
      </trkpt>
      <trkpt lat="49.35028" lon="0.93242">
        <ele>8</ele>
        <time>2018-06-14T14:37:59Z</time>
      </trkpt>
      <trkpt lat="49.35047" lon="0.93211">
        <ele>7.4</ele>
        <time>2018-06-14T14:38:07Z</time>
      </trkpt>
      <trkpt lat="49.35064" lon="0.93193">
        <ele>7.5</ele>
        <time>2018-06-14T14:38:12Z</time>
      </trkpt>
      <trkpt lat="49.35108" lon="0.93168">
        <ele>6</ele>
        <time>2018-06-14T14:38:25Z</time>
      </trkpt>
      <trkpt lat="49.35123" lon="0.93162">
        <ele>5.7</ele>
        <time>2018-06-14T14:38:29Z</time>
      </trkpt>
      <trkpt lat="49.35156" lon="0.93151">
        <ele>5</ele>
        <time>2018-06-14T14:38:38Z</time>
      </trkpt>
      <trkpt lat="49.3516" lon="0.93147">
        <ele>5</ele>
        <time>2018-06-14T14:38:39Z</time>
      </trkpt>
      <trkpt lat="49.35166" lon="0.9314">
        <ele>5</ele>
        <time>2018-06-14T14:38:41Z</time>
      </trkpt>
      <trkpt lat="49.35178" lon="0.93125">
        <ele>5</ele>
        <time>2018-06-14T14:38:45Z</time>
      </trkpt>
      <trkpt lat="49.35192" lon="0.93102">
        <ele>5</ele>
        <time>2018-06-14T14:38:51Z</time>
      </trkpt>
      <trkpt lat="49.35194" lon="0.93097">
        <ele>5</ele>
        <time>2018-06-14T14:38:52Z</time>
      </trkpt>
      <trkpt lat="49.35201" lon="0.93085">
        <ele>5</ele>
        <time>2018-06-14T14:38:55Z</time>
      </trkpt>
      <trkpt lat="49.35205" lon="0.93077">
        <ele>5</ele>
        <time>2018-06-14T14:38:56Z</time>
      </trkpt>
      <trkpt lat="49.35214" lon="0.93062">
        <ele>5</ele>
        <time>2018-06-14T14:39:00Z</time>
      </trkpt>
      <trkpt lat="49.35219" lon="0.93055">
        <ele>5</ele>
        <time>2018-06-14T14:39:02Z</time>
      </trkpt>
      <trkpt lat="49.35227" lon="0.9305">
        <ele>4.7</ele>
        <time>2018-06-14T14:39:04Z</time>
      </trkpt>
      <trkpt lat="49.35233" lon="0.93048">
        <ele>4.4</ele>
        <time>2018-06-14T14:39:06Z</time>
      </trkpt>
      <trkpt lat="49.3524" lon="0.93047">
        <ele>4.1</ele>
        <time>2018-06-14T14:39:07Z</time>
      </trkpt>
      <trkpt lat="49.35244" lon="0.93045">
        <ele>4</ele>
        <time>2018-06-14T14:39:09Z</time>
      </trkpt>
      <trkpt lat="49.35246" lon="0.93043">
        <ele>4.1</ele>
        <time>2018-06-14T14:39:09Z</time>
      </trkpt>
      <trkpt lat="49.35249" lon="0.93039">
        <ele>4.2</ele>
        <time>2018-06-14T14:39:10Z</time>
      </trkpt>
      <trkpt lat="49.35268" lon="0.93006">
        <ele>5</ele>
        <time>2018-06-14T14:39:18Z</time>
      </trkpt>
      <trkpt lat="49.35268" lon="0.93005">
        <ele>5</ele>
        <time>2018-06-14T14:39:18Z</time>
      </trkpt>
      <trkpt lat="49.35286" lon="0.92974">
        <ele>5</ele>
        <time>2018-06-14T14:39:25Z</time>
      </trkpt>
      <trkpt lat="49.35303" lon="0.92944">
        <ele>5</ele>
        <time>2018-06-14T14:39:32Z</time>
      </trkpt>
      <trkpt lat="49.35304" lon="0.92941">
        <ele>5</ele>
        <time>2018-06-14T14:39:33Z</time>
      </trkpt>
      <trkpt lat="49.35328" lon="0.92903">
        <ele>5</ele>
        <time>2018-06-14T14:39:42Z</time>
      </trkpt>
      <trkpt lat="49.35355" lon="0.92855">
        <ele>5</ele>
        <time>2018-06-14T14:39:53Z</time>
      </trkpt>
      <trkpt lat="49.35363" lon="0.9284">
        <ele>5</ele>
        <time>2018-06-14T14:39:56Z</time>
      </trkpt>
      <trkpt lat="49.35375" lon="0.92821">
        <ele>5</ele>
        <time>2018-06-14T14:40:01Z</time>
      </trkpt>
      <trkpt lat="49.35394" lon="0.92792">
        <ele>6</ele>
        <time>2018-06-14T14:40:08Z</time>
      </trkpt>
      <trkpt lat="49.35428" lon="0.92746">
        <ele>6</ele>
        <time>2018-06-14T14:40:20Z</time>
      </trkpt>
      <trkpt lat="49.35481" lon="0.92679">
        <ele>6</ele>
        <time>2018-06-14T14:40:39Z</time>
      </trkpt>
      <trkpt lat="49.35508" lon="0.92642">
        <ele>6</ele>
        <time>2018-06-14T14:40:48Z</time>
      </trkpt>
      <trkpt lat="49.35547" lon="0.92594">
        <ele>6</ele>
        <time>2018-06-14T14:41:02Z</time>
      </trkpt>
      <trkpt lat="49.35622" lon="0.92507">
        <ele>6</ele>
        <time>2018-06-14T14:41:27Z</time>
      </trkpt>
      <trkpt lat="49.35746" lon="0.92369">
        <ele>5</ele>
        <time>2018-06-14T14:42:08Z</time>
      </trkpt>
      <trkpt lat="49.35765" lon="0.92345">
        <ele>5</ele>
        <time>2018-06-14T14:42:14Z</time>
      </trkpt>
      <trkpt lat="49.35785" lon="0.92321">
        <ele>4.8</ele>
        <time>2018-06-14T14:42:21Z</time>
      </trkpt>
      <trkpt lat="49.35791" lon="0.92313">
        <ele>4.3</ele>
        <time>2018-06-14T14:42:23Z</time>
      </trkpt>
      <trkpt lat="49.35814" lon="0.92281">
        <ele>4.8</ele>
        <time>2018-06-14T14:42:32Z</time>
      </trkpt>
      <trkpt lat="49.35854" lon="0.92222">
        <ele>4.3</ele>
        <time>2018-06-14T14:42:46Z</time>
      </trkpt>
      <trkpt lat="49.35871" lon="0.92205">
        <ele>4.4</ele>
        <time>2018-06-14T14:42:52Z</time>
      </trkpt>
      <trkpt lat="49.35889" lon="0.92195">
        <ele>4</ele>
        <time>2018-06-14T14:42:57Z</time>
      </trkpt>
      <trkpt lat="49.35919" lon="0.92182">
        <ele>3.9</ele>
        <time>2018-06-14T14:43:05Z</time>
      </trkpt>
      <trkpt lat="49.35933" lon="0.92172">
        <ele>4.1</ele>
        <time>2018-06-14T14:43:09Z</time>
      </trkpt>
      <trkpt lat="49.35948" lon="0.92155">
        <ele>3.9</ele>
        <time>2018-06-14T14:43:14Z</time>
      </trkpt>
      <trkpt lat="49.35985" lon="0.92114">
        <ele>4</ele>
        <time>2018-06-14T14:43:26Z</time>
      </trkpt>
      <trkpt lat="49.36027" lon="0.92075">
        <ele>3.6</ele>
        <time>2018-06-14T14:43:40Z</time>
      </trkpt>
      <trkpt lat="49.36053" lon="0.92057">
        <ele>4.9</ele>
        <time>2018-06-14T14:43:47Z</time>
      </trkpt>
      <trkpt lat="49.36142" lon="0.92009">
        <ele>3.7</ele>
        <time>2018-06-14T14:44:12Z</time>
      </trkpt>
      <trkpt lat="49.36233" lon="0.91963">
        <ele>4</ele>
        <time>2018-06-14T14:44:38Z</time>
      </trkpt>
      <trkpt lat="49.36274" lon="0.91939">
        <ele>4</ele>
        <time>2018-06-14T14:44:50Z</time>
      </trkpt>
      <trkpt lat="49.36321" lon="0.91902">
        <ele>4</ele>
        <time>2018-06-14T14:45:04Z</time>
      </trkpt>
      <trkpt lat="49.36407" lon="0.91836">
        <ele>3.5</ele>
        <time>2018-06-14T14:45:30Z</time>
      </trkpt>
      <trkpt lat="49.36506" lon="0.91774">
        <ele>4.3</ele>
        <time>2018-06-14T14:45:58Z</time>
      </trkpt>
      <trkpt lat="49.36533" lon="0.91763">
        <ele>3</ele>
        <time>2018-06-14T14:46:06Z</time>
      </trkpt>
      <trkpt lat="49.36765" lon="0.91681">
        <ele>2</ele>
        <time>2018-06-14T14:47:09Z</time>
      </trkpt>
      <trkpt lat="49.36837" lon="0.91663">
        <ele>2</ele>
        <time>2018-06-14T14:47:29Z</time>
      </trkpt>
      <trkpt lat="49.36876" lon="0.91653">
        <ele>6</ele>
        <time>2018-06-14T14:47:39Z</time>
      </trkpt>
      <trkpt lat="49.36942" lon="0.9163">
        <ele>6</ele>
        <time>2018-06-14T14:47:57Z</time>
      </trkpt>
      <trkpt lat="49.36961" lon="0.91625">
        <ele>6</ele>
        <time>2018-06-14T14:48:02Z</time>
      </trkpt>
      <trkpt lat="49.36982" lon="0.91623">
        <ele>6</ele>
        <time>2018-06-14T14:48:08Z</time>
      </trkpt>
      <trkpt lat="49.37017" lon="0.91622">
        <ele>6</ele>
        <time>2018-06-14T14:48:17Z</time>
      </trkpt>
      <trkpt lat="49.37058" lon="0.91615">
        <ele>7</ele>
        <time>2018-06-14T14:48:28Z</time>
      </trkpt>
      <trkpt lat="49.37081" lon="0.91602">
        <ele>7</ele>
        <time>2018-06-14T14:48:35Z</time>
      </trkpt>
      <trkpt lat="49.37111" lon="0.91591">
        <ele>7</ele>
        <time>2018-06-14T14:48:43Z</time>
      </trkpt>
      <trkpt lat="49.37133" lon="0.91588">
        <ele>7</ele>
        <time>2018-06-14T14:48:49Z</time>
      </trkpt>
      <trkpt lat="49.3722" lon="0.91604">
        <ele>6</ele>
        <time>2018-06-14T14:49:13Z</time>
      </trkpt>
      <trkpt lat="49.37247" lon="0.91606">
        <ele>6</ele>
        <time>2018-06-14T14:49:20Z</time>
      </trkpt>
      <trkpt lat="49.37271" lon="0.91604">
        <ele>6</ele>
        <time>2018-06-14T14:49:26Z</time>
      </trkpt>
      <trkpt lat="49.37312" lon="0.91597">
        <ele>6</ele>
        <time>2018-06-14T14:49:37Z</time>
      </trkpt>
      <trkpt lat="49.37337" lon="0.91597">
        <ele>6</ele>
        <time>2018-06-14T14:49:44Z</time>
      </trkpt>
      <trkpt lat="49.37412" lon="0.91608">
        <ele>5</ele>
        <time>2018-06-14T14:50:04Z</time>
      </trkpt>
      <trkpt lat="49.37446" lon="0.91607">
        <ele>5</ele>
        <time>2018-06-14T14:50:13Z</time>
      </trkpt>
      <trkpt lat="49.37458" lon="0.91606">
        <ele>5</ele>
        <time>2018-06-14T14:50:16Z</time>
      </trkpt>
      <trkpt lat="49.37604" lon="0.91588">
        <ele>10</ele>
        <time>2018-06-14T14:50:55Z</time>
      </trkpt>
      <trkpt lat="49.37689" lon="0.91568">
        <ele>10</ele>
        <time>2018-06-14T14:51:18Z</time>
      </trkpt>
      <trkpt lat="49.37882" lon="0.91533">
        <ele>4.3</ele>
        <time>2018-06-14T14:52:10Z</time>
      </trkpt>
      <trkpt lat="49.3801" lon="0.91515">
        <ele>2.9</ele>
        <time>2018-06-14T14:52:45Z</time>
      </trkpt>
      <trkpt lat="49.3808" lon="0.9151">
        <ele>6</ele>
        <time>2018-06-14T14:53:03Z</time>
      </trkpt>
      <trkpt lat="49.38209" lon="0.91514">
        <ele>3</ele>
        <time>2018-06-14T14:53:38Z</time>
      </trkpt>
      <trkpt lat="49.38398" lon="0.91531">
        <ele>13</ele>
        <time>2018-06-14T14:54:28Z</time>
      </trkpt>
      <trkpt lat="49.38458" lon="0.91541">
        <ele>13</ele>
        <time>2018-06-14T14:54:45Z</time>
      </trkpt>
      <trkpt lat="49.38492" lon="0.91549">
        <ele>13</ele>
        <time>2018-06-14T14:54:54Z</time>
      </trkpt>
      <trkpt lat="49.38538" lon="0.91559">
        <ele>13</ele>
        <time>2018-06-14T14:55:06Z</time>
      </trkpt>
      <trkpt lat="49.38618" lon="0.9158">
        <ele>10</ele>
        <time>2018-06-14T14:55:28Z</time>
      </trkpt>
      <trkpt lat="49.38721" lon="0.91606">
        <ele>3.9</ele>
        <time>2018-06-14T14:55:56Z</time>
      </trkpt>
      <trkpt lat="49.38813" lon="0.9164">
        <ele>3.27</ele>
        <time>2018-06-14T14:56:21Z</time>
      </trkpt>
      <trkpt lat="49.3902" lon="0.91732">
        <ele>12</ele>
        <time>2018-06-14T14:57:19Z</time>
      </trkpt>
      <trkpt lat="49.39068" lon="0.91751">
        <ele>9</ele>
        <time>2018-06-14T14:57:32Z</time>
      </trkpt>
      <trkpt lat="49.39284" lon="0.91837">
        <ele>12</ele>
        <time>2018-06-14T14:58:32Z</time>
      </trkpt>
      <trkpt lat="49.39329" lon="0.91851">
        <ele>12</ele>
        <time>2018-06-14T14:58:44Z</time>
      </trkpt>
      <trkpt lat="49.39396" lon="0.91865">
        <ele>9</ele>
        <time>2018-06-14T14:59:02Z</time>
      </trkpt>
      <trkpt lat="49.3952" lon="0.91906">
        <ele>9</ele>
        <time>2018-06-14T14:59:36Z</time>
      </trkpt>
      <trkpt lat="49.39627" lon="0.91945">
        <ele>3.57</ele>
        <time>2018-06-14T15:00:05Z</time>
      </trkpt>
      <trkpt lat="49.39833" lon="0.9201">
        <ele>8</ele>
        <time>2018-06-14T15:01:01Z</time>
      </trkpt>
      <trkpt lat="49.39947" lon="0.92042">
        <ele>11</ele>
        <time>2018-06-14T15:01:32Z</time>
      </trkpt>
      <trkpt lat="49.40102" lon="0.9208">
        <ele>5</ele>
        <time>2018-06-14T15:02:14Z</time>
      </trkpt>
      <trkpt lat="49.40224" lon="0.92119">
        <ele>4</ele>
        <time>2018-06-14T15:02:47Z</time>
      </trkpt>
      <trkpt lat="49.40254" lon="0.92125">
        <ele>4.1</ele>
        <time>2018-06-14T15:02:56Z</time>
      </trkpt>
      <trkpt lat="49.40289" lon="0.92141">
        <ele>4</ele>
        <time>2018-06-14T15:03:05Z</time>
      </trkpt>
      <trkpt lat="49.40523" lon="0.92262">
        <ele>8</ele>
        <time>2018-06-14T15:04:11Z</time>
      </trkpt>
      <trkpt lat="49.40544" lon="0.92271">
        <ele>8</ele>
        <time>2018-06-14T15:04:17Z</time>
      </trkpt>
      <trkpt lat="49.40554" lon="0.92275">
        <ele>8</ele>
        <time>2018-06-14T15:04:20Z</time>
      </trkpt>
      <trkpt lat="49.40561" lon="0.92278">
        <ele>8</ele>
        <time>2018-06-14T15:04:22Z</time>
      </trkpt>
      <trkpt lat="49.40567" lon="0.9228">
        <ele>8</ele>
        <time>2018-06-14T15:04:23Z</time>
      </trkpt>
      <trkpt lat="49.40742" lon="0.92365">
        <ele>7</ele>
        <time>2018-06-14T15:05:12Z</time>
      </trkpt>
      <trkpt lat="49.40763" lon="0.92369">
        <ele>7</ele>
        <time>2018-06-14T15:05:18Z</time>
      </trkpt>
      <trkpt lat="49.40783" lon="0.92359">
        <ele>7</ele>
        <time>2018-06-14T15:05:24Z</time>
      </trkpt>
      <trkpt lat="49.40796" lon="0.92341">
        <ele>7</ele>
        <time>2018-06-14T15:05:28Z</time>
      </trkpt>
      <trkpt lat="49.40803" lon="0.9232">
        <ele>7</ele>
        <time>2018-06-14T15:05:33Z</time>
      </trkpt>
      <trkpt lat="49.40814" lon="0.9227">
        <ele>8</ele>
        <time>2018-06-14T15:05:42Z</time>
      </trkpt>
      <trkpt lat="49.40816" lon="0.9226">
        <ele>8</ele>
        <time>2018-06-14T15:05:44Z</time>
      </trkpt>
      <trkpt lat="49.40833" lon="0.92182">
        <ele>8</ele>
        <time>2018-06-14T15:05:58Z</time>
      </trkpt>
      <trkpt lat="49.40842" lon="0.92164">
        <ele>8</ele>
        <time>2018-06-14T15:06:02Z</time>
      </trkpt>
      <trkpt lat="49.40856" lon="0.92151">
        <ele>8</ele>
        <time>2018-06-14T15:06:06Z</time>
      </trkpt>
      <trkpt lat="49.40866" lon="0.92148">
        <ele>8</ele>
        <time>2018-06-14T15:06:09Z</time>
      </trkpt>
      <trkpt lat="49.40872" lon="0.92146">
        <ele>8</ele>
        <time>2018-06-14T15:06:11Z</time>
      </trkpt>
      <trkpt lat="49.41078" lon="0.92155">
        <ele>4</ele>
        <time>2018-06-14T15:07:06Z</time>
      </trkpt>
      <trkpt lat="49.41123" lon="0.92147">
        <ele>4</ele>
        <time>2018-06-14T15:07:18Z</time>
      </trkpt>
      <trkpt lat="49.41154" lon="0.92135">
        <ele>4</ele>
        <time>2018-06-14T15:07:26Z</time>
      </trkpt>
      <trkpt lat="49.41184" lon="0.9212">
        <ele>4</ele>
        <time>2018-06-14T15:07:35Z</time>
      </trkpt>
      <trkpt lat="49.41211" lon="0.92119">
        <ele>4</ele>
        <time>2018-06-14T15:07:42Z</time>
      </trkpt>
      <trkpt lat="49.41426" lon="0.92154">
        <ele>3</ele>
        <time>2018-06-14T15:08:40Z</time>
      </trkpt>
      <trkpt lat="49.41448" lon="0.92156">
        <ele>3</ele>
        <time>2018-06-14T15:08:46Z</time>
      </trkpt>
      <trkpt lat="49.41453" lon="0.92156">
        <ele>3</ele>
        <time>2018-06-14T15:08:47Z</time>
      </trkpt>
      <trkpt lat="49.41455" lon="0.92165">
        <ele>3</ele>
        <time>2018-06-14T15:08:49Z</time>
      </trkpt>
      <trkpt lat="49.41456" lon="0.92181">
        <ele>3</ele>
        <time>2018-06-14T15:08:51Z</time>
      </trkpt>
      <trkpt lat="49.41454" lon="0.92198">
        <ele>3</ele>
        <time>2018-06-14T15:08:54Z</time>
      </trkpt>
      <trkpt lat="49.41456" lon="0.9221">
        <ele>3</ele>
        <time>2018-06-14T15:08:56Z</time>
      </trkpt>
      <trkpt lat="49.41467" lon="0.92222">
        <ele>3</ele>
        <time>2018-06-14T15:09:00Z</time>
      </trkpt>
      <trkpt lat="49.41506" lon="0.92263">
        <ele>3</ele>
        <time>2018-06-14T15:09:13Z</time>
      </trkpt>
      <trkpt lat="49.41529" lon="0.92279">
        <ele>3</ele>
        <time>2018-06-14T15:09:19Z</time>
      </trkpt>
      <trkpt lat="49.41579" lon="0.92306">
        <ele>4</ele>
        <time>2018-06-14T15:09:34Z</time>
      </trkpt>
      <trkpt lat="49.41661" lon="0.92356">
        <ele>4</ele>
        <time>2018-06-14T15:09:57Z</time>
      </trkpt>
      <trkpt lat="49.41733" lon="0.92415">
        <ele>4</ele>
        <time>2018-06-14T15:10:19Z</time>
      </trkpt>
      <trkpt lat="49.41816" lon="0.92485">
        <ele>4</ele>
        <time>2018-06-14T15:10:44Z</time>
      </trkpt>
      <trkpt lat="49.41853" lon="0.92508">
        <ele>5</ele>
        <time>2018-06-14T15:10:55Z</time>
      </trkpt>
      <trkpt lat="49.41917" lon="0.92555">
        <ele>5</ele>
        <time>2018-06-14T15:11:14Z</time>
      </trkpt>
      <trkpt lat="49.41951" lon="0.92579">
        <ele>5</ele>
        <time>2018-06-14T15:11:24Z</time>
      </trkpt>
      <trkpt lat="49.41985" lon="0.926">
        <ele>5</ele>
        <time>2018-06-14T15:11:34Z</time>
      </trkpt>
      <trkpt lat="49.42023" lon="0.92625">
        <ele>3</ele>
        <time>2018-06-14T15:11:45Z</time>
      </trkpt>
      <trkpt lat="49.42055" lon="0.92644">
        <ele>3</ele>
        <time>2018-06-14T15:11:54Z</time>
      </trkpt>
      <trkpt lat="49.42089" lon="0.92662">
        <ele>3</ele>
        <time>2018-06-14T15:12:03Z</time>
      </trkpt>
      <trkpt lat="49.42151" lon="0.927">
        <ele>3</ele>
        <time>2018-06-14T15:12:21Z</time>
      </trkpt>
      <trkpt lat="49.42184" lon="0.92721">
        <ele>4</ele>
        <time>2018-06-14T15:12:31Z</time>
      </trkpt>
      <trkpt lat="49.42204" lon="0.92729">
        <ele>4</ele>
        <time>2018-06-14T15:12:36Z</time>
      </trkpt>
      <trkpt lat="49.42285" lon="0.92759">
        <ele>4</ele>
        <time>2018-06-14T15:12:59Z</time>
      </trkpt>
      <trkpt lat="49.42325" lon="0.92778">
        <ele>3</ele>
        <time>2018-06-14T15:13:10Z</time>
      </trkpt>
      <trkpt lat="49.42359" lon="0.92795">
        <ele>3</ele>
        <time>2018-06-14T15:13:19Z</time>
      </trkpt>
      <trkpt lat="49.42386" lon="0.92807">
        <ele>3</ele>
        <time>2018-06-14T15:13:27Z</time>
      </trkpt>
      <trkpt lat="49.42407" lon="0.92819">
        <ele>3</ele>
        <time>2018-06-14T15:13:33Z</time>
      </trkpt>
      <trkpt lat="49.42417" lon="0.92828">
        <ele>3</ele>
        <time>2018-06-14T15:13:36Z</time>
      </trkpt>
      <trkpt lat="49.42434" lon="0.92849">
        <ele>3</ele>
        <time>2018-06-14T15:13:42Z</time>
      </trkpt>
      <trkpt lat="49.42446" lon="0.92861">
        <ele>3</ele>
        <time>2018-06-14T15:13:46Z</time>
      </trkpt>
      <trkpt lat="49.4246" lon="0.92869">
        <ele>3</ele>
        <time>2018-06-14T15:13:50Z</time>
      </trkpt>
      <trkpt lat="49.42507" lon="0.92883">
        <ele>4</ele>
        <time>2018-06-14T15:14:02Z</time>
      </trkpt>
      <trkpt lat="49.42545" lon="0.92895">
        <ele>4</ele>
        <time>2018-06-14T15:14:13Z</time>
      </trkpt>
      <trkpt lat="49.42618" lon="0.92917">
        <ele>4</ele>
        <time>2018-06-14T15:14:33Z</time>
      </trkpt>
      <trkpt lat="49.4268" lon="0.92933">
        <ele>5</ele>
        <time>2018-06-14T15:14:49Z</time>
      </trkpt>
      <trkpt lat="49.42731" lon="0.92934">
        <ele>5</ele>
        <time>2018-06-14T15:15:03Z</time>
      </trkpt>
      <trkpt lat="49.42786" lon="0.92931">
        <ele>5</ele>
        <time>2018-06-14T15:15:18Z</time>
      </trkpt>
      <trkpt lat="49.42823" lon="0.92934">
        <ele>4</ele>
        <time>2018-06-14T15:15:28Z</time>
      </trkpt>
      <trkpt lat="49.42854" lon="0.92931">
        <ele>4</ele>
        <time>2018-06-14T15:15:36Z</time>
      </trkpt>
      <trkpt lat="49.42871" lon="0.92933">
        <ele>4</ele>
        <time>2018-06-14T15:15:41Z</time>
      </trkpt>
      <trkpt lat="49.42885" lon="0.92936">
        <ele>4</ele>
        <time>2018-06-14T15:15:44Z</time>
      </trkpt>
      <trkpt lat="49.42911" lon="0.92944">
        <ele>4</ele>
        <time>2018-06-14T15:15:51Z</time>
      </trkpt>
      <trkpt lat="49.42941" lon="0.92955">
        <ele>4</ele>
        <time>2018-06-14T15:16:00Z</time>
      </trkpt>
      <trkpt lat="49.42977" lon="0.92972">
        <ele>5</ele>
        <time>2018-06-14T15:16:10Z</time>
      </trkpt>
      <trkpt lat="49.4301" lon="0.92985">
        <ele>5</ele>
        <time>2018-06-14T15:16:19Z</time>
      </trkpt>
      <trkpt lat="49.43021" lon="0.92988">
        <ele>5</ele>
        <time>2018-06-14T15:16:22Z</time>
      </trkpt>
      <trkpt lat="49.43032" lon="0.92985">
        <ele>5</ele>
        <time>2018-06-14T15:16:25Z</time>
      </trkpt>
      <trkpt lat="49.43055" lon="0.92978">
        <ele>5</ele>
        <time>2018-06-14T15:16:31Z</time>
      </trkpt>
      <trkpt lat="49.43108" lon="0.92963">
        <ele>5</ele>
        <time>2018-06-14T15:16:45Z</time>
      </trkpt>
      <trkpt lat="49.43148" lon="0.92949">
        <ele>7</ele>
        <time>2018-06-14T15:16:56Z</time>
      </trkpt>
      <trkpt lat="49.43168" lon="0.92946">
        <ele>7</ele>
        <time>2018-06-14T15:17:02Z</time>
      </trkpt>
      <trkpt lat="49.43193" lon="0.92947">
        <ele>7</ele>
        <time>2018-06-14T15:17:08Z</time>
      </trkpt>
      <trkpt lat="49.43212" lon="0.92951">
        <ele>7</ele>
        <time>2018-06-14T15:17:14Z</time>
      </trkpt>
      <trkpt lat="49.43231" lon="0.9296">
        <ele>7</ele>
        <time>2018-06-14T15:17:19Z</time>
      </trkpt>
      <trkpt lat="49.43258" lon="0.92972">
        <ele>7</ele>
        <time>2018-06-14T15:17:26Z</time>
      </trkpt>
      <trkpt lat="49.43292" lon="0.9298">
        <ele>11</ele>
        <time>2018-06-14T15:17:36Z</time>
      </trkpt>
      <trkpt lat="49.43329" lon="0.92986">
        <ele>11</ele>
        <time>2018-06-14T15:17:45Z</time>
      </trkpt>
      <trkpt lat="49.43354" lon="0.92991">
        <ele>11</ele>
        <time>2018-06-14T15:17:52Z</time>
      </trkpt>
      <trkpt lat="49.43382" lon="0.92999">
        <ele>11</ele>
        <time>2018-06-14T15:18:00Z</time>
      </trkpt>
      <trkpt lat="49.43427" lon="0.93012">
        <ele>11</ele>
        <time>2018-06-14T15:18:12Z</time>
      </trkpt>
      <trkpt lat="49.43498" lon="0.93022">
        <ele>32</ele>
        <time>2018-06-14T15:18:31Z</time>
      </trkpt>
      <trkpt lat="49.43513" lon="0.93022">
        <ele>32</ele>
        <time>2018-06-14T15:18:35Z</time>
      </trkpt>
      <trkpt lat="49.43527" lon="0.93016">
        <ele>32</ele>
        <time>2018-06-14T15:18:39Z</time>
      </trkpt>
      <trkpt lat="49.43542" lon="0.93009">
        <ele>32</ele>
        <time>2018-06-14T15:18:43Z</time>
      </trkpt>
      <trkpt lat="49.43547" lon="0.93002">
        <ele>32</ele>
        <time>2018-06-14T15:18:45Z</time>
      </trkpt>
      <trkpt lat="49.43547" lon="0.92995">
        <ele>32</ele>
        <time>2018-06-14T15:18:46Z</time>
      </trkpt>
      <trkpt lat="49.43541" lon="0.92984">
        <ele>51</ele>
        <time>2018-06-14T15:18:49Z</time>
      </trkpt>
      <trkpt lat="49.43535" lon="0.92977">
        <ele>51</ele>
        <time>2018-06-14T15:18:51Z</time>
      </trkpt>
      <trkpt lat="49.43532" lon="0.92969">
        <ele>51</ele>
        <time>2018-06-14T15:18:52Z</time>
      </trkpt>
      <trkpt lat="49.43532" lon="0.92961">
        <ele>51</ele>
        <time>2018-06-14T15:18:54Z</time>
      </trkpt>
      <trkpt lat="49.43535" lon="0.92957">
        <ele>51</ele>
        <time>2018-06-14T15:18:55Z</time>
      </trkpt>
      <trkpt lat="49.43538" lon="0.92954">
        <ele>51</ele>
        <time>2018-06-14T15:18:56Z</time>
      </trkpt>
      <trkpt lat="49.43545" lon="0.92956">
        <ele>51</ele>
        <time>2018-06-14T15:18:58Z</time>
      </trkpt>
      <trkpt lat="49.43556" lon="0.92957">
        <ele>51</ele>
        <time>2018-06-14T15:19:01Z</time>
      </trkpt>
      <trkpt lat="49.43601" lon="0.92969">
        <ele>51</ele>
        <time>2018-06-14T15:19:13Z</time>
      </trkpt>
      <trkpt lat="49.4362" lon="0.92974">
        <ele>51</ele>
        <time>2018-06-14T15:19:18Z</time>
      </trkpt>
      <trkpt lat="49.43656" lon="0.92981">
        <ele>51</ele>
        <time>2018-06-14T15:19:28Z</time>
      </trkpt>
      <trkpt lat="49.43692" lon="0.92987">
        <ele>48</ele>
        <time>2018-06-14T15:19:37Z</time>
      </trkpt>
      <trkpt lat="49.43747" lon="0.92984">
        <ele>48</ele>
        <time>2018-06-14T15:19:52Z</time>
      </trkpt>
      <trkpt lat="49.43774" lon="0.92981">
        <ele>48</ele>
        <time>2018-06-14T15:19:59Z</time>
      </trkpt>
      <trkpt lat="49.43818" lon="0.92974">
        <ele>48</ele>
        <time>2018-06-14T15:20:11Z</time>
      </trkpt>
      <trkpt lat="49.43827" lon="0.92971">
        <ele>48</ele>
        <time>2018-06-14T15:20:14Z</time>
      </trkpt>
      <trkpt lat="49.43832" lon="0.92965">
        <ele>48</ele>
        <time>2018-06-14T15:20:15Z</time>
      </trkpt>
      <trkpt lat="49.43836" lon="0.92958">
        <ele>48</ele>
        <time>2018-06-14T15:20:17Z</time>
      </trkpt>
      <trkpt lat="49.43837" lon="0.92951">
        <ele>47</ele>
        <time>2018-06-14T15:20:18Z</time>
      </trkpt>
      <trkpt lat="49.43838" lon="0.92945">
        <ele>47</ele>
        <time>2018-06-14T15:20:19Z</time>
      </trkpt>
      <trkpt lat="49.43837" lon="0.92931">
        <ele>47</ele>
        <time>2018-06-14T15:20:22Z</time>
      </trkpt>
      <trkpt lat="49.43834" lon="0.92899">
        <ele>47</ele>
        <time>2018-06-14T15:20:27Z</time>
      </trkpt>
      <trkpt lat="49.43832" lon="0.92848">
        <ele>47</ele>
        <time>2018-06-14T15:20:36Z</time>
      </trkpt>
      <trkpt lat="49.43832" lon="0.9284">
        <ele>47</ele>
        <time>2018-06-14T15:20:37Z</time>
      </trkpt>
      <trkpt lat="49.43836" lon="0.92836">
        <ele>47</ele>
        <time>2018-06-14T15:20:39Z</time>
      </trkpt>
      <trkpt lat="49.4384" lon="0.92834">
        <ele>47</ele>
        <time>2018-06-14T15:20:40Z</time>
      </trkpt>
      <trkpt lat="49.43845" lon="0.92833">
        <ele>47</ele>
        <time>2018-06-14T15:20:41Z</time>
      </trkpt>
      <trkpt lat="49.43851" lon="0.92835">
        <ele>47</ele>
        <time>2018-06-14T15:20:43Z</time>
      </trkpt>
      <trkpt lat="49.43857" lon="0.92836">
        <ele>47</ele>
        <time>2018-06-14T15:20:44Z</time>
      </trkpt>
      <trkpt lat="49.43865" lon="0.92837">
        <ele>47</ele>
        <time>2018-06-14T15:20:47Z</time>
      </trkpt>
      <trkpt lat="49.43867" lon="0.92837">
        <ele>47</ele>
        <time>2018-06-14T15:20:47Z</time>
      </trkpt>
      <trkpt lat="49.43872" lon="0.92837">
        <ele>47</ele>
        <time>2018-06-14T15:20:49Z</time>
      </trkpt>
      <trkpt lat="49.4388" lon="0.92836">
        <ele>47</ele>
        <time>2018-06-14T15:20:51Z</time>
      </trkpt>
      <trkpt lat="49.43895" lon="0.92836">
        <ele>47</ele>
        <time>2018-06-14T15:20:55Z</time>
      </trkpt>
      <trkpt lat="49.43919" lon="0.92823">
        <ele>47</ele>
        <time>2018-06-14T15:21:01Z</time>
      </trkpt>
      <trkpt lat="49.43954" lon="0.92783">
        <ele>47</ele>
        <time>2018-06-14T15:21:13Z</time>
      </trkpt>
      <trkpt lat="49.43966" lon="0.92773">
        <ele>47</ele>
        <time>2018-06-14T15:21:17Z</time>
      </trkpt>
      <trkpt lat="49.43977" lon="0.92765">
        <ele>47</ele>
        <time>2018-06-14T15:21:20Z</time>
      </trkpt>
      <trkpt lat="49.43985" lon="0.92759">
        <ele>47</ele>
        <time>2018-06-14T15:21:22Z</time>
      </trkpt>
      <trkpt lat="49.44003" lon="0.92755">
        <ele>47</ele>
        <time>2018-06-14T15:21:27Z</time>
      </trkpt>
      <trkpt lat="49.44027" lon="0.92758">
        <ele>47</ele>
        <time>2018-06-14T15:21:34Z</time>
      </trkpt>
      <trkpt lat="49.44075" lon="0.9278">
        <ele>47</ele>
        <time>2018-06-14T15:21:47Z</time>
      </trkpt>
      <trkpt lat="49.44166" lon="0.92816">
        <ele>45</ele>
        <time>2018-06-14T15:22:12Z</time>
      </trkpt>
      <trkpt lat="49.44176" lon="0.92819">
        <ele>45</ele>
        <time>2018-06-14T15:22:15Z</time>
      </trkpt>
      <trkpt lat="49.44206" lon="0.92828">
        <ele>45</ele>
        <time>2018-06-14T15:22:23Z</time>
      </trkpt>
      <trkpt lat="49.44223" lon="0.92832">
        <ele>45</ele>
        <time>2018-06-14T15:22:28Z</time>
      </trkpt>
      <trkpt lat="49.4424" lon="0.92831">
        <ele>45</ele>
        <time>2018-06-14T15:22:32Z</time>
      </trkpt>
      <trkpt lat="49.44269" lon="0.92821">
        <ele>44</ele>
        <time>2018-06-14T15:22:40Z</time>
      </trkpt>
      <trkpt lat="49.44308" lon="0.92798">
        <ele>44</ele>
        <time>2018-06-14T15:22:51Z</time>
      </trkpt>
      <trkpt lat="49.44334" lon="0.92788">
        <ele>44</ele>
        <time>2018-06-14T15:22:58Z</time>
      </trkpt>
      <trkpt lat="49.44371" lon="0.92781">
        <ele>44</ele>
        <time>2018-06-14T15:23:08Z</time>
      </trkpt>
      <trkpt lat="49.44422" lon="0.92787">
        <ele>43</ele>
        <time>2018-06-14T15:23:22Z</time>
      </trkpt>
      <trkpt lat="49.44467" lon="0.92799">
        <ele>43</ele>
        <time>2018-06-14T15:23:34Z</time>
      </trkpt>
      <trkpt lat="49.44501" lon="0.92807">
        <ele>43</ele>
        <time>2018-06-14T15:23:43Z</time>
      </trkpt>
      <trkpt lat="49.44576" lon="0.92822">
        <ele>43</ele>
        <time>2018-06-14T15:24:04Z</time>
      </trkpt>
      <trkpt lat="49.44669" lon="0.92832">
        <ele>42</ele>
        <time>2018-06-14T15:24:29Z</time>
      </trkpt>
      <trkpt lat="49.44757" lon="0.9284">
        <ele>42</ele>
        <time>2018-06-14T15:24:52Z</time>
      </trkpt>
      <trkpt lat="49.44881" lon="0.9282">
        <ele>42</ele>
        <time>2018-06-14T15:25:25Z</time>
      </trkpt>
      <trkpt lat="49.45062" lon="0.9277">
        <ele>42</ele>
        <time>2018-06-14T15:26:15Z</time>
      </trkpt>
      <trkpt lat="49.45214" lon="0.92744">
        <ele>41</ele>
        <time>2018-06-14T15:26:55Z</time>
      </trkpt>
      <trkpt lat="49.45295" lon="0.92745">
        <ele>40</ele>
        <time>2018-06-14T15:27:17Z</time>
      </trkpt>
      <trkpt lat="49.4531" lon="0.92748">
        <ele>40</ele>
        <time>2018-06-14T15:27:21Z</time>
      </trkpt>
      <trkpt lat="49.45403" lon="0.92758">
        <ele>40</ele>
        <time>2018-06-14T15:27:46Z</time>
      </trkpt>
      <trkpt lat="49.45461" lon="0.9276">
        <ele>39</ele>
        <time>2018-06-14T15:28:02Z</time>
      </trkpt>
      <trkpt lat="49.45576" lon="0.92753">
        <ele>39</ele>
        <time>2018-06-14T15:28:32Z</time>
      </trkpt>
      <trkpt lat="49.45719" lon="0.9274">
        <ele>31</ele>
        <time>2018-06-14T15:29:11Z</time>
      </trkpt>
      <trkpt lat="49.45881" lon="0.92691">
        <ele>23</ele>
        <time>2018-06-14T15:29:55Z</time>
      </trkpt>
      <trkpt lat="49.46147" lon="0.9263">
        <ele>12</ele>
        <time>2018-06-14T15:31:07Z</time>
      </trkpt>
      <trkpt lat="49.46268" lon="0.92601">
        <ele>13</ele>
        <time>2018-06-14T15:31:39Z</time>
      </trkpt>
      <trkpt lat="49.46299" lon="0.92587">
        <ele>13</ele>
        <time>2018-06-14T15:31:48Z</time>
      </trkpt>
      <trkpt lat="49.46362" lon="0.92552">
        <ele>13</ele>
        <time>2018-06-14T15:32:06Z</time>
      </trkpt>
      <trkpt lat="49.4641" lon="0.92536">
        <ele>13</ele>
        <time>2018-06-14T15:32:19Z</time>
      </trkpt>
      <trkpt lat="49.46503" lon="0.92511">
        <ele>9</ele>
        <time>2018-06-14T15:32:44Z</time>
      </trkpt>
      <trkpt lat="49.46576" lon="0.92482">
        <ele>9</ele>
        <time>2018-06-14T15:33:04Z</time>
      </trkpt>
      <trkpt lat="49.46652" lon="0.92441">
        <ele>8</ele>
        <time>2018-06-14T15:33:26Z</time>
      </trkpt>
      <trkpt lat="49.46691" lon="0.92407">
        <ele>8</ele>
        <time>2018-06-14T15:33:38Z</time>
      </trkpt>
      <trkpt lat="49.46732" lon="0.92484">
        <ele>7</ele>
        <time>2018-06-14T15:33:55Z</time>
      </trkpt>
      <trkpt lat="49.46738" lon="0.92495">
        <ele>7</ele>
        <time>2018-06-14T15:33:58Z</time>
      </trkpt>
      <trkpt lat="49.46775" lon="0.92433">
        <ele>7</ele>
        <time>2018-06-14T15:34:12Z</time>
      </trkpt>
      <trkpt lat="49.46813" lon="0.92373">
        <ele>7</ele>
        <time>2018-06-14T15:34:27Z</time>
      </trkpt>
      <trkpt lat="49.46852" lon="0.92326">
        <ele>8</ele>
        <time>2018-06-14T15:34:40Z</time>
      </trkpt>
      <trkpt lat="49.46867" lon="0.92311">
        <ele>8</ele>
        <time>2018-06-14T15:34:45Z</time>
      </trkpt>
      <trkpt lat="49.46899" lon="0.9228">
        <ele>8</ele>
        <time>2018-06-14T15:34:55Z</time>
      </trkpt>
      <trkpt lat="49.46945" lon="0.92217">
        <ele>8</ele>
        <time>2018-06-14T15:35:11Z</time>
      </trkpt>
      <trkpt lat="49.46976" lon="0.92126">
        <ele>8</ele>
        <time>2018-06-14T15:35:29Z</time>
      </trkpt>
      <trkpt lat="49.46983" lon="0.92066">
        <ele>8</ele>
        <time>2018-06-14T15:35:40Z</time>
      </trkpt>
      <trkpt lat="49.46986" lon="0.92021">
        <ele>8</ele>
        <time>2018-06-14T15:35:48Z</time>
      </trkpt>
      <trkpt lat="49.47022" lon="0.91891">
        <ele>8</ele>
        <time>2018-06-14T15:36:12Z</time>
      </trkpt>
      <trkpt lat="49.4705" lon="0.91713">
        <ele>8</ele>
        <time>2018-06-14T15:36:44Z</time>
      </trkpt>
      <trkpt lat="49.47051" lon="0.91709">
        <ele>8</ele>
        <time>2018-06-14T15:36:45Z</time>
      </trkpt>
      <trkpt lat="49.47108" lon="0.91267">
        <ele>9</ele>
        <time>2018-06-14T15:38:03Z</time>
      </trkpt>
      <trkpt lat="49.47108" lon="0.91261">
        <ele>9</ele>
        <time>2018-06-14T15:38:04Z</time>
      </trkpt>
      <trkpt lat="49.47135" lon="0.91067">
        <ele>7</ele>
        <time>2018-06-14T15:38:38Z</time>
      </trkpt>
      <trkpt lat="49.47136" lon="0.91057">
        <ele>7</ele>
        <time>2018-06-14T15:38:40Z</time>
      </trkpt>
      <trkpt lat="49.47151" lon="0.90982">
        <ele>7</ele>
        <time>2018-06-14T15:38:54Z</time>
      </trkpt>
      <trkpt lat="49.47168" lon="0.90927">
        <ele>7</ele>
        <time>2018-06-14T15:39:04Z</time>
      </trkpt>
      <trkpt lat="49.4721" lon="0.9082">
        <ele>4</ele>
        <time>2018-06-14T15:39:26Z</time>
      </trkpt>
      <trkpt lat="49.47308" lon="0.90593">
        <ele>8</ele>
        <time>2018-06-14T15:40:13Z</time>
      </trkpt>
      <trkpt lat="49.47313" lon="0.90568">
        <ele>8</ele>
        <time>2018-06-14T15:40:18Z</time>
      </trkpt>
      <trkpt lat="49.47314" lon="0.9054">
        <ele>8</ele>
        <time>2018-06-14T15:40:23Z</time>
      </trkpt>
      <trkpt lat="49.47305" lon="0.90407">
        <ele>6</ele>
        <time>2018-06-14T15:40:46Z</time>
      </trkpt>
      <trkpt lat="49.47296" lon="0.90258">
        <ele>6</ele>
        <time>2018-06-14T15:41:12Z</time>
      </trkpt>
      <trkpt lat="49.47289" lon="0.90177">
        <ele>6</ele>
        <time>2018-06-14T15:41:26Z</time>
      </trkpt>
      <trkpt lat="49.47286" lon="0.90163">
        <ele>6</ele>
        <time>2018-06-14T15:41:29Z</time>
      </trkpt>
      <trkpt lat="49.4728" lon="0.90127">
        <ele>6</ele>
        <time>2018-06-14T15:41:35Z</time>
      </trkpt>
      <trkpt lat="49.47276" lon="0.90099">
        <ele>6</ele>
        <time>2018-06-14T15:41:40Z</time>
      </trkpt>
      <trkpt lat="49.47266" lon="0.90043">
        <ele>6</ele>
        <time>2018-06-14T15:41:50Z</time>
      </trkpt>
      <trkpt lat="49.47248" lon="0.89937">
        <ele>5</ele>
        <time>2018-06-14T15:42:09Z</time>
      </trkpt>
      <trkpt lat="49.47231" lon="0.89835">
        <ele>5</ele>
        <time>2018-06-14T15:42:27Z</time>
      </trkpt>
      <trkpt lat="49.47225" lon="0.89796">
        <ele>5</ele>
        <time>2018-06-14T15:42:34Z</time>
      </trkpt>
      <trkpt lat="49.47224" lon="0.89776">
        <ele>5</ele>
        <time>2018-06-14T15:42:38Z</time>
      </trkpt>
      <trkpt lat="49.4722" lon="0.89703">
        <ele>5</ele>
        <time>2018-06-14T15:42:51Z</time>
      </trkpt>
      <trkpt lat="49.47218" lon="0.89662">
        <ele>3</ele>
        <time>2018-06-14T15:42:58Z</time>
      </trkpt>
      <trkpt lat="49.47215" lon="0.89627">
        <ele>3</ele>
        <time>2018-06-14T15:43:04Z</time>
      </trkpt>
      <trkpt lat="49.4721" lon="0.89596">
        <ele>3</ele>
        <time>2018-06-14T15:43:09Z</time>
      </trkpt>
      <trkpt lat="49.4718" lon="0.89466">
        <ele>3</ele>
        <time>2018-06-14T15:43:33Z</time>
      </trkpt>
      <trkpt lat="49.47161" lon="0.89391">
        <ele>4</ele>
        <time>2018-06-14T15:43:47Z</time>
      </trkpt>
      <trkpt lat="49.47142" lon="0.89312">
        <ele>4</ele>
        <time>2018-06-14T15:44:02Z</time>
      </trkpt>
      <trkpt lat="49.47103" lon="0.89146">
        <ele>4</ele>
        <time>2018-06-14T15:44:33Z</time>
      </trkpt>
      <trkpt lat="49.47087" lon="0.89082">
        <ele>4</ele>
        <time>2018-06-14T15:44:45Z</time>
      </trkpt>
      <trkpt lat="49.47068" lon="0.89019">
        <ele>4</ele>
        <time>2018-06-14T15:44:57Z</time>
      </trkpt>
      <trkpt lat="49.47051" lon="0.88972">
        <ele>3</ele>
        <time>2018-06-14T15:45:06Z</time>
      </trkpt>
      <trkpt lat="49.47055" lon="0.88967">
        <ele>3</ele>
        <time>2018-06-14T15:45:07Z</time>
      </trkpt>
      <trkpt lat="49.47057" lon="0.88961">
        <ele>3</ele>
        <time>2018-06-14T15:45:09Z</time>
      </trkpt>
      <trkpt lat="49.47057" lon="0.88955">
        <ele>3</ele>
        <time>2018-06-14T15:45:10Z</time>
      </trkpt>
      <trkpt lat="49.47066" lon="0.88935">
        <ele>3</ele>
        <time>2018-06-14T15:45:14Z</time>
      </trkpt>
      <trkpt lat="49.47104" lon="0.88889">
        <ele>3</ele>
        <time>2018-06-14T15:45:27Z</time>
      </trkpt>
      <trkpt lat="49.47162" lon="0.88808">
        <ele>3</ele>
        <time>2018-06-14T15:45:48Z</time>
      </trkpt>
      <trkpt lat="49.47254" lon="0.88662">
        <ele>4</ele>
        <time>2018-06-14T15:46:23Z</time>
      </trkpt>
      <trkpt lat="49.47296" lon="0.88587">
        <ele>3</ele>
        <time>2018-06-14T15:46:40Z</time>
      </trkpt>
      <trkpt lat="49.47316" lon="0.88552">
        <ele>3</ele>
        <time>2018-06-14T15:46:48Z</time>
      </trkpt>
      <trkpt lat="49.47525" lon="0.88169">
        <ele>2</ele>
        <time>2018-06-14T15:48:15Z</time>
      </trkpt>
      <trkpt lat="49.4759" lon="0.88074">
        <ele>2</ele>
        <time>2018-06-14T15:48:39Z</time>
      </trkpt>
      <trkpt lat="49.47634" lon="0.88015">
        <ele>2</ele>
        <time>2018-06-14T15:48:55Z</time>
      </trkpt>
      <trkpt lat="49.4763" lon="0.88006">
        <ele>2</ele>
        <time>2018-06-14T15:48:56Z</time>
      </trkpt>
      <trkpt lat="49.47618" lon="0.87961">
        <ele>2</ele>
        <time>2018-06-14T15:49:05Z</time>
      </trkpt>
      <trkpt lat="49.47587" lon="0.87841">
        <ele>2</ele>
        <time>2018-06-14T15:49:27Z</time>
      </trkpt>
      <trkpt lat="49.47574" lon="0.87795">
        <ele>3</ele>
        <time>2018-06-14T15:49:36Z</time>
      </trkpt>
      <trkpt lat="49.47552" lon="0.87708">
        <ele>3</ele>
        <time>2018-06-14T15:49:52Z</time>
      </trkpt>
      <trkpt lat="49.47545" lon="0.87687">
        <ele>3</ele>
        <time>2018-06-14T15:49:56Z</time>
      </trkpt>
      <trkpt lat="49.47537" lon="0.87664">
        <ele>3</ele>
        <time>2018-06-14T15:50:01Z</time>
      </trkpt>
      <trkpt lat="49.47528" lon="0.87642">
        <ele>3</ele>
        <time>2018-06-14T15:50:05Z</time>
      </trkpt>
      <trkpt lat="49.47515" lon="0.87619">
        <ele>3</ele>
        <time>2018-06-14T15:50:11Z</time>
      </trkpt>
      <trkpt lat="49.47461" lon="0.8754">
        <ele>3</ele>
        <time>2018-06-14T15:50:31Z</time>
      </trkpt>
      <trkpt lat="49.47421" lon="0.87481">
        <ele>3</ele>
        <time>2018-06-14T15:50:45Z</time>
      </trkpt>
      <trkpt lat="49.47406" lon="0.87458">
        <ele>3</ele>
        <time>2018-06-14T15:50:51Z</time>
      </trkpt>
      <trkpt lat="49.47396" lon="0.8744">
        <ele>3</ele>
        <time>2018-06-14T15:50:55Z</time>
      </trkpt>
      <trkpt lat="49.47363" lon="0.87378">
        <ele>2</ele>
        <time>2018-06-14T15:51:09Z</time>
      </trkpt>
      <trkpt lat="49.47347" lon="0.8735">
        <ele>2</ele>
        <time>2018-06-14T15:51:16Z</time>
      </trkpt>
      <trkpt lat="49.47332" lon="0.87328">
        <ele>2</ele>
        <time>2018-06-14T15:51:21Z</time>
      </trkpt>
      <trkpt lat="49.47317" lon="0.87306">
        <ele>2</ele>
        <time>2018-06-14T15:51:27Z</time>
      </trkpt>
      <trkpt lat="49.47263" lon="0.87228">
        <ele>2</ele>
        <time>2018-06-14T15:51:46Z</time>
      </trkpt>
      <trkpt lat="49.47248" lon="0.87207">
        <ele>4</ele>
        <time>2018-06-14T15:51:52Z</time>
      </trkpt>
      <trkpt lat="49.47236" lon="0.87192">
        <ele>4</ele>
        <time>2018-06-14T15:51:56Z</time>
      </trkpt>
      <trkpt lat="49.47226" lon="0.8718">
        <ele>4</ele>
        <time>2018-06-14T15:51:59Z</time>
      </trkpt>
      <trkpt lat="49.47206" lon="0.8716">
        <ele>4</ele>
        <time>2018-06-14T15:52:06Z</time>
      </trkpt>
      <trkpt lat="49.47084" lon="0.87056">
        <ele>4</ele>
        <time>2018-06-14T15:52:43Z</time>
      </trkpt>
      <trkpt lat="49.47051" lon="0.87028">
        <ele>4</ele>
        <time>2018-06-14T15:52:53Z</time>
      </trkpt>
      <trkpt lat="49.47042" lon="0.87022">
        <ele>4</ele>
        <time>2018-06-14T15:52:56Z</time>
      </trkpt>
      <trkpt lat="49.47032" lon="0.87017">
        <ele>4</ele>
        <time>2018-06-14T15:52:58Z</time>
      </trkpt>
      <trkpt lat="49.4702" lon="0.87012">
        <ele>4</ele>
        <time>2018-06-14T15:53:02Z</time>
      </trkpt>
      <trkpt lat="49.46984" lon="0.86999">
        <ele>4</ele>
        <time>2018-06-14T15:53:12Z</time>
      </trkpt>
      <trkpt lat="49.46941" lon="0.86985">
        <ele>4</ele>
        <time>2018-06-14T15:53:23Z</time>
      </trkpt>
      <trkpt lat="49.46911" lon="0.86975">
        <ele>4</ele>
        <time>2018-06-14T15:53:32Z</time>
      </trkpt>
      <trkpt lat="49.469" lon="0.8697">
        <ele>4</ele>
        <time>2018-06-14T15:53:35Z</time>
      </trkpt>
      <trkpt lat="49.46889" lon="0.86963">
        <ele>4</ele>
        <time>2018-06-14T15:53:38Z</time>
      </trkpt>
      <trkpt lat="49.46851" lon="0.86938">
        <ele>4</ele>
        <time>2018-06-14T15:53:49Z</time>
      </trkpt>
      <trkpt lat="49.46843" lon="0.86933">
        <ele>4</ele>
        <time>2018-06-14T15:53:51Z</time>
      </trkpt>
      <trkpt lat="49.4683" lon="0.86926">
        <ele>4</ele>
        <time>2018-06-14T15:53:55Z</time>
      </trkpt>
      <trkpt lat="49.4682" lon="0.86922">
        <ele>4</ele>
        <time>2018-06-14T15:53:58Z</time>
      </trkpt>
      <trkpt lat="49.46806" lon="0.86918">
        <ele>4</ele>
        <time>2018-06-14T15:54:01Z</time>
      </trkpt>
      <trkpt lat="49.46755" lon="0.86905">
        <ele>5</ele>
        <time>2018-06-14T15:54:15Z</time>
      </trkpt>
      <trkpt lat="49.46739" lon="0.869">
        <ele>5</ele>
        <time>2018-06-14T15:54:20Z</time>
      </trkpt>
      <trkpt lat="49.46725" lon="0.86896">
        <ele>5</ele>
        <time>2018-06-14T15:54:23Z</time>
      </trkpt>
      <trkpt lat="49.46716" lon="0.8689">
        <ele>5</ele>
        <time>2018-06-14T15:54:26Z</time>
      </trkpt>
      <trkpt lat="49.46708" lon="0.86884">
        <ele>5</ele>
        <time>2018-06-14T15:54:28Z</time>
      </trkpt>
      <trkpt lat="49.46664" lon="0.86841">
        <ele>5</ele>
        <time>2018-06-14T15:54:42Z</time>
      </trkpt>
      <trkpt lat="49.46613" lon="0.86793">
        <ele>3</ele>
        <time>2018-06-14T15:54:58Z</time>
      </trkpt>
      <trkpt lat="49.46586" lon="0.86761">
        <ele>3</ele>
        <time>2018-06-14T15:55:07Z</time>
      </trkpt>
      <trkpt lat="49.46553" lon="0.86721">
        <ele>3</ele>
        <time>2018-06-14T15:55:19Z</time>
      </trkpt>
      <trkpt lat="49.46527" lon="0.86691">
        <ele>3</ele>
        <time>2018-06-14T15:55:27Z</time>
      </trkpt>
      <trkpt lat="49.46505" lon="0.86668">
        <ele>3</ele>
        <time>2018-06-14T15:55:34Z</time>
      </trkpt>
      <trkpt lat="49.46475" lon="0.86643">
        <ele>3</ele>
        <time>2018-06-14T15:55:44Z</time>
      </trkpt>
      <trkpt lat="49.46461" lon="0.86633">
        <ele>3</ele>
        <time>2018-06-14T15:55:48Z</time>
      </trkpt>
      <trkpt lat="49.46421" lon="0.86601">
        <ele>3</ele>
        <time>2018-06-14T15:56:00Z</time>
      </trkpt>
      <trkpt lat="49.46315" lon="0.86517">
        <ele>4</ele>
        <time>2018-06-14T15:56:32Z</time>
      </trkpt>
      <trkpt lat="49.46282" lon="0.86491">
        <ele>4</ele>
        <time>2018-06-14T15:56:41Z</time>
      </trkpt>
      <trkpt lat="49.46256" lon="0.86464">
        <ele>4</ele>
        <time>2018-06-14T15:56:50Z</time>
      </trkpt>
      <trkpt lat="49.46238" lon="0.86443">
        <ele>4</ele>
        <time>2018-06-14T15:56:56Z</time>
      </trkpt>
      <trkpt lat="49.4622" lon="0.8642">
        <ele>4</ele>
        <time>2018-06-14T15:57:02Z</time>
      </trkpt>
      <trkpt lat="49.46211" lon="0.86411">
        <ele>3</ele>
        <time>2018-06-14T15:57:05Z</time>
      </trkpt>
      <trkpt lat="49.46203" lon="0.86404">
        <ele>3</ele>
        <time>2018-06-14T15:57:07Z</time>
      </trkpt>
      <trkpt lat="49.46198" lon="0.86399">
        <ele>3</ele>
        <time>2018-06-14T15:57:09Z</time>
      </trkpt>
      <trkpt lat="49.4619" lon="0.86394">
        <ele>3</ele>
        <time>2018-06-14T15:57:11Z</time>
      </trkpt>
      <trkpt lat="49.4618" lon="0.86389">
        <ele>3</ele>
        <time>2018-06-14T15:57:14Z</time>
      </trkpt>
      <trkpt lat="49.46163" lon="0.86384">
        <ele>3</ele>
        <time>2018-06-14T15:57:19Z</time>
      </trkpt>
      <trkpt lat="49.46132" lon="0.86379">
        <ele>3</ele>
        <time>2018-06-14T15:57:27Z</time>
      </trkpt>
      <trkpt lat="49.46115" lon="0.86376">
        <ele>3</ele>
        <time>2018-06-14T15:57:32Z</time>
      </trkpt>
      <trkpt lat="49.46089" lon="0.8637">
        <ele>3</ele>
        <time>2018-06-14T15:57:39Z</time>
      </trkpt>
      <trkpt lat="49.46075" lon="0.86366">
        <ele>3</ele>
        <time>2018-06-14T15:57:43Z</time>
      </trkpt>
      <trkpt lat="49.46062" lon="0.86361">
        <ele>3</ele>
        <time>2018-06-14T15:57:46Z</time>
      </trkpt>
      <trkpt lat="49.46049" lon="0.86355">
        <ele>3</ele>
        <time>2018-06-14T15:57:50Z</time>
      </trkpt>
      <trkpt lat="49.4604" lon="0.86349">
        <ele>3</ele>
        <time>2018-06-14T15:57:52Z</time>
      </trkpt>
      <trkpt lat="49.46028" lon="0.86341">
        <ele>3</ele>
        <time>2018-06-14T15:57:56Z</time>
      </trkpt>
      <trkpt lat="49.46019" lon="0.86333">
        <ele>3</ele>
        <time>2018-06-14T15:57:59Z</time>
      </trkpt>
      <trkpt lat="49.45955" lon="0.86267">
        <ele>3</ele>
        <time>2018-06-14T15:58:19Z</time>
      </trkpt>
      <trkpt lat="49.45934" lon="0.86246">
        <ele>3</ele>
        <time>2018-06-14T15:58:26Z</time>
      </trkpt>
      <trkpt lat="49.45918" lon="0.86233">
        <ele>3</ele>
        <time>2018-06-14T15:58:31Z</time>
      </trkpt>
      <trkpt lat="49.45908" lon="0.86226">
        <ele>2</ele>
        <time>2018-06-14T15:58:34Z</time>
      </trkpt>
      <trkpt lat="49.45898" lon="0.86221">
        <ele>2</ele>
        <time>2018-06-14T15:58:37Z</time>
      </trkpt>
      <trkpt lat="49.4589" lon="0.86218">
        <ele>2</ele>
        <time>2018-06-14T15:58:39Z</time>
      </trkpt>
      <trkpt lat="49.45879" lon="0.86216">
        <ele>2</ele>
        <time>2018-06-14T15:58:42Z</time>
      </trkpt>
      <trkpt lat="49.45867" lon="0.86214">
        <ele>2</ele>
        <time>2018-06-14T15:58:45Z</time>
      </trkpt>
      <trkpt lat="49.45837" lon="0.86215">
        <ele>2</ele>
        <time>2018-06-14T15:58:53Z</time>
      </trkpt>
      <trkpt lat="49.45793" lon="0.86217">
        <ele>2</ele>
        <time>2018-06-14T15:59:05Z</time>
      </trkpt>
      <trkpt lat="49.45777" lon="0.86217">
        <ele>2</ele>
        <time>2018-06-14T15:59:09Z</time>
      </trkpt>
      <trkpt lat="49.45744" lon="0.86215">
        <ele>2</ele>
        <time>2018-06-14T15:59:18Z</time>
      </trkpt>
      <trkpt lat="49.45691" lon="0.86212">
        <ele>3</ele>
        <time>2018-06-14T15:59:32Z</time>
      </trkpt>
      <trkpt lat="49.45666" lon="0.8621">
        <ele>3</ele>
        <time>2018-06-14T15:59:39Z</time>
      </trkpt>
      <trkpt lat="49.45647" lon="0.86207">
        <ele>3</ele>
        <time>2018-06-14T15:59:44Z</time>
      </trkpt>
      <trkpt lat="49.45568" lon="0.86189">
        <ele>2</ele>
        <time>2018-06-14T16:00:05Z</time>
      </trkpt>
      <trkpt lat="49.45547" lon="0.86188">
        <ele>2</ele>
        <time>2018-06-14T16:00:11Z</time>
      </trkpt>
      <trkpt lat="49.45504" lon="0.86187">
        <ele>2</ele>
        <time>2018-06-14T16:00:22Z</time>
      </trkpt>
      <trkpt lat="49.45474" lon="0.86188">
        <ele>2</ele>
        <time>2018-06-14T16:00:30Z</time>
      </trkpt>
      <trkpt lat="49.45462" lon="0.86191">
        <ele>2</ele>
        <time>2018-06-14T16:00:33Z</time>
      </trkpt>
      <trkpt lat="49.45449" lon="0.86195">
        <ele>2</ele>
        <time>2018-06-14T16:00:37Z</time>
      </trkpt>
      <trkpt lat="49.45416" lon="0.86209">
        <ele>2</ele>
        <time>2018-06-14T16:00:46Z</time>
      </trkpt>
      <trkpt lat="49.45342" lon="0.86238">
        <ele>3</ele>
        <time>2018-06-14T16:01:07Z</time>
      </trkpt>
      <trkpt lat="49.45223" lon="0.86301">
        <ele>4</ele>
        <time>2018-06-14T16:01:40Z</time>
      </trkpt>
      <trkpt lat="49.45186" lon="0.86322">
        <ele>4</ele>
        <time>2018-06-14T16:01:51Z</time>
      </trkpt>
      <trkpt lat="49.45173" lon="0.86332">
        <ele>4</ele>
        <time>2018-06-14T16:01:55Z</time>
      </trkpt>
      <trkpt lat="49.45161" lon="0.86343">
        <ele>4</ele>
        <time>2018-06-14T16:01:58Z</time>
      </trkpt>
      <trkpt lat="49.45146" lon="0.86355">
        <ele>4</ele>
        <time>2018-06-14T16:02:03Z</time>
      </trkpt>
      <trkpt lat="49.45133" lon="0.86365">
        <ele>4</ele>
        <time>2018-06-14T16:02:07Z</time>
      </trkpt>
      <trkpt lat="49.45115" lon="0.86375">
        <ele>4</ele>
        <time>2018-06-14T16:02:12Z</time>
      </trkpt>
      <trkpt lat="49.4503" lon="0.86417">
        <ele>3</ele>
        <time>2018-06-14T16:02:36Z</time>
      </trkpt>
      <trkpt lat="49.45011" lon="0.86428">
        <ele>3</ele>
        <time>2018-06-14T16:02:41Z</time>
      </trkpt>
      <trkpt lat="49.44994" lon="0.86439">
        <ele>3</ele>
        <time>2018-06-14T16:02:46Z</time>
      </trkpt>
      <trkpt lat="49.44972" lon="0.86459">
        <ele>3</ele>
        <time>2018-06-14T16:02:53Z</time>
      </trkpt>
      <trkpt lat="49.44947" lon="0.8648">
        <ele>4</ele>
        <time>2018-06-14T16:03:00Z</time>
      </trkpt>
      <trkpt lat="49.44929" lon="0.86498">
        <ele>4</ele>
        <time>2018-06-14T16:03:06Z</time>
      </trkpt>
      <trkpt lat="49.44917" lon="0.86506">
        <ele>4</ele>
        <time>2018-06-14T16:03:10Z</time>
      </trkpt>
      <trkpt lat="49.44905" lon="0.86513">
        <ele>4</ele>
        <time>2018-06-14T16:03:13Z</time>
      </trkpt>
      <trkpt lat="49.44885" lon="0.8652">
        <ele>4</ele>
        <time>2018-06-14T16:03:19Z</time>
      </trkpt>
      <trkpt lat="49.44861" lon="0.86527">
        <ele>4</ele>
        <time>2018-06-14T16:03:25Z</time>
      </trkpt>
      <trkpt lat="49.44853" lon="0.8653">
        <ele>4</ele>
        <time>2018-06-14T16:03:27Z</time>
      </trkpt>
      <trkpt lat="49.44849" lon="0.86534">
        <ele>4</ele>
        <time>2018-06-14T16:03:29Z</time>
      </trkpt>
      <trkpt lat="49.44845" lon="0.86538">
        <ele>4</ele>
        <time>2018-06-14T16:03:30Z</time>
      </trkpt>
      <trkpt lat="49.44842" lon="0.86542">
        <ele>4</ele>
        <time>2018-06-14T16:03:31Z</time>
      </trkpt>
      <trkpt lat="49.44839" lon="0.8655">
        <ele>4</ele>
        <time>2018-06-14T16:03:33Z</time>
      </trkpt>
      <trkpt lat="49.44838" lon="0.8656">
        <ele>4</ele>
        <time>2018-06-14T16:03:34Z</time>
      </trkpt>
      <trkpt lat="49.4483" lon="0.86643">
        <ele>4</ele>
        <time>2018-06-14T16:03:49Z</time>
      </trkpt>
      <trkpt lat="49.44829" lon="0.86658">
        <ele>4</ele>
        <time>2018-06-14T16:03:51Z</time>
      </trkpt>
      <trkpt lat="49.44828" lon="0.86667">
        <ele>4</ele>
        <time>2018-06-14T16:03:53Z</time>
      </trkpt>
      <trkpt lat="49.44825" lon="0.86676">
        <ele>4</ele>
        <time>2018-06-14T16:03:55Z</time>
      </trkpt>
      <trkpt lat="49.44822" lon="0.86682">
        <ele>4</ele>
        <time>2018-06-14T16:03:56Z</time>
      </trkpt>
      <trkpt lat="49.44817" lon="0.86684">
        <ele>4</ele>
        <time>2018-06-14T16:03:58Z</time>
      </trkpt>
      <trkpt lat="49.44812" lon="0.86684">
        <ele>4</ele>
        <time>2018-06-14T16:03:59Z</time>
      </trkpt>
      <trkpt lat="49.44801" lon="0.86683">
        <ele>4</ele>
        <time>2018-06-14T16:04:02Z</time>
      </trkpt>
      <trkpt lat="49.44786" lon="0.86678">
        <ele>4</ele>
        <time>2018-06-14T16:04:06Z</time>
      </trkpt>
      <trkpt lat="49.44771" lon="0.86674">
        <ele>4</ele>
        <time>2018-06-14T16:04:10Z</time>
      </trkpt>
      <trkpt lat="49.44755" lon="0.86667">
        <ele>4</ele>
        <time>2018-06-14T16:04:14Z</time>
      </trkpt>
      <trkpt lat="49.44733" lon="0.86657">
        <ele>4</ele>
        <time>2018-06-14T16:04:21Z</time>
      </trkpt>
      <trkpt lat="49.44706" lon="0.8664">
        <ele>3</ele>
        <time>2018-06-14T16:04:28Z</time>
      </trkpt>
      <trkpt lat="49.44685" lon="0.86629">
        <ele>3</ele>
        <time>2018-06-14T16:04:34Z</time>
      </trkpt>
      <trkpt lat="49.44656" lon="0.86609">
        <ele>3</ele>
        <time>2018-06-14T16:04:43Z</time>
      </trkpt>
      <trkpt lat="49.44643" lon="0.86601">
        <ele>3</ele>
        <time>2018-06-14T16:04:47Z</time>
      </trkpt>
      <trkpt lat="49.44634" lon="0.86596">
        <ele>3</ele>
        <time>2018-06-14T16:04:49Z</time>
      </trkpt>
      <trkpt lat="49.44625" lon="0.86593">
        <ele>3</ele>
        <time>2018-06-14T16:04:52Z</time>
      </trkpt>
      <trkpt lat="49.4461" lon="0.86589">
        <ele>3</ele>
        <time>2018-06-14T16:04:56Z</time>
      </trkpt>
      <trkpt lat="49.44588" lon="0.86585">
        <ele>3</ele>
        <time>2018-06-14T16:05:02Z</time>
      </trkpt>
      <trkpt lat="49.44572" lon="0.86581">
        <ele>3</ele>
        <time>2018-06-14T16:05:06Z</time>
      </trkpt>
      <trkpt lat="49.44394" lon="0.86537">
        <ele>2</ele>
        <time>2018-06-14T16:05:54Z</time>
      </trkpt>
      <trkpt lat="49.44372" lon="0.86533">
        <ele>4</ele>
        <time>2018-06-14T16:06:00Z</time>
      </trkpt>
      <trkpt lat="49.44354" lon="0.8653">
        <ele>4</ele>
        <time>2018-06-14T16:06:05Z</time>
      </trkpt>
      <trkpt lat="49.44337" lon="0.8653">
        <ele>4</ele>
        <time>2018-06-14T16:06:09Z</time>
      </trkpt>
      <trkpt lat="49.44302" lon="0.8653">
        <ele>4</ele>
        <time>2018-06-14T16:06:19Z</time>
      </trkpt>
      <trkpt lat="49.44281" lon="0.8653">
        <ele>4</ele>
        <time>2018-06-14T16:06:24Z</time>
      </trkpt>
      <trkpt lat="49.44266" lon="0.86529">
        <ele>4</ele>
        <time>2018-06-14T16:06:28Z</time>
      </trkpt>
      <trkpt lat="49.44243" lon="0.86525">
        <ele>4</ele>
        <time>2018-06-14T16:06:34Z</time>
      </trkpt>
      <trkpt lat="49.44222" lon="0.86521">
        <ele>4</ele>
        <time>2018-06-14T16:06:40Z</time>
      </trkpt>
      <trkpt lat="49.44142" lon="0.86502">
        <ele>4</ele>
        <time>2018-06-14T16:07:02Z</time>
      </trkpt>
      <trkpt lat="49.44098" lon="0.86496">
        <ele>4</ele>
        <time>2018-06-14T16:07:14Z</time>
      </trkpt>
      <trkpt lat="49.44032" lon="0.86495">
        <ele>4</ele>
        <time>2018-06-14T16:07:31Z</time>
      </trkpt>
      <trkpt lat="49.44003" lon="0.86498">
        <ele>4</ele>
        <time>2018-06-14T16:07:39Z</time>
      </trkpt>
      <trkpt lat="49.43957" lon="0.86508">
        <ele>4</ele>
        <time>2018-06-14T16:07:51Z</time>
      </trkpt>
      <trkpt lat="49.43895" lon="0.86525">
        <ele>4</ele>
        <time>2018-06-14T16:08:08Z</time>
      </trkpt>
      <trkpt lat="49.43855" lon="0.86532">
        <ele>3</ele>
        <time>2018-06-14T16:08:19Z</time>
      </trkpt>
      <trkpt lat="49.43752" lon="0.86544">
        <ele>3</ele>
        <time>2018-06-14T16:08:47Z</time>
      </trkpt>
      <trkpt lat="49.43738" lon="0.86547">
        <ele>3</ele>
        <time>2018-06-14T16:08:50Z</time>
      </trkpt>
      <trkpt lat="49.43722" lon="0.86553">
        <ele>3</ele>
        <time>2018-06-14T16:08:55Z</time>
      </trkpt>
      <trkpt lat="49.43713" lon="0.86557">
        <ele>4</ele>
        <time>2018-06-14T16:08:57Z</time>
      </trkpt>
      <trkpt lat="49.437" lon="0.86566">
        <ele>4</ele>
        <time>2018-06-14T16:09:01Z</time>
      </trkpt>
      <trkpt lat="49.43686" lon="0.86578">
        <ele>4</ele>
        <time>2018-06-14T16:09:05Z</time>
      </trkpt>
      <trkpt lat="49.43666" lon="0.86602">
        <ele>4</ele>
        <time>2018-06-14T16:09:12Z</time>
      </trkpt>
      <trkpt lat="49.4364" lon="0.86626">
        <ele>4</ele>
        <time>2018-06-14T16:09:20Z</time>
      </trkpt>
      <trkpt lat="49.43628" lon="0.86634">
        <ele>4</ele>
        <time>2018-06-14T16:09:24Z</time>
      </trkpt>
      <trkpt lat="49.43587" lon="0.86649">
        <ele>4</ele>
        <time>2018-06-14T16:09:35Z</time>
      </trkpt>
      <trkpt lat="49.4357" lon="0.86655">
        <ele>4</ele>
        <time>2018-06-14T16:09:40Z</time>
      </trkpt>
      <trkpt lat="49.43541" lon="0.86665">
        <ele>3</ele>
        <time>2018-06-14T16:09:48Z</time>
      </trkpt>
      <trkpt lat="49.4351" lon="0.86674">
        <ele>3</ele>
        <time>2018-06-14T16:09:56Z</time>
      </trkpt>
      <trkpt lat="49.43382" lon="0.86703">
        <ele>2</ele>
        <time>2018-06-14T16:10:31Z</time>
      </trkpt>
      <trkpt lat="49.4335" lon="0.86715">
        <ele>2</ele>
        <time>2018-06-14T16:10:39Z</time>
      </trkpt>
      <trkpt lat="49.43302" lon="0.86734">
        <ele>2</ele>
        <time>2018-06-14T16:10:53Z</time>
      </trkpt>
      <trkpt lat="49.43266" lon="0.86747">
        <ele>2</ele>
        <time>2018-06-14T16:11:02Z</time>
      </trkpt>
      <trkpt lat="49.43229" lon="0.86758">
        <ele>4</ele>
        <time>2018-06-14T16:11:13Z</time>
      </trkpt>
      <trkpt lat="49.43201" lon="0.86765">
        <ele>4</ele>
        <time>2018-06-14T16:11:20Z</time>
      </trkpt>
      <trkpt lat="49.43184" lon="0.86771">
        <ele>4</ele>
        <time>2018-06-14T16:11:25Z</time>
      </trkpt>
      <trkpt lat="49.43174" lon="0.86776">
        <ele>4</ele>
        <time>2018-06-14T16:11:28Z</time>
      </trkpt>
      <trkpt lat="49.43159" lon="0.86784">
        <ele>4</ele>
        <time>2018-06-14T16:11:32Z</time>
      </trkpt>
      <trkpt lat="49.43136" lon="0.86796">
        <ele>4</ele>
        <time>2018-06-14T16:11:38Z</time>
      </trkpt>
      <trkpt lat="49.43121" lon="0.86802">
        <ele>4</ele>
        <time>2018-06-14T16:11:42Z</time>
      </trkpt>
      <trkpt lat="49.43107" lon="0.86806">
        <ele>4</ele>
        <time>2018-06-14T16:11:46Z</time>
      </trkpt>
      <trkpt lat="49.43089" lon="0.86807">
        <ele>4</ele>
        <time>2018-06-14T16:11:51Z</time>
      </trkpt>
      <trkpt lat="49.43065" lon="0.86807">
        <ele>3</ele>
        <time>2018-06-14T16:11:57Z</time>
      </trkpt>
      <trkpt lat="49.43039" lon="0.86806">
        <ele>3</ele>
        <time>2018-06-14T16:12:04Z</time>
      </trkpt>
      <trkpt lat="49.43023" lon="0.86808">
        <ele>3</ele>
        <time>2018-06-14T16:12:09Z</time>
      </trkpt>
      <trkpt lat="49.4301" lon="0.86811">
        <ele>3</ele>
        <time>2018-06-14T16:12:12Z</time>
      </trkpt>
      <trkpt lat="49.42982" lon="0.86822">
        <ele>3</ele>
        <time>2018-06-14T16:12:20Z</time>
      </trkpt>
      <trkpt lat="49.42957" lon="0.8683">
        <ele>3</ele>
        <time>2018-06-14T16:12:27Z</time>
      </trkpt>
      <trkpt lat="49.42935" lon="0.86837">
        <ele>3</ele>
        <time>2018-06-14T16:12:33Z</time>
      </trkpt>
      <trkpt lat="49.42905" lon="0.86843">
        <ele>3</ele>
        <time>2018-06-14T16:12:41Z</time>
      </trkpt>
      <trkpt lat="49.42882" lon="0.86848">
        <ele>4</ele>
        <time>2018-06-14T16:12:47Z</time>
      </trkpt>
      <trkpt lat="49.42845" lon="0.86855">
        <ele>4</ele>
        <time>2018-06-14T16:12:57Z</time>
      </trkpt>
      <trkpt lat="49.42831" lon="0.86858">
        <ele>4</ele>
        <time>2018-06-14T16:13:01Z</time>
      </trkpt>
      <trkpt lat="49.42811" lon="0.86861">
        <ele>4</ele>
        <time>2018-06-14T16:13:06Z</time>
      </trkpt>
      <trkpt lat="49.42794" lon="0.86866">
        <ele>4</ele>
        <time>2018-06-14T16:13:11Z</time>
      </trkpt>
      <trkpt lat="49.42775" lon="0.86874">
        <ele>4</ele>
        <time>2018-06-14T16:13:16Z</time>
      </trkpt>
      <trkpt lat="49.42761" lon="0.86881">
        <ele>4</ele>
        <time>2018-06-14T16:13:20Z</time>
      </trkpt>
      <trkpt lat="49.42744" lon="0.86893">
        <ele>4</ele>
        <time>2018-06-14T16:13:25Z</time>
      </trkpt>
      <trkpt lat="49.42718" lon="0.86912">
        <ele>3</ele>
        <time>2018-06-14T16:13:33Z</time>
      </trkpt>
      <trkpt lat="49.4268" lon="0.86944">
        <ele>3</ele>
        <time>2018-06-14T16:13:44Z</time>
      </trkpt>
      <trkpt lat="49.42586" lon="0.87023">
        <ele>3</ele>
        <time>2018-06-14T16:14:13Z</time>
      </trkpt>
      <trkpt lat="49.42565" lon="0.87043">
        <ele>3</ele>
        <time>2018-06-14T16:14:19Z</time>
      </trkpt>
      <trkpt lat="49.42553" lon="0.87057">
        <ele>3</ele>
        <time>2018-06-14T16:14:24Z</time>
      </trkpt>
      <trkpt lat="49.42542" lon="0.87073">
        <ele>3</ele>
        <time>2018-06-14T16:14:28Z</time>
      </trkpt>
      <trkpt lat="49.42533" lon="0.87086">
        <ele>3</ele>
        <time>2018-06-14T16:14:31Z</time>
      </trkpt>
      <trkpt lat="49.42526" lon="0.87099">
        <ele>3</ele>
        <time>2018-06-14T16:14:34Z</time>
      </trkpt>
      <trkpt lat="49.42516" lon="0.87113">
        <ele>3</ele>
        <time>2018-06-14T16:14:37Z</time>
      </trkpt>
      <trkpt lat="49.42498" lon="0.87135">
        <ele>3</ele>
        <time>2018-06-14T16:14:44Z</time>
      </trkpt>
      <trkpt lat="49.42466" lon="0.87167">
        <ele>3</ele>
        <time>2018-06-14T16:14:54Z</time>
      </trkpt>
      <trkpt lat="49.42435" lon="0.87197">
        <ele>5</ele>
        <time>2018-06-14T16:15:04Z</time>
      </trkpt>
      <trkpt lat="49.42387" lon="0.87246">
        <ele>5</ele>
        <time>2018-06-14T16:15:19Z</time>
      </trkpt>
      <trkpt lat="49.42372" lon="0.87259">
        <ele>5</ele>
        <time>2018-06-14T16:15:24Z</time>
      </trkpt>
      <trkpt lat="49.42342" lon="0.87275">
        <ele>5</ele>
        <time>2018-06-14T16:15:32Z</time>
      </trkpt>
      <trkpt lat="49.42311" lon="0.87288">
        <ele>5</ele>
        <time>2018-06-14T16:15:41Z</time>
      </trkpt>
      <trkpt lat="49.42299" lon="0.8729">
        <ele>4</ele>
        <time>2018-06-14T16:15:44Z</time>
      </trkpt>
      <trkpt lat="49.42288" lon="0.8729">
        <ele>4</ele>
        <time>2018-06-14T16:15:47Z</time>
      </trkpt>
      <trkpt lat="49.42277" lon="0.87288">
        <ele>4</ele>
        <time>2018-06-14T16:15:50Z</time>
      </trkpt>
      <trkpt lat="49.42208" lon="0.87262">
        <ele>4</ele>
        <time>2018-06-14T16:16:09Z</time>
      </trkpt>
      <trkpt lat="49.42151" lon="0.87247">
        <ele>4</ele>
        <time>2018-06-14T16:16:24Z</time>
      </trkpt>
      <trkpt lat="49.42117" lon="0.87238">
        <ele>1</ele>
        <time>2018-06-14T16:16:33Z</time>
      </trkpt>
      <trkpt lat="49.42086" lon="0.87233">
        <ele>1</ele>
        <time>2018-06-14T16:16:42Z</time>
      </trkpt>
      <trkpt lat="49.4201" lon="0.87224">
        <ele>1</ele>
        <time>2018-06-14T16:17:02Z</time>
      </trkpt>
      <trkpt lat="49.41936" lon="0.87219">
        <ele>5</ele>
        <time>2018-06-14T16:17:22Z</time>
      </trkpt>
      <trkpt lat="49.41897" lon="0.87223">
        <ele>5</ele>
        <time>2018-06-14T16:17:32Z</time>
      </trkpt>
      <trkpt lat="49.41872" lon="0.87226">
        <ele>5</ele>
        <time>2018-06-14T16:17:39Z</time>
      </trkpt>
      <trkpt lat="49.41806" lon="0.87245">
        <ele>5</ele>
        <time>2018-06-14T16:17:57Z</time>
      </trkpt>
      <trkpt lat="49.41737" lon="0.8726">
        <ele>3</ele>
        <time>2018-06-14T16:18:16Z</time>
      </trkpt>
      <trkpt lat="49.41686" lon="0.87266">
        <ele>3</ele>
        <time>2018-06-14T16:18:29Z</time>
      </trkpt>
      <trkpt lat="49.41625" lon="0.87273">
        <ele>6</ele>
        <time>2018-06-14T16:18:46Z</time>
      </trkpt>
      <trkpt lat="49.41564" lon="0.8728">
        <ele>6</ele>
        <time>2018-06-14T16:19:02Z</time>
      </trkpt>
      <trkpt lat="49.41442" lon="0.87292">
        <ele>4</ele>
        <time>2018-06-14T16:19:35Z</time>
      </trkpt>
      <trkpt lat="49.41406" lon="0.87296">
        <ele>4</ele>
        <time>2018-06-14T16:19:44Z</time>
      </trkpt>
      <trkpt lat="49.41394" lon="0.87294">
        <ele>4</ele>
        <time>2018-06-14T16:19:47Z</time>
      </trkpt>
      <trkpt lat="49.41394" lon="0.87289">
        <ele>4</ele>
        <time>2018-06-14T16:19:48Z</time>
      </trkpt>
      <trkpt lat="49.41394" lon="0.87285">
        <ele>4</ele>
        <time>2018-06-14T16:19:49Z</time>
      </trkpt>
      <trkpt lat="49.41392" lon="0.87282">
        <ele>4</ele>
        <time>2018-06-14T16:19:50Z</time>
      </trkpt>
      <trkpt lat="49.4139" lon="0.87279">
        <ele>4</ele>
        <time>2018-06-14T16:19:50Z</time>
      </trkpt>
      <trkpt lat="49.41388" lon="0.87277">
        <ele>4</ele>
        <time>2018-06-14T16:19:51Z</time>
      </trkpt>
      <trkpt lat="49.41385" lon="0.87276">
        <ele>4</ele>
        <time>2018-06-14T16:19:52Z</time>
      </trkpt>
      <trkpt lat="49.41382" lon="0.87277">
        <ele>4</ele>
        <time>2018-06-14T16:19:53Z</time>
      </trkpt>
      <trkpt lat="49.4136" lon="0.87145">
        <ele>2</ele>
        <time>2018-06-14T16:20:16Z</time>
      </trkpt>
      <trkpt lat="49.41354" lon="0.87134">
        <ele>2</ele>
        <time>2018-06-14T16:20:19Z</time>
      </trkpt>
      <trkpt lat="49.41346" lon="0.87057">
        <ele>2</ele>
        <time>2018-06-14T16:20:33Z</time>
      </trkpt>
      <trkpt lat="49.41329" lon="0.86794">
        <time>2018-06-14T16:21:18Z</time>
      </trkpt>
      <trkpt lat="49.41335" lon="0.86722">
        <ele>3</ele>
        <time>2018-06-14T16:21:31Z</time>
      </trkpt>
      <trkpt lat="49.41327" lon="0.86677">
        <ele>3</ele>
        <time>2018-06-14T16:21:39Z</time>
      </trkpt>
      <trkpt lat="49.41327" lon="0.86664">
        <ele>3</ele>
        <time>2018-06-14T16:21:41Z</time>
      </trkpt>
      <trkpt lat="49.41321" lon="0.86673">
        <ele>3</ele>
        <time>2018-06-14T16:21:44Z</time>
      </trkpt>
      <trkpt lat="49.41301" lon="0.86699">
        <ele>3</ele>
        <time>2018-06-14T16:21:51Z</time>
      </trkpt>
      <trkpt lat="49.41286" lon="0.86706">
        <ele>3</ele>
        <time>2018-06-14T16:21:55Z</time>
      </trkpt>
      <trkpt lat="49.41213" lon="0.86723">
        <ele>5</ele>
        <time>2018-06-14T16:22:15Z</time>
      </trkpt>
      <trkpt lat="49.41138" lon="0.86738">
        <ele>5</ele>
        <time>2018-06-14T16:22:35Z</time>
      </trkpt>
      <trkpt lat="49.41093" lon="0.86747">
        <ele>5</ele>
        <time>2018-06-14T16:22:47Z</time>
      </trkpt>
      <trkpt lat="49.41022" lon="0.86757">
        <ele>3</ele>
        <time>2018-06-14T16:23:06Z</time>
      </trkpt>
      <trkpt lat="49.40965" lon="0.86761">
        <ele>3</ele>
        <time>2018-06-14T16:23:21Z</time>
      </trkpt>
      <trkpt lat="49.40952" lon="0.86762">
        <ele>3</ele>
        <time>2018-06-14T16:23:25Z</time>
      </trkpt>
      <trkpt lat="49.40892" lon="0.86768">
        <ele>3</ele>
        <time>2018-06-14T16:23:41Z</time>
      </trkpt>
      <trkpt lat="49.40856" lon="0.86773">
        <ele>5</ele>
        <time>2018-06-14T16:23:50Z</time>
      </trkpt>
      <trkpt lat="49.40818" lon="0.86778">
        <ele>5</ele>
        <time>2018-06-14T16:24:01Z</time>
      </trkpt>
      <trkpt lat="49.40769" lon="0.86783">
        <ele>5</ele>
        <time>2018-06-14T16:24:14Z</time>
      </trkpt>
      <trkpt lat="49.40725" lon="0.86783">
        <ele>5</ele>
        <time>2018-06-14T16:24:25Z</time>
      </trkpt>
      <trkpt lat="49.40693" lon="0.8678">
        <ele>3</ele>
        <time>2018-06-14T16:24:34Z</time>
      </trkpt>
      <trkpt lat="49.40595" lon="0.86771">
        <ele>3</ele>
        <time>2018-06-14T16:25:00Z</time>
      </trkpt>
      <trkpt lat="49.40576" lon="0.86768">
        <ele>3</ele>
        <time>2018-06-14T16:25:05Z</time>
      </trkpt>
      <trkpt lat="49.4054" lon="0.8676">
        <ele>2</ele>
        <time>2018-06-14T16:25:15Z</time>
      </trkpt>
      <trkpt lat="49.40511" lon="0.86752">
        <ele>2</ele>
        <time>2018-06-14T16:25:23Z</time>
      </trkpt>
      <trkpt lat="49.40452" lon="0.86731">
        <ele>2</ele>
        <time>2018-06-14T16:25:39Z</time>
      </trkpt>
      <trkpt lat="49.40391" lon="0.86705">
        <ele>2</ele>
        <time>2018-06-14T16:25:56Z</time>
      </trkpt>
      <trkpt lat="49.4036" lon="0.86691">
        <ele>6</ele>
        <time>2018-06-14T16:26:05Z</time>
      </trkpt>
      <trkpt lat="49.40292" lon="0.86659">
        <ele>6</ele>
        <time>2018-06-14T16:26:24Z</time>
      </trkpt>
      <trkpt lat="49.4026" lon="0.86645">
        <ele>6</ele>
        <time>2018-06-14T16:26:33Z</time>
      </trkpt>
      <trkpt lat="49.40247" lon="0.8664">
        <ele>6</ele>
        <time>2018-06-14T16:26:36Z</time>
      </trkpt>
      <trkpt lat="49.40208" lon="0.86619">
        <ele>4</ele>
        <time>2018-06-14T16:26:47Z</time>
      </trkpt>
      <trkpt lat="49.40162" lon="0.86594">
        <ele>4</ele>
        <time>2018-06-14T16:27:00Z</time>
      </trkpt>
      <trkpt lat="49.40094" lon="0.86556">
        <ele>4</ele>
        <time>2018-06-14T16:27:20Z</time>
      </trkpt>
      <trkpt lat="49.40036" lon="0.8652">
        <ele>4</ele>
        <time>2018-06-14T16:27:36Z</time>
      </trkpt>
      <trkpt lat="49.3998" lon="0.86479">
        <ele>4</ele>
        <time>2018-06-14T16:27:53Z</time>
      </trkpt>
      <trkpt lat="49.39922" lon="0.86429">
        <ele>4</ele>
        <time>2018-06-14T16:28:11Z</time>
      </trkpt>
      <trkpt lat="49.39879" lon="0.86376">
        <ele>3</ele>
        <time>2018-06-14T16:28:25Z</time>
      </trkpt>
      <trkpt lat="49.39817" lon="0.86282">
        <ele>3</ele>
        <time>2018-06-14T16:28:49Z</time>
      </trkpt>
      <trkpt lat="49.39729" lon="0.86137">
        <ele>2</ele>
        <time>2018-06-14T16:29:23Z</time>
      </trkpt>
      <trkpt lat="49.3969" lon="0.86073">
        <ele>2</ele>
        <time>2018-06-14T16:29:38Z</time>
      </trkpt>
      <trkpt lat="49.39653" lon="0.85996">
        <ele>3</ele>
        <time>2018-06-14T16:29:55Z</time>
      </trkpt>
      <trkpt lat="49.39619" lon="0.85923">
        <ele>3</ele>
        <time>2018-06-14T16:30:11Z</time>
      </trkpt>
      <trkpt lat="49.39595" lon="0.8586">
        <ele>3</ele>
        <time>2018-06-14T16:30:23Z</time>
      </trkpt>
      <trkpt lat="49.39552" lon="0.8575">
        <ele>3</ele>
        <time>2018-06-14T16:30:46Z</time>
      </trkpt>
      <trkpt lat="49.39485" lon="0.85567">
        <ele>4</ele>
        <time>2018-06-14T16:31:22Z</time>
      </trkpt>
      <trkpt lat="49.39454" lon="0.85463">
        <ele>4</ele>
        <time>2018-06-14T16:31:42Z</time>
      </trkpt>
      <trkpt lat="49.39431" lon="0.85363">
        <ele>4</ele>
        <time>2018-06-14T16:32:00Z</time>
      </trkpt>
      <trkpt lat="49.39431" lon="0.8536">
        <ele>4</ele>
        <time>2018-06-14T16:32:01Z</time>
      </trkpt>
      <trkpt lat="49.39415" lon="0.85288">
        <ele>4</ele>
        <time>2018-06-14T16:32:14Z</time>
      </trkpt>
      <trkpt lat="49.39402" lon="0.85222">
        <ele>4</ele>
        <time>2018-06-14T16:32:26Z</time>
      </trkpt>
      <trkpt lat="49.39417" lon="0.85209">
        <ele>4</ele>
        <time>2018-06-14T16:32:31Z</time>
      </trkpt>
      <trkpt lat="49.39494" lon="0.85152">
        <ele>2</ele>
        <time>2018-06-14T16:32:54Z</time>
      </trkpt>
      <trkpt lat="49.39541" lon="0.8512">
        <ele>2</ele>
        <time>2018-06-14T16:33:07Z</time>
      </trkpt>
      <trkpt lat="49.396" lon="0.85072">
        <ele>4</ele>
        <time>2018-06-14T16:33:25Z</time>
      </trkpt>
      <trkpt lat="49.39588" lon="0.85041">
        <ele>4</ele>
        <time>2018-06-14T16:33:31Z</time>
      </trkpt>
      <trkpt lat="49.39577" lon="0.85011">
        <ele>4</ele>
        <time>2018-06-14T16:33:37Z</time>
      </trkpt>
      <trkpt lat="49.39573" lon="0.84993">
        <ele>4</ele>
        <time>2018-06-14T16:33:41Z</time>
      </trkpt>
      <trkpt lat="49.3957" lon="0.84975">
        <ele>4</ele>
        <time>2018-06-14T16:33:44Z</time>
      </trkpt>
      <trkpt lat="49.39568" lon="0.84955">
        <ele>4</ele>
        <time>2018-06-14T16:33:48Z</time>
      </trkpt>
      <trkpt lat="49.39568" lon="0.84932">
        <ele>4</ele>
        <time>2018-06-14T16:33:52Z</time>
      </trkpt>
      <trkpt lat="49.39569" lon="0.8488">
        <ele>4</ele>
        <time>2018-06-14T16:34:01Z</time>
      </trkpt>
      <trkpt lat="49.39569" lon="0.84857">
        <ele>3</ele>
        <time>2018-06-14T16:34:05Z</time>
      </trkpt>
      <trkpt lat="49.39568" lon="0.84836">
        <ele>3</ele>
        <time>2018-06-14T16:34:08Z</time>
      </trkpt>
      <trkpt lat="49.39564" lon="0.84811">
        <ele>3</ele>
        <time>2018-06-14T16:34:13Z</time>
      </trkpt>
      <trkpt lat="49.39547" lon="0.84702">
        <ele>3</ele>
        <time>2018-06-14T16:34:32Z</time>
      </trkpt>
      <trkpt lat="49.39546" lon="0.84687">
        <ele>3</ele>
        <time>2018-06-14T16:34:35Z</time>
      </trkpt>
      <trkpt lat="49.39543" lon="0.84658">
        <ele>3</ele>
        <time>2018-06-14T16:34:40Z</time>
      </trkpt>
      <trkpt lat="49.39542" lon="0.84626">
        <ele>3</ele>
        <time>2018-06-14T16:34:45Z</time>
      </trkpt>
      <trkpt lat="49.39541" lon="0.8459">
        <ele>3</ele>
        <time>2018-06-14T16:34:52Z</time>
      </trkpt>
      <trkpt lat="49.39541" lon="0.84546">
        <ele>3</ele>
        <time>2018-06-14T16:34:59Z</time>
      </trkpt>
      <trkpt lat="49.39542" lon="0.84471">
        <ele>3</ele>
        <time>2018-06-14T16:35:12Z</time>
      </trkpt>
      <trkpt lat="49.39544" lon="0.84393">
        <ele>3</ele>
        <time>2018-06-14T16:35:26Z</time>
      </trkpt>
      <trkpt lat="49.39552" lon="0.84271">
        <ele>2</ele>
        <time>2018-06-14T16:35:47Z</time>
      </trkpt>
      <trkpt lat="49.39553" lon="0.84234">
        <ele>2</ele>
        <time>2018-06-14T16:35:54Z</time>
      </trkpt>
      <trkpt lat="49.39553" lon="0.84162">
        <ele>2</ele>
        <time>2018-06-14T16:36:06Z</time>
      </trkpt>
      <trkpt lat="49.39551" lon="0.84036">
        <ele>5</ele>
        <time>2018-06-14T16:36:28Z</time>
      </trkpt>
      <trkpt lat="49.39552" lon="0.84025">
        <ele>5</ele>
        <time>2018-06-14T16:36:30Z</time>
      </trkpt>
      <trkpt lat="49.39555" lon="0.84009">
        <ele>5</ele>
        <time>2018-06-14T16:36:33Z</time>
      </trkpt>
      <trkpt lat="49.39565" lon="0.83964">
        <ele>5</ele>
        <time>2018-06-14T16:36:41Z</time>
      </trkpt>
      <trkpt lat="49.39569" lon="0.83942">
        <ele>5</ele>
        <time>2018-06-14T16:36:45Z</time>
      </trkpt>
      <trkpt lat="49.39574" lon="0.83909">
        <ele>5</ele>
        <time>2018-06-14T16:36:51Z</time>
      </trkpt>
      <trkpt lat="49.39585" lon="0.83825">
        <ele>4</ele>
        <time>2018-06-14T16:37:06Z</time>
      </trkpt>
      <trkpt lat="49.39593" lon="0.83746">
        <ele>4</ele>
        <time>2018-06-14T16:37:20Z</time>
      </trkpt>
      <trkpt lat="49.39599" lon="0.83708">
        <ele>4</ele>
        <time>2018-06-14T16:37:27Z</time>
      </trkpt>
      <trkpt lat="49.39634" lon="0.83497">
        <ele>3</ele>
        <time>2018-06-14T16:38:05Z</time>
      </trkpt>
      <trkpt lat="49.39641" lon="0.83464">
        <ele>3</ele>
        <time>2018-06-14T16:38:11Z</time>
      </trkpt>
      <trkpt lat="49.39651" lon="0.83414">
        <ele>3</ele>
        <time>2018-06-14T16:38:20Z</time>
      </trkpt>
      <trkpt lat="49.39654" lon="0.83405">
        <ele>3</ele>
        <time>2018-06-14T16:38:22Z</time>
      </trkpt>
      <trkpt lat="49.39662" lon="0.83368">
        <ele>3</ele>
        <time>2018-06-14T16:38:28Z</time>
      </trkpt>
      <trkpt lat="49.39684" lon="0.83275">
        <ele>4</ele>
        <time>2018-06-14T16:38:46Z</time>
      </trkpt>
      <trkpt lat="49.39687" lon="0.83263">
        <ele>4</ele>
        <time>2018-06-14T16:38:48Z</time>
      </trkpt>
      <trkpt lat="49.39695" lon="0.83208">
        <ele>4</ele>
        <time>2018-06-14T16:38:58Z</time>
      </trkpt>
      <trkpt lat="49.39712" lon="0.83086">
        <ele>4</ele>
        <time>2018-06-14T16:39:19Z</time>
      </trkpt>
      <trkpt lat="49.39714" lon="0.83046">
        <ele>4</ele>
        <time>2018-06-14T16:39:26Z</time>
      </trkpt>
      <trkpt lat="49.39716" lon="0.83015">
        <ele>4</ele>
        <time>2018-06-14T16:39:32Z</time>
      </trkpt>
      <trkpt lat="49.39717" lon="0.82946">
        <ele>4</ele>
        <time>2018-06-14T16:39:44Z</time>
      </trkpt>
      <trkpt lat="49.39718" lon="0.82925">
        <ele>4</ele>
        <time>2018-06-14T16:39:47Z</time>
      </trkpt>
      <trkpt lat="49.3972" lon="0.82908">
        <ele>4</ele>
        <time>2018-06-14T16:39:50Z</time>
      </trkpt>
      <trkpt lat="49.39724" lon="0.82882">
        <ele>4</ele>
        <time>2018-06-14T16:39:55Z</time>
      </trkpt>
      <trkpt lat="49.39756" lon="0.8273">
        <ele>5</ele>
        <time>2018-06-14T16:40:23Z</time>
      </trkpt>
      <trkpt lat="49.39763" lon="0.82699">
        <ele>5</ele>
        <time>2018-06-14T16:40:28Z</time>
      </trkpt>
      <trkpt lat="49.39769" lon="0.82678">
        <ele>5</ele>
        <time>2018-06-14T16:40:32Z</time>
      </trkpt>
      <trkpt lat="49.39778" lon="0.82654">
        <ele>5</ele>
        <time>2018-06-14T16:40:37Z</time>
      </trkpt>
      <trkpt lat="49.39811" lon="0.82575">
        <ele>2</ele>
        <time>2018-06-14T16:40:54Z</time>
      </trkpt>
      <trkpt lat="49.39854" lon="0.82472">
        <ele>2</ele>
        <time>2018-06-14T16:41:15Z</time>
      </trkpt>
      <trkpt lat="49.39877" lon="0.82413">
        <ele>2</ele>
        <time>2018-06-14T16:41:27Z</time>
      </trkpt>
      <trkpt lat="49.39896" lon="0.82369">
        <ele>2</ele>
        <time>2018-06-14T16:41:36Z</time>
      </trkpt>
      <trkpt lat="49.39928" lon="0.82302">
        <ele>2</ele>
        <time>2018-06-14T16:41:50Z</time>
      </trkpt>
      <trkpt lat="49.39977" lon="0.82202">
        <ele>2</ele>
        <time>2018-06-14T16:42:12Z</time>
      </trkpt>
      <trkpt lat="49.40003" lon="0.8215">
        <ele>4</ele>
        <time>2018-06-14T16:42:24Z</time>
      </trkpt>
      <trkpt lat="49.40019" lon="0.82121">
        <ele>4</ele>
        <time>2018-06-14T16:42:30Z</time>
      </trkpt>
      <trkpt lat="49.40037" lon="0.82094">
        <ele>4</ele>
        <time>2018-06-14T16:42:37Z</time>
      </trkpt>
      <trkpt lat="49.40051" lon="0.82075">
        <ele>4</ele>
        <time>2018-06-14T16:42:42Z</time>
      </trkpt>
      <trkpt lat="49.4007" lon="0.82053">
        <ele>4</ele>
        <time>2018-06-14T16:42:48Z</time>
      </trkpt>
      <trkpt lat="49.40105" lon="0.8202">
        <ele>4</ele>
        <time>2018-06-14T16:42:59Z</time>
      </trkpt>
      <trkpt lat="49.40135" lon="0.81994">
        <ele>3</ele>
        <time>2018-06-14T16:43:08Z</time>
      </trkpt>
      <trkpt lat="49.40153" lon="0.81978">
        <ele>3</ele>
        <time>2018-06-14T16:43:14Z</time>
      </trkpt>
      <trkpt lat="49.40166" lon="0.81965">
        <ele>3</ele>
        <time>2018-06-14T16:43:18Z</time>
      </trkpt>
      <trkpt lat="49.40175" lon="0.81955">
        <ele>3</ele>
        <time>2018-06-14T16:43:21Z</time>
      </trkpt>
      <trkpt lat="49.40184" lon="0.81941">
        <ele>3</ele>
        <time>2018-06-14T16:43:25Z</time>
      </trkpt>
      <trkpt lat="49.40218" lon="0.81888">
        <ele>3</ele>
        <time>2018-06-14T16:43:37Z</time>
      </trkpt>
      <trkpt lat="49.40254" lon="0.81835">
        <ele>3</ele>
        <time>2018-06-14T16:43:51Z</time>
      </trkpt>
      <trkpt lat="49.40279" lon="0.81797">
        <ele>3</ele>
        <time>2018-06-14T16:44:00Z</time>
      </trkpt>
      <trkpt lat="49.40297" lon="0.81765">
        <ele>3</ele>
        <time>2018-06-14T16:44:08Z</time>
      </trkpt>
      <trkpt lat="49.40319" lon="0.81735">
        <ele>3</ele>
        <time>2018-06-14T16:44:15Z</time>
      </trkpt>
      <trkpt lat="49.40353" lon="0.8169">
        <ele>3</ele>
        <time>2018-06-14T16:44:27Z</time>
      </trkpt>
      <trkpt lat="49.40368" lon="0.81673">
        <ele>3</ele>
        <time>2018-06-14T16:44:32Z</time>
      </trkpt>
      <trkpt lat="49.40379" lon="0.81662">
        <ele>2</ele>
        <time>2018-06-14T16:44:36Z</time>
      </trkpt>
      <trkpt lat="49.40399" lon="0.81645">
        <ele>2</ele>
        <time>2018-06-14T16:44:42Z</time>
      </trkpt>
      <trkpt lat="49.40443" lon="0.81624">
        <ele>2</ele>
        <time>2018-06-14T16:44:54Z</time>
      </trkpt>
      <trkpt lat="49.40464" lon="0.81611">
        <ele>2</ele>
        <time>2018-06-14T16:45:00Z</time>
      </trkpt>
      <trkpt lat="49.40487" lon="0.81595">
        <ele>2</ele>
        <time>2018-06-14T16:45:07Z</time>
      </trkpt>
      <trkpt lat="49.40503" lon="0.8158">
        <ele>2</ele>
        <time>2018-06-14T16:45:12Z</time>
      </trkpt>
      <trkpt lat="49.40517" lon="0.81566">
        <ele>2</ele>
        <time>2018-06-14T16:45:17Z</time>
      </trkpt>
      <trkpt lat="49.4054" lon="0.8154">
        <ele>4</ele>
        <time>2018-06-14T16:45:24Z</time>
      </trkpt>
      <trkpt lat="49.40558" lon="0.81519">
        <ele>4</ele>
        <time>2018-06-14T16:45:30Z</time>
      </trkpt>
      <trkpt lat="49.40568" lon="0.81508">
        <ele>4</ele>
        <time>2018-06-14T16:45:34Z</time>
      </trkpt>
      <trkpt lat="49.40595" lon="0.81469">
        <ele>4</ele>
        <time>2018-06-14T16:45:43Z</time>
      </trkpt>
      <trkpt lat="49.40625" lon="0.81434">
        <ele>4</ele>
        <time>2018-06-14T16:45:53Z</time>
      </trkpt>
      <trkpt lat="49.4072" lon="0.81325">
        <ele>3</ele>
        <time>2018-06-14T16:46:25Z</time>
      </trkpt>
      <trkpt lat="49.40734" lon="0.81311">
        <ele>3</ele>
        <time>2018-06-14T16:46:30Z</time>
      </trkpt>
      <trkpt lat="49.40748" lon="0.81297">
        <ele>3</ele>
        <time>2018-06-14T16:46:34Z</time>
      </trkpt>
      <trkpt lat="49.40759" lon="0.81287">
        <ele>3</ele>
        <time>2018-06-14T16:46:37Z</time>
      </trkpt>
      <trkpt lat="49.4077" lon="0.8128">
        <ele>3</ele>
        <time>2018-06-14T16:46:41Z</time>
      </trkpt>
      <trkpt lat="49.4078" lon="0.81275">
        <ele>3</ele>
        <time>2018-06-14T16:46:43Z</time>
      </trkpt>
      <trkpt lat="49.40796" lon="0.81268">
        <ele>3</ele>
        <time>2018-06-14T16:46:48Z</time>
      </trkpt>
      <trkpt lat="49.40859" lon="0.81249">
        <ele>3</ele>
        <time>2018-06-14T16:47:05Z</time>
      </trkpt>
      <trkpt lat="49.40924" lon="0.81227">
        <ele>3</ele>
        <time>2018-06-14T16:47:23Z</time>
      </trkpt>
      <trkpt lat="49.40945" lon="0.81219">
        <ele>3</ele>
        <time>2018-06-14T16:47:29Z</time>
      </trkpt>
      <trkpt lat="49.40955" lon="0.81217">
        <ele>3</ele>
        <time>2018-06-14T16:47:31Z</time>
      </trkpt>
      <trkpt lat="49.40965" lon="0.81218">
        <ele>3</ele>
        <time>2018-06-14T16:47:34Z</time>
      </trkpt>
      <trkpt lat="49.40976" lon="0.8122">
        <ele>3</ele>
        <time>2018-06-14T16:47:37Z</time>
      </trkpt>
      <trkpt lat="49.40986" lon="0.81223">
        <ele>3</ele>
        <time>2018-06-14T16:47:40Z</time>
      </trkpt>
      <trkpt lat="49.40996" lon="0.81228">
        <ele>3</ele>
        <time>2018-06-14T16:47:43Z</time>
      </trkpt>
      <trkpt lat="49.41026" lon="0.81247">
        <ele>3</ele>
        <time>2018-06-14T16:47:51Z</time>
      </trkpt>
      <trkpt lat="49.41038" lon="0.81253">
        <ele>3</ele>
        <time>2018-06-14T16:47:55Z</time>
      </trkpt>
      <trkpt lat="49.41047" lon="0.81256">
        <ele>3</ele>
        <time>2018-06-14T16:47:57Z</time>
      </trkpt>
      <trkpt lat="49.41055" lon="0.81257">
        <ele>3</ele>
        <time>2018-06-14T16:47:59Z</time>
      </trkpt>
      <trkpt lat="49.41067" lon="0.81257">
        <ele>3</ele>
        <time>2018-06-14T16:48:02Z</time>
      </trkpt>
      <trkpt lat="49.41081" lon="0.81255">
        <ele>3</ele>
        <time>2018-06-14T16:48:06Z</time>
      </trkpt>
      <trkpt lat="49.41097" lon="0.81251">
        <ele>3</ele>
        <time>2018-06-14T16:48:10Z</time>
      </trkpt>
      <trkpt lat="49.41139" lon="0.81236">
        <ele>3</ele>
        <time>2018-06-14T16:48:22Z</time>
      </trkpt>
      <trkpt lat="49.41191" lon="0.81217">
        <ele>3</ele>
        <time>2018-06-14T16:48:36Z</time>
      </trkpt>
      <trkpt lat="49.41279" lon="0.81184">
        <ele>3</ele>
        <time>2018-06-14T16:49:00Z</time>
      </trkpt>
      <trkpt lat="49.41294" lon="0.8118">
        <ele>3</ele>
        <time>2018-06-14T16:49:05Z</time>
      </trkpt>
      <trkpt lat="49.41306" lon="0.81178">
        <ele>3</ele>
        <time>2018-06-14T16:49:08Z</time>
      </trkpt>
      <trkpt lat="49.41322" lon="0.81181">
        <ele>3</ele>
        <time>2018-06-14T16:49:12Z</time>
      </trkpt>
      <trkpt lat="49.4133" lon="0.81185">
        <ele>3</ele>
        <time>2018-06-14T16:49:14Z</time>
      </trkpt>
      <trkpt lat="49.41338" lon="0.81191">
        <ele>3</ele>
        <time>2018-06-14T16:49:17Z</time>
      </trkpt>
      <trkpt lat="49.41347" lon="0.81202">
        <ele>3</ele>
        <time>2018-06-14T16:49:20Z</time>
      </trkpt>
      <trkpt lat="49.4137" lon="0.81232">
        <ele>3</ele>
        <time>2018-06-14T16:49:28Z</time>
      </trkpt>
      <trkpt lat="49.4144" lon="0.81333">
        <ele>4</ele>
        <time>2018-06-14T16:49:53Z</time>
      </trkpt>
      <trkpt lat="49.41463" lon="0.81366">
        <ele>4</ele>
        <time>2018-06-14T16:50:02Z</time>
      </trkpt>
      <trkpt lat="49.41483" lon="0.81395">
        <ele>4</ele>
        <time>2018-06-14T16:50:09Z</time>
      </trkpt>
      <trkpt lat="49.41504" lon="0.81423">
        <ele>4</ele>
        <time>2018-06-14T16:50:17Z</time>
      </trkpt>
      <trkpt lat="49.41511" lon="0.81429">
        <ele>4</ele>
        <time>2018-06-14T16:50:19Z</time>
      </trkpt>
      <trkpt lat="49.41519" lon="0.81434">
        <ele>4</ele>
        <time>2018-06-14T16:50:21Z</time>
      </trkpt>
      <trkpt lat="49.41526" lon="0.81437">
        <ele>4</ele>
        <time>2018-06-14T16:50:23Z</time>
      </trkpt>
      <trkpt lat="49.41532" lon="0.81438">
        <ele>4</ele>
        <time>2018-06-14T16:50:25Z</time>
      </trkpt>
      <trkpt lat="49.41543" lon="0.81438">
        <ele>4</ele>
        <time>2018-06-14T16:50:28Z</time>
      </trkpt>
      <trkpt lat="49.41552" lon="0.81438">
        <ele>4</ele>
        <time>2018-06-14T16:50:30Z</time>
      </trkpt>
      <trkpt lat="49.4157" lon="0.81433">
        <ele>5</ele>
        <time>2018-06-14T16:50:35Z</time>
      </trkpt>
      <trkpt lat="49.41641" lon="0.8141">
        <ele>5</ele>
        <time>2018-06-14T16:50:54Z</time>
      </trkpt>
      <trkpt lat="49.41656" lon="0.81407">
        <ele>5</ele>
        <time>2018-06-14T16:50:58Z</time>
      </trkpt>
      <trkpt lat="49.4167" lon="0.81405">
        <ele>5</ele>
        <time>2018-06-14T16:51:02Z</time>
      </trkpt>
      <trkpt lat="49.41683" lon="0.81406">
        <ele>5</ele>
        <time>2018-06-14T16:51:06Z</time>
      </trkpt>
      <trkpt lat="49.41697" lon="0.81408">
        <ele>5</ele>
        <time>2018-06-14T16:51:09Z</time>
      </trkpt>
      <trkpt lat="49.41729" lon="0.81415">
        <ele>3</ele>
        <time>2018-06-14T16:51:18Z</time>
      </trkpt>
      <trkpt lat="49.41746" lon="0.81418">
        <ele>3</ele>
        <time>2018-06-14T16:51:22Z</time>
      </trkpt>
      <trkpt lat="49.41759" lon="0.81418">
        <ele>3</ele>
        <time>2018-06-14T16:51:26Z</time>
      </trkpt>
      <trkpt lat="49.41773" lon="0.81416">
        <ele>3</ele>
        <time>2018-06-14T16:51:30Z</time>
      </trkpt>
      <trkpt lat="49.4179" lon="0.81412">
        <ele>3</ele>
        <time>2018-06-14T16:51:34Z</time>
      </trkpt>
      <trkpt lat="49.41818" lon="0.81407">
        <ele>3</ele>
        <time>2018-06-14T16:51:42Z</time>
      </trkpt>
      <trkpt lat="49.4185" lon="0.81403">
        <ele>3</ele>
        <time>2018-06-14T16:51:50Z</time>
      </trkpt>
      <trkpt lat="49.41874" lon="0.81404">
        <ele>3</ele>
        <time>2018-06-14T16:51:57Z</time>
      </trkpt>
      <trkpt lat="49.41896" lon="0.81406">
        <ele>2</ele>
        <time>2018-06-14T16:52:03Z</time>
      </trkpt>
      <trkpt lat="49.41913" lon="0.81404">
        <ele>2</ele>
        <time>2018-06-14T16:52:07Z</time>
      </trkpt>
      <trkpt lat="49.41927" lon="0.81401">
        <ele>2</ele>
        <time>2018-06-14T16:52:11Z</time>
      </trkpt>
      <trkpt lat="49.41941" lon="0.81395">
        <ele>2</ele>
        <time>2018-06-14T16:52:15Z</time>
      </trkpt>
      <trkpt lat="49.41994" lon="0.81372">
        <ele>2</ele>
        <time>2018-06-14T16:52:30Z</time>
      </trkpt>
      <trkpt lat="49.4202" lon="0.81361">
        <ele>2</ele>
        <time>2018-06-14T16:52:37Z</time>
      </trkpt>
      <trkpt lat="49.42043" lon="0.81353">
        <ele>2</ele>
        <time>2018-06-14T16:52:43Z</time>
      </trkpt>
      <trkpt lat="49.42057" lon="0.81349">
        <ele>2</ele>
        <time>2018-06-14T16:52:47Z</time>
      </trkpt>
      <trkpt lat="49.42072" lon="0.81347">
        <ele>2</ele>
        <time>2018-06-14T16:52:51Z</time>
      </trkpt>
      <trkpt lat="49.42085" lon="0.81347">
        <ele>2</ele>
        <time>2018-06-14T16:52:54Z</time>
      </trkpt>
      <trkpt lat="49.42095" lon="0.81348">
        <ele>2</ele>
        <time>2018-06-14T16:52:57Z</time>
      </trkpt>
      <trkpt lat="49.42106" lon="0.81351">
        <ele>2</ele>
        <time>2018-06-14T16:53:00Z</time>
      </trkpt>
      <trkpt lat="49.42119" lon="0.81356">
        <ele>2</ele>
        <time>2018-06-14T16:53:04Z</time>
      </trkpt>
      <trkpt lat="49.4214" lon="0.81369">
        <ele>2</ele>
        <time>2018-06-14T16:53:10Z</time>
      </trkpt>
      <trkpt lat="49.42229" lon="0.81438">
        <ele>1</ele>
        <time>2018-06-14T16:53:36Z</time>
      </trkpt>
      <trkpt lat="49.4224" lon="0.81445">
        <ele>1</ele>
        <time>2018-06-14T16:53:40Z</time>
      </trkpt>
      <trkpt lat="49.42252" lon="0.81449">
        <ele>1</ele>
        <time>2018-06-14T16:53:43Z</time>
      </trkpt>
      <trkpt lat="49.42264" lon="0.81452">
        <ele>1</ele>
        <time>2018-06-14T16:53:46Z</time>
      </trkpt>
      <trkpt lat="49.4228" lon="0.8145">
        <ele>1</ele>
        <time>2018-06-14T16:53:50Z</time>
      </trkpt>
      <trkpt lat="49.42303" lon="0.81445">
        <ele>1</ele>
        <time>2018-06-14T16:53:57Z</time>
      </trkpt>
      <trkpt lat="49.42314" lon="0.81445">
        <ele>1</ele>
        <time>2018-06-14T16:54:00Z</time>
      </trkpt>
      <trkpt lat="49.42321" lon="0.81447">
        <ele>1</ele>
        <time>2018-06-14T16:54:01Z</time>
      </trkpt>
      <trkpt lat="49.42328" lon="0.81451">
        <ele>1</ele>
        <time>2018-06-14T16:54:03Z</time>
      </trkpt>
      <trkpt lat="49.42334" lon="0.81456">
        <ele>1</ele>
        <time>2018-06-14T16:54:05Z</time>
      </trkpt>
      <trkpt lat="49.42339" lon="0.81463">
        <ele>1</ele>
        <time>2018-06-14T16:54:07Z</time>
      </trkpt>
      <trkpt lat="49.42344" lon="0.81475">
        <ele>1</ele>
        <time>2018-06-14T16:54:10Z</time>
      </trkpt>
      <trkpt lat="49.42371" lon="0.8156">
        <ele>3</ele>
        <time>2018-06-14T16:54:26Z</time>
      </trkpt>
      <trkpt lat="49.42376" lon="0.8157">
        <ele>3</ele>
        <time>2018-06-14T16:54:28Z</time>
      </trkpt>
      <trkpt lat="49.4238" lon="0.81576">
        <ele>3</ele>
        <time>2018-06-14T16:54:30Z</time>
      </trkpt>
      <trkpt lat="49.42382" lon="0.81577">
        <ele>3</ele>
        <time>2018-06-14T16:54:30Z</time>
      </trkpt>
      <trkpt lat="49.42386" lon="0.81578">
        <ele>3</ele>
        <time>2018-06-14T16:54:31Z</time>
      </trkpt>
      <trkpt lat="49.42393" lon="0.8158">
        <ele>3</ele>
        <time>2018-06-14T16:54:33Z</time>
      </trkpt>
      <trkpt lat="49.42402" lon="0.8158">
        <ele>3</ele>
        <time>2018-06-14T16:54:36Z</time>
      </trkpt>
      <trkpt lat="49.4241" lon="0.81578">
        <ele>3</ele>
        <time>2018-06-14T16:54:38Z</time>
      </trkpt>
      <trkpt lat="49.42431" lon="0.81567">
        <ele>3</ele>
        <time>2018-06-14T16:54:44Z</time>
      </trkpt>
      <trkpt lat="49.42572" lon="0.81482">
        <ele>3</ele>
        <time>2018-06-14T16:55:24Z</time>
      </trkpt>
      <trkpt lat="49.4258" lon="0.81479">
        <ele>3</ele>
        <time>2018-06-14T16:55:26Z</time>
      </trkpt>
      <trkpt lat="49.42587" lon="0.81478">
        <ele>3</ele>
        <time>2018-06-14T16:55:28Z</time>
      </trkpt>
      <trkpt lat="49.42592" lon="0.81479">
        <ele>3</ele>
        <time>2018-06-14T16:55:30Z</time>
      </trkpt>
      <trkpt lat="49.42597" lon="0.81482">
        <ele>3</ele>
        <time>2018-06-14T16:55:31Z</time>
      </trkpt>
      <trkpt lat="49.42598" lon="0.81472">
        <ele>3</ele>
        <time>2018-06-14T16:55:33Z</time>
      </trkpt>
      <trkpt lat="49.42597" lon="0.81462">
        <ele>3</ele>
        <time>2018-06-14T16:55:35Z</time>
      </trkpt>
      <trkpt lat="49.42594" lon="0.8145">
        <ele>3</ele>
        <time>2018-06-14T16:55:37Z</time>
      </trkpt>
      <trkpt lat="49.42579" lon="0.81401">
        <ele>2</ele>
        <time>2018-06-14T16:55:46Z</time>
      </trkpt>
      <trkpt lat="49.42575" lon="0.81387">
        <ele>2</ele>
        <time>2018-06-14T16:55:49Z</time>
      </trkpt>
      <trkpt lat="49.42572" lon="0.81369">
        <ele>2</ele>
        <time>2018-06-14T16:55:52Z</time>
      </trkpt>
      <trkpt lat="49.4257" lon="0.81351">
        <ele>2</ele>
        <time>2018-06-14T16:55:55Z</time>
      </trkpt>
      <trkpt lat="49.42569" lon="0.81336">
        <ele>2</ele>
        <time>2018-06-14T16:55:58Z</time>
      </trkpt>
      <trkpt lat="49.42569" lon="0.81308">
        <ele>2</ele>
        <time>2018-06-14T16:56:03Z</time>
      </trkpt>
      <trkpt lat="49.42568" lon="0.81208">
        <ele>2</ele>
        <time>2018-06-14T16:56:20Z</time>
      </trkpt>
      <trkpt lat="49.42568" lon="0.81163">
        <ele>1</ele>
        <time>2018-06-14T16:56:28Z</time>
      </trkpt>
      <trkpt lat="49.42564" lon="0.81065">
        <ele>1</ele>
        <time>2018-06-14T16:56:45Z</time>
      </trkpt>
      <trkpt lat="49.42562" lon="0.80912">
        <ele>3</ele>
        <time>2018-06-14T16:57:12Z</time>
      </trkpt>
      <trkpt lat="49.42558" lon="0.80795">
        <ele>3</ele>
        <time>2018-06-14T16:57:32Z</time>
      </trkpt>
      <trkpt lat="49.42557" lon="0.80734">
        <ele>3</ele>
        <time>2018-06-14T16:57:43Z</time>
      </trkpt>
      <trkpt lat="49.42568" lon="0.80615">
        <ele>3</ele>
        <time>2018-06-14T16:58:03Z</time>
      </trkpt>
      <trkpt lat="49.42573" lon="0.80555">
        <ele>3</ele>
        <time>2018-06-14T16:58:14Z</time>
      </trkpt>
      <trkpt lat="49.42575" lon="0.8053">
        <ele>3</ele>
        <time>2018-06-14T16:58:18Z</time>
      </trkpt>
      <trkpt lat="49.4258" lon="0.80514">
        <ele>3</ele>
        <time>2018-06-14T16:58:21Z</time>
      </trkpt>
      <trkpt lat="49.42588" lon="0.80502">
        <ele>3</ele>
        <time>2018-06-14T16:58:24Z</time>
      </trkpt>
      <trkpt lat="49.42596" lon="0.80496">
        <ele>3</ele>
        <time>2018-06-14T16:58:27Z</time>
      </trkpt>
      <trkpt lat="49.42634" lon="0.80488">
        <ele>3</ele>
        <time>2018-06-14T16:58:37Z</time>
      </trkpt>
      <trkpt lat="49.42679" lon="0.80473">
        <ele>3</ele>
        <time>2018-06-14T16:58:49Z</time>
      </trkpt>
      <trkpt lat="49.4275" lon="0.80449">
        <ele>3</ele>
        <time>2018-06-14T16:59:09Z</time>
      </trkpt>
      <trkpt lat="49.42842" lon="0.80424">
        <ele>3</ele>
        <time>2018-06-14T16:59:34Z</time>
      </trkpt>
      <trkpt lat="49.4286" lon="0.80421">
        <ele>3</ele>
        <time>2018-06-14T16:59:39Z</time>
      </trkpt>
      <trkpt lat="49.42872" lon="0.80422">
        <ele>3</ele>
        <time>2018-06-14T16:59:42Z</time>
      </trkpt>
      <trkpt lat="49.42903" lon="0.80396">
        <ele>3</ele>
        <time>2018-06-14T16:59:51Z</time>
      </trkpt>
      <trkpt lat="49.42931" lon="0.80373">
        <ele>3</ele>
        <time>2018-06-14T17:00:00Z</time>
      </trkpt>
      <trkpt lat="49.42942" lon="0.80361">
        <ele>3</ele>
        <time>2018-06-14T17:00:03Z</time>
      </trkpt>
      <trkpt lat="49.42962" lon="0.80327">
        <ele>2</ele>
        <time>2018-06-14T17:00:11Z</time>
      </trkpt>
      <trkpt lat="49.42975" lon="0.80293">
        <ele>2</ele>
        <time>2018-06-14T17:00:18Z</time>
      </trkpt>
      <trkpt lat="49.42984" lon="0.8026">
        <ele>2</ele>
        <time>2018-06-14T17:00:24Z</time>
      </trkpt>
      <trkpt lat="49.42988" lon="0.80216">
        <ele>2</ele>
        <time>2018-06-14T17:00:32Z</time>
      </trkpt>
      <trkpt lat="49.42984" lon="0.80172">
        <ele>2</ele>
        <time>2018-06-14T17:00:40Z</time>
      </trkpt>
      <trkpt lat="49.42976" lon="0.80141">
        <ele>2</ele>
        <time>2018-06-14T17:00:46Z</time>
      </trkpt>
      <trkpt lat="49.42969" lon="0.80122">
        <ele>2</ele>
        <time>2018-06-14T17:00:49Z</time>
      </trkpt>
      <trkpt lat="49.42963" lon="0.80114">
        <time>2018-06-14T17:00:51Z</time>
      </trkpt>
      <trkpt lat="49.42949" lon="0.80107">
        <ele>3</ele>
        <time>2018-06-14T17:00:55Z</time>
      </trkpt>
      <trkpt lat="49.42929" lon="0.80104">
        <ele>1.7</ele>
        <time>2018-06-14T17:01:01Z</time>
      </trkpt>
      <trkpt lat="49.42907" lon="0.80099">
        <ele>2.5</ele>
        <time>2018-06-14T17:01:07Z</time>
      </trkpt>
      <trkpt lat="49.42898" lon="0.80097">
        <ele>2.9</ele>
        <time>2018-06-14T17:01:09Z</time>
      </trkpt>
      <trkpt lat="49.42895" lon="0.80087">
        <ele>4.3</ele>
        <time>2018-06-14T17:01:11Z</time>
      </trkpt>
      <trkpt lat="49.42902" lon="0.80086">
        <ele>4.2</ele>
        <time>2018-06-14T17:01:13Z</time>
      </trkpt>
      <trkpt lat="49.42987" lon="0.80071">
        <ele>3</ele>
        <time>2018-06-14T17:01:36Z</time>
      </trkpt>
      <trkpt lat="49.42992" lon="0.80066">
        <ele>3</ele>
        <time>2018-06-14T17:01:37Z</time>
      </trkpt>
      <trkpt lat="49.4299" lon="0.80063">
        <ele>3</ele>
        <time>2018-06-14T17:01:38Z</time>
      </trkpt>
      <trkpt lat="49.42988" lon="0.80056">
        <ele>3</ele>
        <time>2018-06-14T17:01:39Z</time>
      </trkpt>
      <trkpt lat="49.42987" lon="0.80048">
        <ele>3</ele>
        <time>2018-06-14T17:01:41Z</time>
      </trkpt>
      <trkpt lat="49.42985" lon="0.80028">
        <ele>3</ele>
        <time>2018-06-14T17:01:44Z</time>
      </trkpt>
      <trkpt lat="49.42996" lon="0.80025">
        <ele>3</ele>
        <time>2018-06-14T17:01:47Z</time>
      </trkpt>
      <trkpt lat="49.43051" lon="0.80005">
        <ele>11</ele>
        <time>2018-06-14T17:02:02Z</time>
      </trkpt>
      <trkpt lat="49.4307" lon="0.80006">
        <ele>11</ele>
        <time>2018-06-14T17:02:08Z</time>
      </trkpt>
      <trkpt lat="49.43088" lon="0.79998">
        <ele>11</ele>
        <time>2018-06-14T17:02:13Z</time>
      </trkpt>
      <trkpt lat="49.43118" lon="0.79988">
        <ele>11</ele>
        <time>2018-06-14T17:02:21Z</time>
      </trkpt>
      <trkpt lat="49.43211" lon="0.79955">
        <ele>11</ele>
        <time>2018-06-14T17:02:46Z</time>
      </trkpt>
      <trkpt lat="49.43275" lon="0.79919">
        <ele>18</ele>
        <time>2018-06-14T17:03:04Z</time>
      </trkpt>
      <trkpt lat="49.43326" lon="0.79889">
        <ele>18</ele>
        <time>2018-06-14T17:03:19Z</time>
      </trkpt>
      <trkpt lat="49.43355" lon="0.79864">
        <ele>7</ele>
        <time>2018-06-14T17:03:28Z</time>
      </trkpt>
      <trkpt lat="49.43358" lon="0.79863">
        <ele>7</ele>
        <time>2018-06-14T17:03:29Z</time>
      </trkpt>
      <trkpt lat="49.43363" lon="0.79867">
        <ele>7</ele>
        <time>2018-06-14T17:03:30Z</time>
      </trkpt>
      <trkpt lat="49.43383" lon="0.79953">
        <ele>7</ele>
        <time>2018-06-14T17:03:46Z</time>
      </trkpt>
      <trkpt lat="49.43414" lon="0.801">
        <ele>5</ele>
        <time>2018-06-14T17:04:13Z</time>
      </trkpt>
      <trkpt lat="49.43414" lon="0.80118">
        <ele>4</ele>
        <time>2018-06-14T17:04:16Z</time>
      </trkpt>
      <trkpt lat="49.43437" lon="0.80129">
        <ele>4</ele>
        <time>2018-06-14T17:04:23Z</time>
      </trkpt>
      <trkpt lat="49.43468" lon="0.80147">
        <ele>3.2</ele>
        <time>2018-06-14T17:04:31Z</time>
      </trkpt>
      <trkpt lat="49.43482" lon="0.80155">
        <ele>2.9</ele>
        <time>2018-06-14T17:04:35Z</time>
      </trkpt>
      <trkpt lat="49.43516" lon="0.80175">
        <ele>3.7</ele>
        <time>2018-06-14T17:04:45Z</time>
      </trkpt>
      <trkpt lat="49.43546" lon="0.80195">
        <ele>4</ele>
        <time>2018-06-14T17:04:54Z</time>
      </trkpt>
      <trkpt lat="49.43584" lon="0.80225">
        <ele>4</ele>
        <time>2018-06-14T17:05:05Z</time>
      </trkpt>
      <trkpt lat="49.43617" lon="0.80254">
        <ele>4</ele>
        <time>2018-06-14T17:05:15Z</time>
      </trkpt>
      <trkpt lat="49.43657" lon="0.80295">
        <ele>4</ele>
        <time>2018-06-14T17:05:28Z</time>
      </trkpt>
      <trkpt lat="49.4369" lon="0.80334">
        <ele>6</ele>
        <time>2018-06-14T17:05:39Z</time>
      </trkpt>
      <trkpt lat="49.43739" lon="0.80393">
        <ele>6</ele>
        <time>2018-06-14T17:05:56Z</time>
      </trkpt>
      <trkpt lat="49.43744" lon="0.80397">
        <ele>6</ele>
        <time>2018-06-14T17:05:58Z</time>
      </trkpt>
      <trkpt lat="49.43749" lon="0.804">
        <ele>6</ele>
        <time>2018-06-14T17:05:59Z</time>
      </trkpt>
      <trkpt lat="49.43756" lon="0.80402">
        <ele>6</ele>
        <time>2018-06-14T17:06:01Z</time>
      </trkpt>
      <trkpt lat="49.43763" lon="0.80402">
        <ele>6</ele>
        <time>2018-06-14T17:06:03Z</time>
      </trkpt>
      <trkpt lat="49.4377" lon="0.80401">
        <ele>6</ele>
        <time>2018-06-14T17:06:05Z</time>
      </trkpt>
      <trkpt lat="49.43783" lon="0.80399">
        <ele>6</ele>
        <time>2018-06-14T17:06:08Z</time>
      </trkpt>
      <trkpt lat="49.43795" lon="0.80396">
        <ele>6</ele>
        <time>2018-06-14T17:06:11Z</time>
      </trkpt>
      <trkpt lat="49.43802" lon="0.80396">
        <ele>6</ele>
        <time>2018-06-14T17:06:13Z</time>
      </trkpt>
      <trkpt lat="49.4381" lon="0.80397">
        <ele>4</ele>
        <time>2018-06-14T17:06:15Z</time>
      </trkpt>
      <trkpt lat="49.43901" lon="0.80237">
        <ele>4</ele>
        <time>2018-06-14T17:06:52Z</time>
      </trkpt>
      <trkpt lat="49.43939" lon="0.80165">
        <ele>3</ele>
        <time>2018-06-14T17:07:08Z</time>
      </trkpt>
      <trkpt lat="49.43945" lon="0.80159">
        <ele>3</ele>
        <time>2018-06-14T17:07:10Z</time>
      </trkpt>
      <trkpt lat="49.43955" lon="0.80155">
        <ele>3</ele>
        <time>2018-06-14T17:07:13Z</time>
      </trkpt>
      <trkpt lat="49.4397" lon="0.80162">
        <ele>3</ele>
        <time>2018-06-14T17:07:17Z</time>
      </trkpt>
      <trkpt lat="49.44005" lon="0.80191">
        <ele>3</ele>
        <time>2018-06-14T17:07:28Z</time>
      </trkpt>
      <trkpt lat="49.4406" lon="0.80242">
        <ele>3</ele>
        <time>2018-06-14T17:07:45Z</time>
      </trkpt>
      <trkpt lat="49.44074" lon="0.80249">
        <ele>3</ele>
        <time>2018-06-14T17:07:49Z</time>
      </trkpt>
      <trkpt lat="49.44085" lon="0.80246">
        <ele>3</ele>
        <time>2018-06-14T17:07:52Z</time>
      </trkpt>
      <trkpt lat="49.44096" lon="0.80238">
        <ele>3</ele>
        <time>2018-06-14T17:07:55Z</time>
      </trkpt>
      <trkpt lat="49.44115" lon="0.80216">
        <ele>3</ele>
        <time>2018-06-14T17:08:02Z</time>
      </trkpt>
      <trkpt lat="49.44122" lon="0.80213">
        <ele>3</ele>
        <time>2018-06-14T17:08:04Z</time>
      </trkpt>
      <trkpt lat="49.44131" lon="0.80215">
        <ele>3</ele>
        <time>2018-06-14T17:08:06Z</time>
      </trkpt>
      <trkpt lat="49.4415" lon="0.80237">
        <ele>3</ele>
        <time>2018-06-14T17:08:12Z</time>
      </trkpt>
      <trkpt lat="49.44177" lon="0.80254">
        <ele>3</ele>
        <time>2018-06-14T17:08:20Z</time>
      </trkpt>
      <trkpt lat="49.44236" lon="0.80288">
        <ele>3</ele>
        <time>2018-06-14T17:08:37Z</time>
      </trkpt>
      <trkpt lat="49.44287" lon="0.80323">
        <ele>3</ele>
        <time>2018-06-14T17:08:52Z</time>
      </trkpt>
      <trkpt lat="49.44356" lon="0.80362">
        <ele>3</ele>
        <time>2018-06-14T17:09:11Z</time>
      </trkpt>
      <trkpt lat="49.4438" lon="0.80377">
        <ele>3</ele>
        <time>2018-06-14T17:09:18Z</time>
      </trkpt>
      <trkpt lat="49.44467" lon="0.80438">
        <ele>3</ele>
        <time>2018-06-14T17:09:44Z</time>
      </trkpt>
      <trkpt lat="49.44513" lon="0.80465">
        <ele>3</ele>
        <time>2018-06-14T17:09:57Z</time>
      </trkpt>
      <trkpt lat="49.44544" lon="0.80479">
        <ele>3.4</ele>
        <time>2018-06-14T17:10:06Z</time>
      </trkpt>
      <trkpt lat="49.44573" lon="0.805">
        <ele>3.6</ele>
        <time>2018-06-14T17:10:14Z</time>
      </trkpt>
      <trkpt lat="49.44599" lon="0.80514">
        <ele>3.7</ele>
        <time>2018-06-14T17:10:22Z</time>
      </trkpt>
      <trkpt lat="49.44624" lon="0.80529">
        <ele>3.6</ele>
        <time>2018-06-14T17:10:29Z</time>
      </trkpt>
      <trkpt lat="49.44707" lon="0.80597">
        <ele>3</ele>
        <time>2018-06-14T17:10:54Z</time>
      </trkpt>
      <trkpt lat="49.44756" lon="0.8063">
        <ele>3</ele>
        <time>2018-06-14T17:11:08Z</time>
      </trkpt>
      <trkpt lat="49.44822" lon="0.80675">
        <ele>3</ele>
        <time>2018-06-14T17:11:28Z</time>
      </trkpt>
      <trkpt lat="49.44885" lon="0.80728">
        <ele>3</ele>
        <time>2018-06-14T17:11:47Z</time>
      </trkpt>
      <trkpt lat="49.44895" lon="0.80734">
        <ele>3</ele>
        <time>2018-06-14T17:11:50Z</time>
      </trkpt>
      <trkpt lat="49.44908" lon="0.80731">
        <ele>3</ele>
        <time>2018-06-14T17:11:53Z</time>
      </trkpt>
      <trkpt lat="49.4493" lon="0.80738">
        <ele>3</ele>
        <time>2018-06-14T17:11:59Z</time>
      </trkpt>
      <trkpt lat="49.4496" lon="0.80755">
        <ele>3</ele>
        <time>2018-06-14T17:12:08Z</time>
      </trkpt>
      <trkpt lat="49.45002" lon="0.80796">
        <ele>3</ele>
        <time>2018-06-14T17:12:21Z</time>
      </trkpt>
      <trkpt lat="49.45022" lon="0.8081">
        <ele>3</ele>
        <time>2018-06-14T17:12:27Z</time>
      </trkpt>
      <trkpt lat="49.45046" lon="0.80818">
        <ele>3</ele>
        <time>2018-06-14T17:12:33Z</time>
      </trkpt>
      <trkpt lat="49.45171" lon="0.8086">
        <ele>2</ele>
        <time>2018-06-14T17:13:08Z</time>
      </trkpt>
      <trkpt lat="49.45266" lon="0.80892">
        <ele>2</ele>
        <time>2018-06-14T17:13:34Z</time>
      </trkpt>
      <trkpt lat="49.45275" lon="0.80906">
        <ele>2</ele>
        <time>2018-06-14T17:13:37Z</time>
      </trkpt>
      <trkpt lat="49.45283" lon="0.80927">
        <ele>2</ele>
        <time>2018-06-14T17:13:41Z</time>
      </trkpt>
      <trkpt lat="49.45295" lon="0.80939">
        <ele>2</ele>
        <time>2018-06-14T17:13:45Z</time>
      </trkpt>
      <trkpt lat="49.45359" lon="0.8097">
        <ele>2</ele>
        <time>2018-06-14T17:14:03Z</time>
      </trkpt>
      <trkpt lat="49.45392" lon="0.80992">
        <ele>2</ele>
        <time>2018-06-14T17:14:13Z</time>
      </trkpt>
      <trkpt lat="49.4541" lon="0.80996">
        <ele>2</ele>
        <time>2018-06-14T17:14:17Z</time>
      </trkpt>
      <trkpt lat="49.45451" lon="0.80994">
        <ele>2</ele>
        <time>2018-06-14T17:14:28Z</time>
      </trkpt>
      <trkpt lat="49.45536" lon="0.80981">
        <ele>4</ele>
        <time>2018-06-14T17:14:51Z</time>
      </trkpt>
      <trkpt lat="49.45573" lon="0.80982">
        <ele>4</ele>
        <time>2018-06-14T17:15:01Z</time>
      </trkpt>
      <trkpt lat="49.456" lon="0.80975">
        <ele>4</ele>
        <time>2018-06-14T17:15:08Z</time>
      </trkpt>
      <trkpt lat="49.45627" lon="0.80963">
        <ele>4</ele>
        <time>2018-06-14T17:15:16Z</time>
      </trkpt>
      <trkpt lat="49.45662" lon="0.80933">
        <ele>4</ele>
        <time>2018-06-14T17:15:27Z</time>
      </trkpt>
      <trkpt lat="49.45695" lon="0.80915">
        <ele>4</ele>
        <time>2018-06-14T17:15:36Z</time>
      </trkpt>
      <trkpt lat="49.45726" lon="0.80908">
        <ele>4</ele>
        <time>2018-06-14T17:15:44Z</time>
      </trkpt>
      <trkpt lat="49.4578" lon="0.80904">
        <ele>4</ele>
        <time>2018-06-14T17:15:59Z</time>
      </trkpt>
      <trkpt lat="49.45893" lon="0.809">
        <ele>2</ele>
        <time>2018-06-14T17:16:29Z</time>
      </trkpt>
      <trkpt lat="49.45939" lon="0.80902">
        <ele>2</ele>
        <time>2018-06-14T17:16:41Z</time>
      </trkpt>
      <trkpt lat="49.45983" lon="0.80915">
        <ele>2</ele>
        <time>2018-06-14T17:16:53Z</time>
      </trkpt>
      <trkpt lat="49.4603" lon="0.80932">
        <ele>2</ele>
        <time>2018-06-14T17:17:06Z</time>
      </trkpt>
      <trkpt lat="49.46037" lon="0.80942">
        <ele>2</ele>
        <time>2018-06-14T17:17:09Z</time>
      </trkpt>
      <trkpt lat="49.46047" lon="0.80992">
        <ele>2</ele>
        <time>2018-06-14T17:17:18Z</time>
      </trkpt>
      <trkpt lat="49.46083" lon="0.80947">
        <ele>2</ele>
        <time>2018-06-14T17:17:30Z</time>
      </trkpt>
      <trkpt lat="49.46106" lon="0.80918">
        <ele>3</ele>
        <time>2018-06-14T17:17:38Z</time>
      </trkpt>
      <trkpt lat="49.46117" lon="0.80902">
        <ele>3</ele>
        <time>2018-06-14T17:17:42Z</time>
      </trkpt>
      <trkpt lat="49.46166" lon="0.80836">
        <ele>3</ele>
        <time>2018-06-14T17:18:00Z</time>
      </trkpt>
      <trkpt lat="49.46217" lon="0.80766">
        <ele>3</ele>
        <time>2018-06-14T17:18:18Z</time>
      </trkpt>
      <trkpt lat="49.46262" lon="0.80701">
        <ele>3</ele>
        <time>2018-06-14T17:18:34Z</time>
      </trkpt>
      <trkpt lat="49.46272" lon="0.80683">
        <ele>3</ele>
        <time>2018-06-14T17:18:38Z</time>
      </trkpt>
      <trkpt lat="49.4628" lon="0.80665">
        <ele>3</ele>
        <time>2018-06-14T17:18:42Z</time>
      </trkpt>
      <trkpt lat="49.46291" lon="0.80638">
        <ele>3</ele>
        <time>2018-06-14T17:18:48Z</time>
      </trkpt>
      <trkpt lat="49.4633" lon="0.80534">
        <ele>2</ele>
        <time>2018-06-14T17:19:09Z</time>
      </trkpt>
      <trkpt lat="49.46338" lon="0.80515">
        <ele>2</ele>
        <time>2018-06-14T17:19:13Z</time>
      </trkpt>
      <trkpt lat="49.4635" lon="0.80492">
        <ele>2</ele>
        <time>2018-06-14T17:19:18Z</time>
      </trkpt>
      <trkpt lat="49.46365" lon="0.80462">
        <ele>2</ele>
        <time>2018-06-14T17:19:24Z</time>
      </trkpt>
      <trkpt lat="49.4639" lon="0.8042">
        <ele>2</ele>
        <time>2018-06-14T17:19:34Z</time>
      </trkpt>
      <trkpt lat="49.46405" lon="0.80393">
        <ele>2</ele>
        <time>2018-06-14T17:19:40Z</time>
      </trkpt>
      <trkpt lat="49.46416" lon="0.80376">
        <ele>2</ele>
        <time>2018-06-14T17:19:44Z</time>
      </trkpt>
      <trkpt lat="49.46425" lon="0.80363">
        <ele>2</ele>
        <time>2018-06-14T17:19:48Z</time>
      </trkpt>
      <trkpt lat="49.46434" lon="0.80352">
        <ele>2</ele>
        <time>2018-06-14T17:19:51Z</time>
      </trkpt>
      <trkpt lat="49.46445" lon="0.8034">
        <ele>2</ele>
        <time>2018-06-14T17:19:54Z</time>
      </trkpt>
      <trkpt lat="49.46454" lon="0.80331">
        <ele>2</ele>
        <time>2018-06-14T17:19:57Z</time>
      </trkpt>
      <trkpt lat="49.4647" lon="0.80316">
        <ele>2</ele>
        <time>2018-06-14T17:20:02Z</time>
      </trkpt>
      <trkpt lat="49.46471" lon="0.80315">
        <ele>2</ele>
        <time>2018-06-14T17:20:03Z</time>
      </trkpt>
      <trkpt lat="49.46502" lon="0.80289">
        <ele>2</ele>
        <time>2018-06-14T17:20:12Z</time>
      </trkpt>
      <trkpt lat="49.46541" lon="0.80259">
        <ele>2</ele>
        <time>2018-06-14T17:20:24Z</time>
      </trkpt>
      <trkpt lat="49.46586" lon="0.80227">
        <ele>2</ele>
        <time>2018-06-14T17:20:37Z</time>
      </trkpt>
      <trkpt lat="49.46602" lon="0.80215">
        <ele>2</ele>
        <time>2018-06-14T17:20:42Z</time>
      </trkpt>
      <trkpt lat="49.46615" lon="0.80203">
        <ele>2</ele>
        <time>2018-06-14T17:20:46Z</time>
      </trkpt>
      <trkpt lat="49.46625" lon="0.80192">
        <ele>2</ele>
        <time>2018-06-14T17:20:49Z</time>
      </trkpt>
      <trkpt lat="49.46643" lon="0.8017">
        <ele>2</ele>
        <time>2018-06-14T17:20:55Z</time>
      </trkpt>
      <trkpt lat="49.46674" lon="0.80131">
        <ele>2</ele>
        <time>2018-06-14T17:21:06Z</time>
      </trkpt>
      <trkpt lat="49.46692" lon="0.80104">
        <ele>2</ele>
        <time>2018-06-14T17:21:13Z</time>
      </trkpt>
      <trkpt lat="49.46701" lon="0.80088">
        <ele>1</ele>
        <time>2018-06-14T17:21:16Z</time>
      </trkpt>
      <trkpt lat="49.4671" lon="0.80071">
        <ele>1</ele>
        <time>2018-06-14T17:21:20Z</time>
      </trkpt>
      <trkpt lat="49.46717" lon="0.80054">
        <ele>1</ele>
        <time>2018-06-14T17:21:24Z</time>
      </trkpt>
      <trkpt lat="49.46721" lon="0.80044">
        <ele>1</ele>
        <time>2018-06-14T17:21:26Z</time>
      </trkpt>
      <trkpt lat="49.46727" lon="0.80025">
        <ele>1</ele>
        <time>2018-06-14T17:21:29Z</time>
      </trkpt>
      <trkpt lat="49.46764" lon="0.79916">
        <ele>1</ele>
        <time>2018-06-14T17:21:51Z</time>
      </trkpt>
      <trkpt lat="49.4678" lon="0.79872">
        <ele>1</ele>
        <time>2018-06-14T17:21:59Z</time>
      </trkpt>
      <trkpt lat="49.46809" lon="0.79785">
        <ele>2</ele>
        <time>2018-06-14T17:22:16Z</time>
      </trkpt>
      <trkpt lat="49.46847" lon="0.79681">
        <ele>2</ele>
        <time>2018-06-14T17:22:37Z</time>
      </trkpt>
      <trkpt lat="49.46855" lon="0.79666">
        <ele>2</ele>
        <time>2018-06-14T17:22:40Z</time>
      </trkpt>
      <trkpt lat="49.46867" lon="0.79645">
        <ele>2</ele>
        <time>2018-06-14T17:22:45Z</time>
      </trkpt>
      <trkpt lat="49.46902" lon="0.79586">
        <ele>4</ele>
        <time>2018-06-14T17:22:59Z</time>
      </trkpt>
      <trkpt lat="49.46912" lon="0.79569">
        <ele>4</ele>
        <time>2018-06-14T17:23:03Z</time>
      </trkpt>
      <trkpt lat="49.46923" lon="0.7955">
        <ele>4</ele>
        <time>2018-06-14T17:23:08Z</time>
      </trkpt>
      <trkpt lat="49.46956" lon="0.79497">
        <ele>4</ele>
        <time>2018-06-14T17:23:20Z</time>
      </trkpt>
      <trkpt lat="49.46968" lon="0.7948">
        <ele>4</ele>
        <time>2018-06-14T17:23:25Z</time>
      </trkpt>
      <trkpt lat="49.46982" lon="0.79462">
        <ele>4</ele>
        <time>2018-06-14T17:23:30Z</time>
      </trkpt>
      <trkpt lat="49.47" lon="0.7944">
        <ele>4</ele>
        <time>2018-06-14T17:23:36Z</time>
      </trkpt>
      <trkpt lat="49.47028" lon="0.79406">
        <ele>4</ele>
        <time>2018-06-14T17:23:45Z</time>
      </trkpt>
      <trkpt lat="49.47084" lon="0.79342">
        <ele>4</ele>
        <time>2018-06-14T17:24:04Z</time>
      </trkpt>
      <trkpt lat="49.47099" lon="0.79324">
        <ele>4</ele>
        <time>2018-06-14T17:24:09Z</time>
      </trkpt>
      <trkpt lat="49.47117" lon="0.79304">
        <ele>4</ele>
        <time>2018-06-14T17:24:15Z</time>
      </trkpt>
      <trkpt lat="49.47127" lon="0.79291">
        <ele>2</ele>
        <time>2018-06-14T17:24:18Z</time>
      </trkpt>
      <trkpt lat="49.47134" lon="0.79279">
        <ele>2</ele>
        <time>2018-06-14T17:24:21Z</time>
      </trkpt>
      <trkpt lat="49.47141" lon="0.79269">
        <ele>2</ele>
        <time>2018-06-14T17:24:24Z</time>
      </trkpt>
      <trkpt lat="49.47161" lon="0.79235">
        <ele>2</ele>
        <time>2018-06-14T17:24:32Z</time>
      </trkpt>
      <trkpt lat="49.47173" lon="0.79214">
        <ele>2</ele>
        <time>2018-06-14T17:24:37Z</time>
      </trkpt>
      <trkpt lat="49.47182" lon="0.79198">
        <ele>2</ele>
        <time>2018-06-14T17:24:40Z</time>
      </trkpt>
      <trkpt lat="49.47192" lon="0.79179">
        <ele>2</ele>
        <time>2018-06-14T17:24:44Z</time>
      </trkpt>
      <trkpt lat="49.47197" lon="0.79167">
        <ele>2</ele>
        <time>2018-06-14T17:24:47Z</time>
      </trkpt>
      <trkpt lat="49.472" lon="0.79159">
        <ele>2</ele>
        <time>2018-06-14T17:24:49Z</time>
      </trkpt>
      <trkpt lat="49.47203" lon="0.79148">
        <ele>2</ele>
        <time>2018-06-14T17:24:51Z</time>
      </trkpt>
      <trkpt lat="49.47205" lon="0.79138">
        <ele>2</ele>
        <time>2018-06-14T17:24:52Z</time>
      </trkpt>
      <trkpt lat="49.47206" lon="0.79124">
        <ele>2</ele>
        <time>2018-06-14T17:24:55Z</time>
      </trkpt>
      <trkpt lat="49.47208" lon="0.79105">
        <ele>2</ele>
        <time>2018-06-14T17:24:58Z</time>
      </trkpt>
      <trkpt lat="49.47212" lon="0.79046">
        <ele>2</ele>
        <time>2018-06-14T17:25:08Z</time>
      </trkpt>
      <trkpt lat="49.47215" lon="0.7902">
        <ele>2</ele>
        <time>2018-06-14T17:25:13Z</time>
      </trkpt>
      <trkpt lat="49.47218" lon="0.78994">
        <ele>2</ele>
        <time>2018-06-14T17:25:18Z</time>
      </trkpt>
      <trkpt lat="49.47223" lon="0.78966">
        <ele>2</ele>
        <time>2018-06-14T17:25:23Z</time>
      </trkpt>
      <trkpt lat="49.47228" lon="0.78942">
        <ele>2</ele>
        <time>2018-06-14T17:25:27Z</time>
      </trkpt>
      <trkpt lat="49.47233" lon="0.78924">
        <ele>2</ele>
        <time>2018-06-14T17:25:30Z</time>
      </trkpt>
      <trkpt lat="49.47239" lon="0.78907">
        <ele>2</ele>
        <time>2018-06-14T17:25:34Z</time>
      </trkpt>
      <trkpt lat="49.47247" lon="0.78889">
        <ele>2</ele>
        <time>2018-06-14T17:25:38Z</time>
      </trkpt>
      <trkpt lat="49.47257" lon="0.78872">
        <ele>2</ele>
        <time>2018-06-14T17:25:42Z</time>
      </trkpt>
      <trkpt lat="49.47276" lon="0.78847">
        <ele>3</ele>
        <time>2018-06-14T17:25:48Z</time>
      </trkpt>
      <trkpt lat="49.47349" lon="0.78763">
        <ele>3</ele>
        <time>2018-06-14T17:26:13Z</time>
      </trkpt>
      <trkpt lat="49.47372" lon="0.78736">
        <ele>3</ele>
        <time>2018-06-14T17:26:20Z</time>
      </trkpt>
      <trkpt lat="49.47381" lon="0.78724">
        <ele>3</ele>
        <time>2018-06-14T17:26:24Z</time>
      </trkpt>
      <trkpt lat="49.47388" lon="0.78714">
        <ele>3</ele>
        <time>2018-06-14T17:26:26Z</time>
      </trkpt>
      <trkpt lat="49.47395" lon="0.78704">
        <ele>3</ele>
        <time>2018-06-14T17:26:29Z</time>
      </trkpt>
      <trkpt lat="49.47403" lon="0.7869">
        <ele>2</ele>
        <time>2018-06-14T17:26:32Z</time>
      </trkpt>
      <trkpt lat="49.4749" lon="0.78528">
        <ele>2</ele>
        <time>2018-06-14T17:27:08Z</time>
      </trkpt>
      <trkpt lat="49.47501" lon="0.78505">
        <ele>2</ele>
        <time>2018-06-14T17:27:13Z</time>
      </trkpt>
      <trkpt lat="49.47512" lon="0.78481">
        <ele>4</ele>
        <time>2018-06-14T17:27:18Z</time>
      </trkpt>
      <trkpt lat="49.47522" lon="0.78458">
        <ele>4</ele>
        <time>2018-06-14T17:27:23Z</time>
      </trkpt>
      <trkpt lat="49.4753" lon="0.78436">
        <ele>4</ele>
        <time>2018-06-14T17:27:28Z</time>
      </trkpt>
      <trkpt lat="49.47538" lon="0.78413">
        <ele>4</ele>
        <time>2018-06-14T17:27:32Z</time>
      </trkpt>
      <trkpt lat="49.47561" lon="0.78318">
        <ele>4</ele>
        <time>2018-06-14T17:27:50Z</time>
      </trkpt>
      <trkpt lat="49.47584" lon="0.78233">
        <ele>3</ele>
        <time>2018-06-14T17:28:06Z</time>
      </trkpt>
      <trkpt lat="49.4761" lon="0.78152">
        <ele>3</ele>
        <time>2018-06-14T17:28:21Z</time>
      </trkpt>
      <trkpt lat="49.47632" lon="0.78086">
        <ele>3</ele>
        <time>2018-06-14T17:28:34Z</time>
      </trkpt>
      <trkpt lat="49.47652" lon="0.78029">
        <ele>4</ele>
        <time>2018-06-14T17:28:46Z</time>
      </trkpt>
      <trkpt lat="49.47675" lon="0.77966">
        <ele>4</ele>
        <time>2018-06-14T17:28:58Z</time>
      </trkpt>
      <trkpt lat="49.47689" lon="0.7793">
        <ele>4</ele>
        <time>2018-06-14T17:29:05Z</time>
      </trkpt>
      <trkpt lat="49.477" lon="0.77904">
        <ele>4</ele>
        <time>2018-06-14T17:29:11Z</time>
      </trkpt>
      <trkpt lat="49.47709" lon="0.77885">
        <ele>4</ele>
        <time>2018-06-14T17:29:15Z</time>
      </trkpt>
      <trkpt lat="49.4771" lon="0.77884">
        <ele>4</ele>
        <time>2018-06-14T17:29:15Z</time>
      </trkpt>
      <trkpt lat="49.47739" lon="0.77845">
        <ele>4</ele>
        <time>2018-06-14T17:29:25Z</time>
      </trkpt>
      <trkpt lat="49.47758" lon="0.77809">
        <ele>4</ele>
        <time>2018-06-14T17:29:33Z</time>
      </trkpt>
      <trkpt lat="49.47769" lon="0.77788">
        <ele>4</ele>
        <time>2018-06-14T17:29:38Z</time>
      </trkpt>
      <trkpt lat="49.47777" lon="0.77769">
        <ele>4</ele>
        <time>2018-06-14T17:29:42Z</time>
      </trkpt>
      <trkpt lat="49.4778" lon="0.77759">
        <ele>4</ele>
        <time>2018-06-14T17:29:44Z</time>
      </trkpt>
      <trkpt lat="49.47782" lon="0.77748">
        <ele>4</ele>
        <time>2018-06-14T17:29:46Z</time>
      </trkpt>
      <trkpt lat="49.47788" lon="0.77751">
        <ele>4</ele>
        <time>2018-06-14T17:29:48Z</time>
      </trkpt>
      <trkpt lat="49.47793" lon="0.77755">
        <ele>4</ele>
        <time>2018-06-14T17:29:49Z</time>
      </trkpt>
      <trkpt lat="49.47796" lon="0.77761">
        <ele>4</ele>
        <time>2018-06-14T17:29:51Z</time>
      </trkpt>
      <trkpt lat="49.47813" lon="0.77802">
        <ele>4</ele>
        <time>2018-06-14T17:29:59Z</time>
      </trkpt>
      <trkpt lat="49.4784" lon="0.77847">
        <ele>4</ele>
        <time>2018-06-14T17:30:10Z</time>
      </trkpt>
      <trkpt lat="49.47879" lon="0.77919">
        <ele>4</ele>
        <time>2018-06-14T17:30:26Z</time>
      </trkpt>
      <trkpt lat="49.47918" lon="0.77857">
        <ele>4</ele>
        <time>2018-06-14T17:30:41Z</time>
      </trkpt>
      <trkpt lat="49.4796" lon="0.7779">
        <ele>5</ele>
        <time>2018-06-14T17:30:57Z</time>
      </trkpt>
      <trkpt lat="49.47973" lon="0.7777">
        <ele>5</ele>
        <time>2018-06-14T17:31:02Z</time>
      </trkpt>
      <trkpt lat="49.48023" lon="0.77701">
        <ele>5</ele>
        <time>2018-06-14T17:31:20Z</time>
      </trkpt>
      <trkpt lat="49.48086" lon="0.77623">
        <ele>1</ele>
        <time>2018-06-14T17:31:41Z</time>
      </trkpt>
      <trkpt lat="49.4818" lon="0.7752">
        <ele>1</ele>
        <time>2018-06-14T17:32:12Z</time>
      </trkpt>
      <trkpt lat="49.48257" lon="0.77452">
        <ele>8</ele>
        <time>2018-06-14T17:32:36Z</time>
      </trkpt>
      <trkpt lat="49.48265" lon="0.77439">
        <ele>8</ele>
        <time>2018-06-14T17:32:39Z</time>
      </trkpt>
      <trkpt lat="49.48269" lon="0.77422">
        <ele>8</ele>
        <time>2018-06-14T17:32:42Z</time>
      </trkpt>
      <trkpt lat="49.48278" lon="0.77392">
        <ele>8</ele>
        <time>2018-06-14T17:32:48Z</time>
      </trkpt>
      <trkpt lat="49.4828" lon="0.7736">
        <ele>8</ele>
        <time>2018-06-14T17:32:54Z</time>
      </trkpt>
      <trkpt lat="49.48277" lon="0.77306">
        <ele>8</ele>
        <time>2018-06-14T17:33:03Z</time>
      </trkpt>
      <trkpt lat="49.48269" lon="0.77275">
        <ele>16</ele>
        <time>2018-06-14T17:33:09Z</time>
      </trkpt>
      <trkpt lat="49.48258" lon="0.77238">
        <ele>16</ele>
        <time>2018-06-14T17:33:16Z</time>
      </trkpt>
      <trkpt lat="49.48245" lon="0.77191">
        <ele>16</ele>
        <time>2018-06-14T17:33:25Z</time>
      </trkpt>
      <trkpt lat="49.48244" lon="0.77152">
        <ele>16</ele>
        <time>2018-06-14T17:33:31Z</time>
      </trkpt>
      <trkpt lat="49.48249" lon="0.77127">
        <ele>16</ele>
        <time>2018-06-14T17:33:36Z</time>
      </trkpt>
      <trkpt lat="49.48253" lon="0.771">
        <ele>16</ele>
        <time>2018-06-14T17:33:41Z</time>
      </trkpt>
      <trkpt lat="49.48308" lon="0.76913">
        <ele>19</ele>
        <time>2018-06-14T17:34:16Z</time>
      </trkpt>
      <trkpt lat="49.48368" lon="0.76704">
        <ele>13</ele>
        <time>2018-06-14T17:34:56Z</time>
      </trkpt>
      <trkpt lat="49.48365" lon="0.76573">
        <ele>13</ele>
        <time>2018-06-14T17:35:19Z</time>
      </trkpt>
      <trkpt lat="49.48369" lon="0.76508">
        <ele>19</ele>
        <time>2018-06-14T17:35:30Z</time>
      </trkpt>
      <trkpt lat="49.48375" lon="0.76438">
        <ele>19</ele>
        <time>2018-06-14T17:35:42Z</time>
      </trkpt>
      <trkpt lat="49.48379" lon="0.76238">
        <ele>11</ele>
        <time>2018-06-14T17:36:17Z</time>
      </trkpt>
      <trkpt lat="49.48391" lon="0.76183">
        <ele>11</ele>
        <time>2018-06-14T17:36:27Z</time>
      </trkpt>
      <trkpt lat="49.4848" lon="0.7596">
        <ele>8</ele>
        <time>2018-06-14T17:37:13Z</time>
      </trkpt>
      <trkpt lat="49.48537" lon="0.75861">
        <ele>8</ele>
        <time>2018-06-14T17:37:36Z</time>
      </trkpt>
      <trkpt lat="49.48563" lon="0.75823">
        <ele>11</ele>
        <time>2018-06-14T17:37:45Z</time>
      </trkpt>
      <trkpt lat="49.48601" lon="0.75792">
        <ele>11</ele>
        <time>2018-06-14T17:37:57Z</time>
      </trkpt>
      <trkpt lat="49.48607" lon="0.75782">
        <ele>11</ele>
        <time>2018-06-14T17:37:59Z</time>
      </trkpt>
      <trkpt lat="49.48612" lon="0.75751">
        <ele>11</ele>
        <time>2018-06-14T17:38:05Z</time>
      </trkpt>
      <trkpt lat="49.48611" lon="0.75646">
        <ele>15</ele>
        <time>2018-06-14T17:38:23Z</time>
      </trkpt>
      <trkpt lat="49.48608" lon="0.75612">
        <ele>15</ele>
        <time>2018-06-14T17:38:29Z</time>
      </trkpt>
      <trkpt lat="49.48557" lon="0.75543">
        <ele>15</ele>
        <time>2018-06-14T17:38:47Z</time>
      </trkpt>
      <trkpt lat="49.48533" lon="0.75503">
        <ele>15</ele>
        <time>2018-06-14T17:38:56Z</time>
      </trkpt>
      <trkpt lat="49.4852" lon="0.75481">
        <ele>19</ele>
        <time>2018-06-14T17:39:02Z</time>
      </trkpt>
      <trkpt lat="49.48507" lon="0.75457">
        <ele>19</ele>
        <time>2018-06-14T17:39:07Z</time>
      </trkpt>
      <trkpt lat="49.48475" lon="0.75414">
        <ele>19</ele>
        <time>2018-06-14T17:39:18Z</time>
      </trkpt>
      <trkpt lat="49.48435" lon="0.75374">
        <ele>19</ele>
        <time>2018-06-14T17:39:31Z</time>
      </trkpt>
      <trkpt lat="49.48418" lon="0.75351">
        <ele>19</ele>
        <time>2018-06-14T17:39:37Z</time>
      </trkpt>
      <trkpt lat="49.48457" lon="0.75267">
        <ele>23</ele>
        <time>2018-06-14T17:39:55Z</time>
      </trkpt>
      <trkpt lat="49.48498" lon="0.75182">
        <ele>23</ele>
        <time>2018-06-14T17:40:13Z</time>
      </trkpt>
      <trkpt lat="49.48499" lon="0.75173">
        <ele>23</ele>
        <time>2018-06-14T17:40:15Z</time>
      </trkpt>
      <trkpt lat="49.48497" lon="0.75167">
        <ele>23</ele>
        <time>2018-06-14T17:40:16Z</time>
      </trkpt>
      <trkpt lat="49.48467" lon="0.75126">
        <ele>26</ele>
        <time>2018-06-14T17:40:27Z</time>
      </trkpt>
      <trkpt lat="49.48457" lon="0.75108">
        <ele>26</ele>
        <time>2018-06-14T17:40:31Z</time>
      </trkpt>
      <trkpt lat="49.48439" lon="0.75069">
        <ele>26</ele>
        <time>2018-06-14T17:40:39Z</time>
      </trkpt>
      <trkpt lat="49.48431" lon="0.75054">
        <ele>26</ele>
        <time>2018-06-14T17:40:43Z</time>
      </trkpt>
      <trkpt lat="49.48428" lon="0.75044">
        <ele>26</ele>
        <time>2018-06-14T17:40:45Z</time>
      </trkpt>
      <trkpt lat="49.48428" lon="0.75037">
        <ele>26</ele>
        <time>2018-06-14T17:40:46Z</time>
      </trkpt>
      <trkpt lat="49.48436" lon="0.75021">
        <ele>26</ele>
        <time>2018-06-14T17:40:49Z</time>
      </trkpt>
      <trkpt lat="49.48466" lon="0.74987">
        <ele>26</ele>
        <time>2018-06-14T17:40:59Z</time>
      </trkpt>
      <trkpt lat="49.48481" lon="0.74959">
        <ele>26</ele>
        <time>2018-06-14T17:41:06Z</time>
      </trkpt>
      <trkpt lat="49.48516" lon="0.74903">
        <ele>30</ele>
        <time>2018-06-14T17:41:19Z</time>
      </trkpt>
      <trkpt lat="49.48552" lon="0.74843">
        <ele>30</ele>
        <time>2018-06-14T17:41:33Z</time>
      </trkpt>
      <trkpt lat="49.4856" lon="0.74842">
        <ele>30</ele>
        <time>2018-06-14T17:41:35Z</time>
      </trkpt>
      <trkpt lat="49.48601" lon="0.74815">
        <ele>30</ele>
        <time>2018-06-14T17:41:47Z</time>
      </trkpt>
      <trkpt lat="49.48621" lon="0.74799">
        <ele>19</ele>
        <time>2018-06-14T17:41:53Z</time>
      </trkpt>
      <trkpt lat="49.48634" lon="0.74794">
        <ele>19</ele>
        <time>2018-06-14T17:41:57Z</time>
      </trkpt>
      <trkpt lat="49.48667" lon="0.74801">
        <ele>19</ele>
        <time>2018-06-14T17:42:06Z</time>
      </trkpt>
      <trkpt lat="49.48734" lon="0.74816">
        <ele>19</ele>
        <time>2018-06-14T17:42:24Z</time>
      </trkpt>
      <trkpt lat="49.48754" lon="0.74826">
        <ele>19</ele>
        <time>2018-06-14T17:42:29Z</time>
      </trkpt>
      <trkpt lat="49.48774" lon="0.7485">
        <ele>15</ele>
        <time>2018-06-14T17:42:36Z</time>
      </trkpt>
      <trkpt lat="49.48836" lon="0.74919">
        <ele>15</ele>
        <time>2018-06-14T17:42:57Z</time>
      </trkpt>
      <trkpt lat="49.48959" lon="0.75086">
        <ele>13</ele>
        <time>2018-06-14T17:43:41Z</time>
      </trkpt>
      <trkpt lat="49.49004" lon="0.7514">
        <ele>13</ele>
        <time>2018-06-14T17:43:56Z</time>
      </trkpt>
      <trkpt lat="49.49085" lon="0.7505">
        <ele>19</ele>
        <time>2018-06-14T17:44:22Z</time>
      </trkpt>
      <trkpt lat="49.49112" lon="0.75016">
        <ele>19</ele>
        <time>2018-06-14T17:44:32Z</time>
      </trkpt>
      <trkpt lat="49.49181" lon="0.74954">
        <ele>19</ele>
        <time>2018-06-14T17:44:53Z</time>
      </trkpt>
      <trkpt lat="49.492" lon="0.74935">
        <ele>19</ele>
        <time>2018-06-14T17:44:59Z</time>
      </trkpt>
      <trkpt lat="49.49221" lon="0.74915">
        <ele>19</ele>
        <time>2018-06-14T17:45:06Z</time>
      </trkpt>
      <trkpt lat="49.49252" lon="0.74871">
        <ele>19</ele>
        <time>2018-06-14T17:45:17Z</time>
      </trkpt>
      <trkpt lat="49.49277" lon="0.74819">
        <ele>19</ele>
        <time>2018-06-14T17:45:28Z</time>
      </trkpt>
      <trkpt lat="49.49478" lon="0.74361">
        <ele>17</ele>
        <time>2018-06-14T17:47:04Z</time>
      </trkpt>
      <trkpt lat="49.49491" lon="0.74333">
        <ele>17</ele>
        <time>2018-06-14T17:47:10Z</time>
      </trkpt>
      <trkpt lat="49.49502" lon="0.74305">
        <ele>17</ele>
        <time>2018-06-14T17:47:16Z</time>
      </trkpt>
      <trkpt lat="49.49542" lon="0.74209">
        <ele>17</ele>
        <time>2018-06-14T17:47:36Z</time>
      </trkpt>
      <trkpt lat="49.49608" lon="0.74095">
        <ele>16</ele>
        <time>2018-06-14T17:48:02Z</time>
      </trkpt>
      <trkpt lat="49.49611" lon="0.7409">
        <ele>16</ele>
        <time>2018-06-14T17:48:03Z</time>
      </trkpt>
      <trkpt lat="49.497" lon="0.73932">
        <ele>16</ele>
        <time>2018-06-14T17:48:40Z</time>
      </trkpt>
      <trkpt lat="49.49723" lon="0.73891">
        <ele>16</ele>
        <time>2018-06-14T17:48:49Z</time>
      </trkpt>
      <trkpt lat="49.49756" lon="0.73807">
        <ele>16</ele>
        <time>2018-06-14T17:49:06Z</time>
      </trkpt>
      <trkpt lat="49.49764" lon="0.73788">
        <ele>16</ele>
        <time>2018-06-14T17:49:10Z</time>
      </trkpt>
      <trkpt lat="49.49787" lon="0.73726">
        <ele>15</ele>
        <time>2018-06-14T17:49:22Z</time>
      </trkpt>
      <trkpt lat="49.49904" lon="0.73514">
        <ele>14</ele>
        <time>2018-06-14T17:50:11Z</time>
      </trkpt>
      <trkpt lat="49.50056" lon="0.73621">
        <ele>14</ele>
        <time>2018-06-14T17:50:55Z</time>
      </trkpt>
      <trkpt lat="49.5016" lon="0.73734">
        <ele>14</ele>
        <time>2018-06-14T17:51:29Z</time>
      </trkpt>
      <trkpt lat="49.50267" lon="0.73868">
        <ele>14</ele>
        <time>2018-06-14T17:52:06Z</time>
      </trkpt>
      <trkpt lat="49.50284" lon="0.73891">
        <ele>14</ele>
        <time>2018-06-14T17:52:12Z</time>
      </trkpt>
      <trkpt lat="49.50403" lon="0.7409">
        <ele>12</ele>
        <time>2018-06-14T17:52:59Z</time>
      </trkpt>
      <trkpt lat="49.50414" lon="0.74105">
        <ele>8</ele>
        <time>2018-06-14T17:53:03Z</time>
      </trkpt>
      <trkpt lat="49.50426" lon="0.7411">
        <ele>8</ele>
        <time>2018-06-14T17:53:06Z</time>
      </trkpt>
      <trkpt lat="49.5052" lon="0.7408">
        <ele>8</ele>
        <time>2018-06-14T17:53:32Z</time>
      </trkpt>
      <trkpt lat="49.50516" lon="0.74096">
        <ele>8</ele>
        <time>2018-06-14T17:53:35Z</time>
      </trkpt>
      <trkpt lat="49.50508" lon="0.74117">
        <ele>8</ele>
        <time>2018-06-14T17:53:39Z</time>
      </trkpt>
      <trkpt lat="49.50527" lon="0.74111">
        <ele>8</ele>
        <time>2018-06-14T17:53:44Z</time>
      </trkpt>
      <trkpt lat="49.50547" lon="0.74105">
        <ele>4</ele>
        <time>2018-06-14T17:53:50Z</time>
      </trkpt>
      <trkpt lat="49.5059" lon="0.74094">
        <ele>4</ele>
        <time>2018-06-14T17:54:01Z</time>
      </trkpt>
      <trkpt lat="49.50632" lon="0.74086">
        <ele>4</ele>
        <time>2018-06-14T17:54:13Z</time>
      </trkpt>
      <trkpt lat="49.50664" lon="0.7408">
        <ele>4</ele>
        <time>2018-06-14T17:54:21Z</time>
      </trkpt>
      <trkpt lat="49.50693" lon="0.74076">
        <ele>4</ele>
        <time>2018-06-14T17:54:29Z</time>
      </trkpt>
      <trkpt lat="49.5073" lon="0.74072">
        <ele>6</ele>
        <time>2018-06-14T17:54:39Z</time>
      </trkpt>
      <trkpt lat="49.50766" lon="0.7407">
        <ele>6</ele>
        <time>2018-06-14T17:54:49Z</time>
      </trkpt>
      <trkpt lat="49.50805" lon="0.7407">
        <ele>6</ele>
        <time>2018-06-14T17:54:59Z</time>
      </trkpt>
      <trkpt lat="49.50849" lon="0.74071">
        <ele>6</ele>
        <time>2018-06-14T17:55:11Z</time>
      </trkpt>
      <trkpt lat="49.50904" lon="0.74075">
        <ele>4</ele>
        <time>2018-06-14T17:55:26Z</time>
      </trkpt>
      <trkpt lat="49.50938" lon="0.74078">
        <ele>4</ele>
        <time>2018-06-14T17:55:35Z</time>
      </trkpt>
      <trkpt lat="49.51018" lon="0.74093">
        <ele>4</ele>
        <time>2018-06-14T17:55:56Z</time>
      </trkpt>
      <trkpt lat="49.51036" lon="0.74097">
        <ele>5</ele>
        <time>2018-06-14T17:56:01Z</time>
      </trkpt>
      <trkpt lat="49.51043" lon="0.74101">
        <ele>5</ele>
        <time>2018-06-14T17:56:03Z</time>
      </trkpt>
      <trkpt lat="49.51051" lon="0.74105">
        <ele>5</ele>
        <time>2018-06-14T17:56:05Z</time>
      </trkpt>
      <trkpt lat="49.51057" lon="0.74111">
        <ele>5</ele>
        <time>2018-06-14T17:56:07Z</time>
      </trkpt>
      <trkpt lat="49.51059" lon="0.74115">
        <ele>5</ele>
        <time>2018-06-14T17:56:08Z</time>
      </trkpt>
      <trkpt lat="49.51061" lon="0.74119">
        <ele>5</ele>
        <time>2018-06-14T17:56:09Z</time>
      </trkpt>
      <trkpt lat="49.51063" lon="0.74122">
        <ele>5</ele>
        <time>2018-06-14T17:56:10Z</time>
      </trkpt>
      <trkpt lat="49.51066" lon="0.74124">
        <ele>5</ele>
        <time>2018-06-14T17:56:11Z</time>
      </trkpt>
      <trkpt lat="49.51069" lon="0.74125">
        <ele>5</ele>
        <time>2018-06-14T17:56:11Z</time>
      </trkpt>
      <trkpt lat="49.51069" lon="0.74125">
        <ele>5</ele>
        <time>2018-06-14T17:56:11Z</time>
      </trkpt>
      <trkpt lat="49.51073" lon="0.74124">
        <ele>5</ele>
        <time>2018-06-14T17:56:13Z</time>
      </trkpt>
      <trkpt lat="49.51076" lon="0.74122">
        <ele>5</ele>
        <time>2018-06-14T17:56:13Z</time>
      </trkpt>
      <trkpt lat="49.51078" lon="0.74119">
        <ele>5</ele>
        <time>2018-06-14T17:56:14Z</time>
      </trkpt>
      <trkpt lat="49.5108" lon="0.74115">
        <ele>5</ele>
        <time>2018-06-14T17:56:15Z</time>
      </trkpt>
      <trkpt lat="49.51086" lon="0.74116">
        <ele>5</ele>
        <time>2018-06-14T17:56:17Z</time>
      </trkpt>
      <trkpt lat="49.51091" lon="0.74117">
        <ele>5</ele>
        <time>2018-06-14T17:56:18Z</time>
      </trkpt>
      <trkpt lat="49.51098" lon="0.74119">
        <ele>5</ele>
        <time>2018-06-14T17:56:20Z</time>
      </trkpt>
      <trkpt lat="49.51119" lon="0.74128">
        <ele>5</ele>
        <time>2018-06-14T17:56:26Z</time>
      </trkpt>
      <trkpt lat="49.51174" lon="0.74151">
        <ele>5</ele>
        <time>2018-06-14T17:56:41Z</time>
      </trkpt>
      <trkpt lat="49.51212" lon="0.74169">
        <ele>3</ele>
        <time>2018-06-14T17:56:52Z</time>
      </trkpt>
      <trkpt lat="49.51237" lon="0.74182">
        <ele>3</ele>
        <time>2018-06-14T17:56:59Z</time>
      </trkpt>
      <trkpt lat="49.5126" lon="0.74194">
        <ele>3</ele>
        <time>2018-06-14T17:57:05Z</time>
      </trkpt>
      <trkpt lat="49.5131" lon="0.74225">
        <ele>3</ele>
        <time>2018-06-14T17:57:19Z</time>
      </trkpt>
      <trkpt lat="49.51347" lon="0.7425">
        <ele>3</ele>
        <time>2018-06-14T17:57:30Z</time>
      </trkpt>
      <trkpt lat="49.51387" lon="0.74276">
        <ele>3</ele>
        <time>2018-06-14T17:57:42Z</time>
      </trkpt>
      <trkpt lat="49.51925" lon="0.74637">
        <ele>4.2</ele>
        <time>2018-06-14T18:00:19Z</time>
      </trkpt>
      <trkpt lat="49.5219" lon="0.74813">
        <ele>39</ele>
        <time>2018-06-14T18:01:36Z</time>
      </trkpt>
      <trkpt lat="49.52409" lon="0.74951">
        <ele>47</ele>
        <time>2018-06-14T18:02:39Z</time>
      </trkpt>
      <trkpt lat="49.52446" lon="0.74974">
        <ele>42</ele>
        <time>2018-06-14T18:02:50Z</time>
      </trkpt>
      <trkpt lat="49.52495" lon="0.75006">
        <ele>42</ele>
        <time>2018-06-14T18:03:04Z</time>
      </trkpt>
      <trkpt lat="49.52498" lon="0.75023">
        <ele>42</ele>
        <time>2018-06-14T18:03:07Z</time>
      </trkpt>
      <trkpt lat="49.52509" lon="0.75034">
        <ele>42</ele>
        <time>2018-06-14T18:03:10Z</time>
      </trkpt>
      <trkpt lat="49.52532" lon="0.7505">
        <ele>42</ele>
        <time>2018-06-14T18:03:17Z</time>
      </trkpt>
      <trkpt lat="49.52543" lon="0.75061">
        <ele>42</ele>
        <time>2018-06-14T18:03:21Z</time>
      </trkpt>
      <trkpt lat="49.52554" lon="0.75074">
        <ele>42</ele>
        <time>2018-06-14T18:03:24Z</time>
      </trkpt>
      <trkpt lat="49.52566" lon="0.7509">
        <ele>42</ele>
        <time>2018-06-14T18:03:29Z</time>
      </trkpt>
      <trkpt lat="49.52575" lon="0.751">
        <ele>42</ele>
        <time>2018-06-14T18:03:32Z</time>
      </trkpt>
      <trkpt lat="49.52581" lon="0.75103">
        <ele>19</ele>
        <time>2018-06-14T18:03:33Z</time>
      </trkpt>
      <trkpt lat="49.52585" lon="0.75102">
        <ele>19</ele>
        <time>2018-06-14T18:03:34Z</time>
      </trkpt>
      <trkpt lat="49.52586" lon="0.75108">
        <ele>19</ele>
        <time>2018-06-14T18:03:35Z</time>
      </trkpt>
      <trkpt lat="49.52587" lon="0.75115">
        <ele>19</ele>
        <time>2018-06-14T18:03:37Z</time>
      </trkpt>
      <trkpt lat="49.5259" lon="0.7512">
        <ele>19</ele>
        <time>2018-06-14T18:03:38Z</time>
      </trkpt>
      <trkpt lat="49.52594" lon="0.75124">
        <ele>19</ele>
        <time>2018-06-14T18:03:39Z</time>
      </trkpt>
      <trkpt lat="49.52598" lon="0.75128">
        <ele>19</ele>
        <time>2018-06-14T18:03:40Z</time>
      </trkpt>
      <trkpt lat="49.5262" lon="0.75144">
        <ele>19</ele>
        <time>2018-06-14T18:03:47Z</time>
      </trkpt>
      <trkpt lat="49.52646" lon="0.75163">
        <ele>19</ele>
        <time>2018-06-14T18:03:55Z</time>
      </trkpt>
      <trkpt lat="49.52664" lon="0.75175">
        <ele>19</ele>
        <time>2018-06-14T18:04:00Z</time>
      </trkpt>
      <trkpt lat="49.52683" lon="0.75188">
        <ele>19</ele>
        <time>2018-06-14T18:04:05Z</time>
      </trkpt>
      <trkpt lat="49.52726" lon="0.75217">
        <ele>32</ele>
        <time>2018-06-14T18:04:18Z</time>
      </trkpt>
      <trkpt lat="49.52758" lon="0.75239">
        <ele>32</ele>
        <time>2018-06-14T18:04:27Z</time>
      </trkpt>
      <trkpt lat="49.5277" lon="0.75247">
        <ele>32</ele>
        <time>2018-06-14T18:04:31Z</time>
      </trkpt>
      <trkpt lat="49.52787" lon="0.75259">
        <ele>32</ele>
        <time>2018-06-14T18:04:36Z</time>
      </trkpt>
      <trkpt lat="49.5282" lon="0.75281">
        <ele>32</ele>
        <time>2018-06-14T18:04:45Z</time>
      </trkpt>
      <trkpt lat="49.52843" lon="0.75298">
        <ele>32</ele>
        <time>2018-06-14T18:04:52Z</time>
      </trkpt>
      <trkpt lat="49.52861" lon="0.75313">
        <ele>32</ele>
        <time>2018-06-14T18:04:58Z</time>
      </trkpt>
      <trkpt lat="49.52885" lon="0.75334">
        <ele>19</ele>
        <time>2018-06-14T18:05:05Z</time>
      </trkpt>
      <trkpt lat="49.52925" lon="0.75367">
        <ele>19</ele>
        <time>2018-06-14T18:05:17Z</time>
      </trkpt>
      <trkpt lat="49.52951" lon="0.7539">
        <ele>19</ele>
        <time>2018-06-14T18:05:25Z</time>
      </trkpt>
      <trkpt lat="49.52963" lon="0.75402">
        <ele>19</ele>
        <time>2018-06-14T18:05:29Z</time>
      </trkpt>
      <trkpt lat="49.52967" lon="0.75408">
        <ele>19</ele>
        <time>2018-06-14T18:05:30Z</time>
      </trkpt>
      <trkpt lat="49.52969" lon="0.75415">
        <ele>19</ele>
        <time>2018-06-14T18:05:32Z</time>
      </trkpt>
      <trkpt lat="49.52969" lon="0.75425">
        <ele>19</ele>
        <time>2018-06-14T18:05:34Z</time>
      </trkpt>
      <trkpt lat="49.52969" lon="0.75432">
        <ele>19</ele>
        <time>2018-06-14T18:05:35Z</time>
      </trkpt>
      <trkpt lat="49.52967" lon="0.75438">
        <ele>19</ele>
        <time>2018-06-14T18:05:36Z</time>
      </trkpt>
      <trkpt lat="49.52963" lon="0.75442">
        <ele>19</ele>
        <time>2018-06-14T18:05:37Z</time>
      </trkpt>
      <trkpt lat="49.52959" lon="0.75444">
        <ele>19</ele>
        <time>2018-06-14T18:05:38Z</time>
      </trkpt>
      <trkpt lat="49.52953" lon="0.75445">
        <ele>19</ele>
        <time>2018-06-14T18:05:40Z</time>
      </trkpt>
      <trkpt lat="49.52948" lon="0.75443">
        <ele>19</ele>
        <time>2018-06-14T18:05:41Z</time>
      </trkpt>
      <trkpt lat="49.52925" lon="0.75426">
        <ele>7</ele>
        <time>2018-06-14T18:05:48Z</time>
      </trkpt>
      <trkpt lat="49.5288" lon="0.75388">
        <ele>7</ele>
        <time>2018-06-14T18:06:02Z</time>
      </trkpt>
      <trkpt lat="49.52856" lon="0.75369">
        <ele>7</ele>
        <time>2018-06-14T18:06:09Z</time>
      </trkpt>
      <trkpt lat="49.52844" lon="0.75359">
        <ele>7</ele>
        <time>2018-06-14T18:06:13Z</time>
      </trkpt>
      <trkpt lat="49.52835" lon="0.75353">
        <ele>7</ele>
        <time>2018-06-14T18:06:15Z</time>
      </trkpt>
      <trkpt lat="49.52826" lon="0.75348">
        <ele>7</ele>
        <time>2018-06-14T18:06:18Z</time>
      </trkpt>
      <trkpt lat="49.52817" lon="0.75345">
        <ele>7</ele>
        <time>2018-06-14T18:06:20Z</time>
      </trkpt>
      <trkpt lat="49.52809" lon="0.75342">
        <ele>7</ele>
        <time>2018-06-14T18:06:23Z</time>
      </trkpt>
      <trkpt lat="49.5277" lon="0.75334">
        <ele>14</ele>
        <time>2018-06-14T18:06:33Z</time>
      </trkpt>
      <trkpt lat="49.52735" lon="0.75327">
        <ele>14</ele>
        <time>2018-06-14T18:06:42Z</time>
      </trkpt>
      <trkpt lat="49.52712" lon="0.75321">
        <ele>14</ele>
        <time>2018-06-14T18:06:49Z</time>
      </trkpt>
      <trkpt lat="49.52688" lon="0.75314">
        <ele>14</ele>
        <time>2018-06-14T18:06:55Z</time>
      </trkpt>
      <trkpt lat="49.52631" lon="0.75295">
        <ele>14</ele>
        <time>2018-06-14T18:07:11Z</time>
      </trkpt>
      <trkpt lat="49.52606" lon="0.75286">
        <ele>14</ele>
        <time>2018-06-14T18:07:18Z</time>
      </trkpt>
      <trkpt lat="49.52591" lon="0.7528">
        <ele>14</ele>
        <time>2018-06-14T18:07:22Z</time>
      </trkpt>
      <trkpt lat="49.52578" lon="0.75272">
        <ele>14</ele>
        <time>2018-06-14T18:07:26Z</time>
      </trkpt>
      <trkpt lat="49.52563" lon="0.75262">
        <ele>14</ele>
        <time>2018-06-14T18:07:30Z</time>
      </trkpt>
      <trkpt lat="49.52551" lon="0.75251">
        <ele>14</ele>
        <time>2018-06-14T18:07:34Z</time>
      </trkpt>
      <trkpt lat="49.52537" lon="0.75237">
        <ele>14</ele>
        <time>2018-06-14T18:07:38Z</time>
      </trkpt>
      <trkpt lat="49.52518" lon="0.75215">
        <ele>14</ele>
        <time>2018-06-14T18:07:44Z</time>
      </trkpt>
      <trkpt lat="49.52479" lon="0.7517">
        <ele>14</ele>
        <time>2018-06-14T18:07:57Z</time>
      </trkpt>
      <trkpt lat="49.52422" lon="0.75102">
        <ele>13</ele>
        <time>2018-06-14T18:08:17Z</time>
      </trkpt>
      <trkpt lat="49.52387" lon="0.7506">
        <ele>13</ele>
        <time>2018-06-14T18:08:29Z</time>
      </trkpt>
      <trkpt lat="49.52381" lon="0.75051">
        <ele>13</ele>
        <time>2018-06-14T18:08:31Z</time>
      </trkpt>
      <trkpt lat="49.52378" lon="0.75046">
        <ele>13</ele>
        <time>2018-06-14T18:08:32Z</time>
      </trkpt>
      <trkpt lat="49.52371" lon="0.75025">
        <ele>13</ele>
        <time>2018-06-14T18:08:36Z</time>
      </trkpt>
      <trkpt lat="49.52363" lon="0.75003">
        <ele>13</ele>
        <time>2018-06-14T18:08:40Z</time>
      </trkpt>
      <trkpt lat="49.52358" lon="0.74989">
        <ele>13</ele>
        <time>2018-06-14T18:08:43Z</time>
      </trkpt>
      <trkpt lat="49.52355" lon="0.74977">
        <ele>11</ele>
        <time>2018-06-14T18:08:46Z</time>
      </trkpt>
      <trkpt lat="49.52351" lon="0.7497">
        <ele>11</ele>
        <time>2018-06-14T18:08:47Z</time>
      </trkpt>
      <trkpt lat="49.52348" lon="0.74965">
        <ele>11</ele>
        <time>2018-06-14T18:08:48Z</time>
      </trkpt>
      <trkpt lat="49.52345" lon="0.74959">
        <ele>11</ele>
        <time>2018-06-14T18:08:50Z</time>
      </trkpt>
      <trkpt lat="49.52345" lon="0.74954">
        <ele>11</ele>
        <time>2018-06-14T18:08:50Z</time>
      </trkpt>
      <trkpt lat="49.52344" lon="0.7495">
        <ele>11</ele>
        <time>2018-06-14T18:08:51Z</time>
      </trkpt>
      <trkpt lat="49.52343" lon="0.74946">
        <ele>11</ele>
        <time>2018-06-14T18:08:52Z</time>
      </trkpt>
      <trkpt lat="49.52341" lon="0.74942">
        <ele>11</ele>
        <time>2018-06-14T18:08:53Z</time>
      </trkpt>
      <trkpt lat="49.52339" lon="0.74939">
        <ele>11</ele>
        <time>2018-06-14T18:08:54Z</time>
      </trkpt>
      <trkpt lat="49.52336" lon="0.74931">
        <ele>11</ele>
        <time>2018-06-14T18:08:55Z</time>
      </trkpt>
      <trkpt lat="49.52335" lon="0.74924">
        <ele>11</ele>
        <time>2018-06-14T18:08:56Z</time>
      </trkpt>
      <trkpt lat="49.52334" lon="0.74915">
        <ele>11</ele>
        <time>2018-06-14T18:08:58Z</time>
      </trkpt>
      <trkpt lat="49.52334" lon="0.74901">
        <ele>11</ele>
        <time>2018-06-14T18:09:00Z</time>
      </trkpt>
      <trkpt lat="49.52336" lon="0.74878">
        <ele>11</ele>
        <time>2018-06-14T18:09:04Z</time>
      </trkpt>
      <trkpt lat="49.52337" lon="0.74855">
        <ele>11</ele>
        <time>2018-06-14T18:09:08Z</time>
      </trkpt>
      <trkpt lat="49.52341" lon="0.74772">
        <ele>11</ele>
        <time>2018-06-14T18:09:23Z</time>
      </trkpt>
      <trkpt lat="49.52346" lon="0.74673">
        <ele>8</ele>
        <time>2018-06-14T18:09:40Z</time>
      </trkpt>
      <trkpt lat="49.52348" lon="0.74625">
        <ele>8</ele>
        <time>2018-06-14T18:09:48Z</time>
      </trkpt>
      <trkpt lat="49.52349" lon="0.74603">
        <ele>8</ele>
        <time>2018-06-14T18:09:52Z</time>
      </trkpt>
      <trkpt lat="49.52349" lon="0.74552">
        <ele>8</ele>
        <time>2018-06-14T18:10:01Z</time>
      </trkpt>
      <trkpt lat="49.5236" lon="0.74351">
        <ele>6</ele>
        <time>2018-06-14T18:10:36Z</time>
      </trkpt>
      <trkpt lat="49.52362" lon="0.74306">
        <ele>6</ele>
        <time>2018-06-14T18:10:44Z</time>
      </trkpt>
      <trkpt lat="49.52365" lon="0.74251">
        <ele>6</ele>
        <time>2018-06-14T18:10:54Z</time>
      </trkpt>
      <trkpt lat="49.52368" lon="0.742">
        <ele>19</ele>
        <time>2018-06-14T18:11:02Z</time>
      </trkpt>
      <trkpt lat="49.52372" lon="0.74153">
        <ele>19</ele>
        <time>2018-06-14T18:11:11Z</time>
      </trkpt>
      <trkpt lat="49.52374" lon="0.74132">
        <ele>19</ele>
        <time>2018-06-14T18:11:14Z</time>
      </trkpt>
      <trkpt lat="49.52376" lon="0.74108">
        <ele>19</ele>
        <time>2018-06-14T18:11:18Z</time>
      </trkpt>
      <trkpt lat="49.52353" lon="0.74113">
        <ele>19</ele>
        <time>2018-06-14T18:11:25Z</time>
      </trkpt>
      <trkpt lat="49.52381" lon="0.73939">
        <ele>14</ele>
        <time>2018-06-14T18:11:56Z</time>
      </trkpt>
      <trkpt lat="49.52394" lon="0.73837">
        <ele>14</ele>
        <time>2018-06-14T18:12:14Z</time>
      </trkpt>
      <trkpt lat="49.52403" lon="0.73709">
        <ele>11</ele>
        <time>2018-06-14T18:12:36Z</time>
      </trkpt>
      <trkpt lat="49.52409" lon="0.73559">
        <ele>11</ele>
        <time>2018-06-14T18:13:02Z</time>
      </trkpt>
      <trkpt lat="49.52414" lon="0.73415">
        <ele>10</ele>
        <time>2018-06-14T18:13:27Z</time>
      </trkpt>
      <trkpt lat="49.52417" lon="0.7332">
        <ele>10</ele>
        <time>2018-06-14T18:13:44Z</time>
      </trkpt>
      <trkpt lat="49.52419" lon="0.73188">
        <ele>4</ele>
        <time>2018-06-14T18:14:07Z</time>
      </trkpt>
      <trkpt lat="49.52421" lon="0.73055">
        <ele>4</ele>
        <time>2018-06-14T18:14:30Z</time>
      </trkpt>
      <trkpt lat="49.52422" lon="0.72986">
        <ele>4</ele>
        <time>2018-06-14T18:14:42Z</time>
      </trkpt>
      <trkpt lat="49.52423" lon="0.72959">
        <ele>7</ele>
        <time>2018-06-14T18:14:46Z</time>
      </trkpt>
      <trkpt lat="49.52423" lon="0.72894">
        <ele>7</ele>
        <time>2018-06-14T18:14:58Z</time>
      </trkpt>
      <trkpt lat="49.52425" lon="0.72838">
        <ele>7</ele>
        <time>2018-06-14T18:15:07Z</time>
      </trkpt>
      <trkpt lat="49.52427" lon="0.72833">
        <ele>7</ele>
        <time>2018-06-14T18:15:08Z</time>
      </trkpt>
      <trkpt lat="49.5243" lon="0.7283">
        <ele>7</ele>
        <time>2018-06-14T18:15:09Z</time>
      </trkpt>
      <trkpt lat="49.52433" lon="0.72827">
        <ele>7</ele>
        <time>2018-06-14T18:15:10Z</time>
      </trkpt>
      <trkpt lat="49.52438" lon="0.72826">
        <ele>7</ele>
        <time>2018-06-14T18:15:12Z</time>
      </trkpt>
      <trkpt lat="49.52442" lon="0.72828">
        <ele>7</ele>
        <time>2018-06-14T18:15:13Z</time>
      </trkpt>
      <trkpt lat="49.52446" lon="0.7282">
        <ele>7</ele>
        <time>2018-06-14T18:15:15Z</time>
      </trkpt>
      <trkpt lat="49.52444" lon="0.72807">
        <ele>7</ele>
        <time>2018-06-14T18:15:17Z</time>
      </trkpt>
      <trkpt lat="49.52442" lon="0.72762">
        <ele>7</ele>
        <time>2018-06-14T18:15:25Z</time>
      </trkpt>
      <trkpt lat="49.52442" lon="0.7274">
        <ele>7</ele>
        <time>2018-06-14T18:15:28Z</time>
      </trkpt>
      <trkpt lat="49.52441" lon="0.72648">
        <ele>10</ele>
        <time>2018-06-14T18:15:44Z</time>
      </trkpt>
      <trkpt lat="49.52442" lon="0.726">
        <ele>10</ele>
        <time>2018-06-14T18:15:53Z</time>
      </trkpt>
      <trkpt lat="49.52444" lon="0.72502">
        <ele>10</ele>
        <time>2018-06-14T18:16:10Z</time>
      </trkpt>
      <trkpt lat="49.52445" lon="0.72446">
        <ele>19</ele>
        <time>2018-06-14T18:16:19Z</time>
      </trkpt>
      <trkpt lat="49.52445" lon="0.72429">
        <ele>19</ele>
        <time>2018-06-14T18:16:22Z</time>
      </trkpt>
      <trkpt lat="49.52446" lon="0.72418">
        <ele>19</ele>
        <time>2018-06-14T18:16:24Z</time>
      </trkpt>
      <trkpt lat="49.52448" lon="0.72403">
        <ele>19</ele>
        <time>2018-06-14T18:16:27Z</time>
      </trkpt>
      <trkpt lat="49.52452" lon="0.72384">
        <ele>19</ele>
        <time>2018-06-14T18:16:30Z</time>
      </trkpt>
      <trkpt lat="49.52459" lon="0.72363">
        <ele>19</ele>
        <time>2018-06-14T18:16:35Z</time>
      </trkpt>
      <trkpt lat="49.52463" lon="0.7235">
        <ele>19</ele>
        <time>2018-06-14T18:16:37Z</time>
      </trkpt>
      <trkpt lat="49.52473" lon="0.72308">
        <ele>19</ele>
        <time>2018-06-14T18:16:45Z</time>
      </trkpt>
      <trkpt lat="49.52474" lon="0.72299">
        <ele>19</ele>
        <time>2018-06-14T18:16:46Z</time>
      </trkpt>
      <trkpt lat="49.52477" lon="0.72294">
        <ele>19</ele>
        <time>2018-06-14T18:16:48Z</time>
      </trkpt>
      <trkpt lat="49.52481" lon="0.72279">
        <ele>19</ele>
        <time>2018-06-14T18:16:50Z</time>
      </trkpt>
      <trkpt lat="49.52483" lon="0.72265">
        <ele>19</ele>
        <time>2018-06-14T18:16:53Z</time>
      </trkpt>
      <trkpt lat="49.52482" lon="0.72251">
        <ele>19</ele>
        <time>2018-06-14T18:16:55Z</time>
      </trkpt>
      <trkpt lat="49.52475" lon="0.72187">
        <ele>13</ele>
        <time>2018-06-14T18:17:07Z</time>
      </trkpt>
      <trkpt lat="49.52473" lon="0.72176">
        <ele>13</ele>
        <time>2018-06-14T18:17:09Z</time>
      </trkpt>
      <trkpt lat="49.52472" lon="0.7216">
        <ele>13</ele>
        <time>2018-06-14T18:17:11Z</time>
      </trkpt>
      <trkpt lat="49.52467" lon="0.72103">
        <ele>13</ele>
        <time>2018-06-14T18:17:21Z</time>
      </trkpt>
      <trkpt lat="49.52464" lon="0.72082">
        <ele>13</ele>
        <time>2018-06-14T18:17:25Z</time>
      </trkpt>
      <trkpt lat="49.52459" lon="0.7205">
        <ele>13</ele>
        <time>2018-06-14T18:17:31Z</time>
      </trkpt>
      <trkpt lat="49.52458" lon="0.72044">
        <ele>13</ele>
        <time>2018-06-14T18:17:32Z</time>
      </trkpt>
      <trkpt lat="49.52454" lon="0.72016">
        <ele>13</ele>
        <time>2018-06-14T18:17:37Z</time>
      </trkpt>
      <trkpt lat="49.52447" lon="0.71981">
        <ele>13</ele>
        <time>2018-06-14T18:17:43Z</time>
      </trkpt>
      <trkpt lat="49.52434" lon="0.71913">
        <ele>15</ele>
        <time>2018-06-14T18:17:55Z</time>
      </trkpt>
      <trkpt lat="49.5243" lon="0.71896">
        <ele>15</ele>
        <time>2018-06-14T18:17:59Z</time>
      </trkpt>
      <trkpt lat="49.52427" lon="0.71886">
        <ele>15</ele>
        <time>2018-06-14T18:18:00Z</time>
      </trkpt>
      <trkpt lat="49.52421" lon="0.71876">
        <ele>15</ele>
        <time>2018-06-14T18:18:03Z</time>
      </trkpt>
      <trkpt lat="49.52408" lon="0.71846">
        <ele>15</ele>
        <time>2018-06-14T18:18:09Z</time>
      </trkpt>
      <trkpt lat="49.52403" lon="0.71833">
        <ele>15</ele>
        <time>2018-06-14T18:18:12Z</time>
      </trkpt>
      <trkpt lat="49.52399" lon="0.71812">
        <ele>15</ele>
        <time>2018-06-14T18:18:16Z</time>
      </trkpt>
      <trkpt lat="49.52398" lon="0.71798">
        <ele>15</ele>
        <time>2018-06-14T18:18:18Z</time>
      </trkpt>
      <trkpt lat="49.52397" lon="0.71765">
        <ele>15</ele>
        <time>2018-06-14T18:18:24Z</time>
      </trkpt>
      <trkpt lat="49.52398" lon="0.71736">
        <ele>15</ele>
        <time>2018-06-14T18:18:29Z</time>
      </trkpt>
      <trkpt lat="49.52401" lon="0.71684">
        <ele>2</ele>
        <time>2018-06-14T18:18:38Z</time>
      </trkpt>
      <trkpt lat="49.52401" lon="0.71624">
        <ele>2</ele>
        <time>2018-06-14T18:18:48Z</time>
      </trkpt>
      <trkpt lat="49.52401" lon="0.7159">
        <ele>2</ele>
        <time>2018-06-14T18:18:54Z</time>
      </trkpt>
      <trkpt lat="49.524" lon="0.71571">
        <ele>2</ele>
        <time>2018-06-14T18:18:57Z</time>
      </trkpt>
      <trkpt lat="49.52396" lon="0.71519">
        <ele>2</ele>
        <time>2018-06-14T18:19:06Z</time>
      </trkpt>
      <trkpt lat="49.52394" lon="0.71497">
        <ele>2</ele>
        <time>2018-06-14T18:19:10Z</time>
      </trkpt>
      <trkpt lat="49.52391" lon="0.71476">
        <ele>2</ele>
        <time>2018-06-14T18:19:14Z</time>
      </trkpt>
      <trkpt lat="49.52389" lon="0.71453">
        <ele>8</ele>
        <time>2018-06-14T18:19:18Z</time>
      </trkpt>
      <trkpt lat="49.52385" lon="0.71431">
        <ele>8</ele>
        <time>2018-06-14T18:19:22Z</time>
      </trkpt>
      <trkpt lat="49.52383" lon="0.7142">
        <ele>8</ele>
        <time>2018-06-14T18:19:24Z</time>
      </trkpt>
      <trkpt lat="49.52323" lon="0.71084">
        <ele>5</ele>
        <time>2018-06-14T18:20:24Z</time>
      </trkpt>
      <trkpt lat="49.52277" lon="0.70847">
        <ele>3</ele>
        <time>2018-06-14T18:21:07Z</time>
      </trkpt>
      <trkpt lat="49.52263" lon="0.70778">
        <ele>3</ele>
        <time>2018-06-14T18:21:20Z</time>
      </trkpt>
      <trkpt lat="49.52153" lon="0.70224">
        <ele>17</ele>
        <time>2018-06-14T18:23:00Z</time>
      </trkpt>
      <trkpt lat="49.52044" lon="0.6969">
        <ele>16</ele>
        <time>2018-06-14T18:24:37Z</time>
      </trkpt>
      <trkpt lat="49.52031" lon="0.69626">
        <ele>16</ele>
        <time>2018-06-14T18:24:49Z</time>
      </trkpt>
      <trkpt lat="49.52025" lon="0.69595">
        <ele>16</ele>
        <time>2018-06-14T18:24:55Z</time>
      </trkpt>
      <trkpt lat="49.5201" lon="0.69528">
        <ele>16</ele>
        <time>2018-06-14T18:25:07Z</time>
      </trkpt>
      <trkpt lat="49.52001" lon="0.69478">
        <ele>16</ele>
        <time>2018-06-14T18:25:16Z</time>
      </trkpt>
      <trkpt lat="49.51989" lon="0.6942">
        <ele>23</ele>
        <time>2018-06-14T18:25:27Z</time>
      </trkpt>
      <trkpt lat="49.51985" lon="0.69379">
        <ele>23</ele>
        <time>2018-06-14T18:25:34Z</time>
      </trkpt>
      <trkpt lat="49.51982" lon="0.69331">
        <ele>23</ele>
        <time>2018-06-14T18:25:42Z</time>
      </trkpt>
      <trkpt lat="49.51982" lon="0.69294">
        <ele>23</ele>
        <time>2018-06-14T18:25:49Z</time>
      </trkpt>
      <trkpt lat="49.51981" lon="0.69267">
        <ele>23</ele>
        <time>2018-06-14T18:25:53Z</time>
      </trkpt>
      <trkpt lat="49.51979" lon="0.69236">
        <ele>23</ele>
        <time>2018-06-14T18:25:59Z</time>
      </trkpt>
      <trkpt lat="49.51974" lon="0.692">
        <ele>10</ele>
        <time>2018-06-14T18:26:05Z</time>
      </trkpt>
      <trkpt lat="49.51968" lon="0.6917">
        <ele>10</ele>
        <time>2018-06-14T18:26:10Z</time>
      </trkpt>
      <trkpt lat="49.51955" lon="0.69114">
        <ele>10</ele>
        <time>2018-06-14T18:26:21Z</time>
      </trkpt>
      <trkpt lat="49.51949" lon="0.69086">
        <ele>10</ele>
        <time>2018-06-14T18:26:26Z</time>
      </trkpt>
      <trkpt lat="49.51938" lon="0.69034">
        <ele>10</ele>
        <time>2018-06-14T18:26:35Z</time>
      </trkpt>
      <trkpt lat="49.51928" lon="0.68974">
        <ele>10</ele>
        <time>2018-06-14T18:26:46Z</time>
      </trkpt>
      <trkpt lat="49.51917" lon="0.68903">
        <ele>8</ele>
        <time>2018-06-14T18:26:59Z</time>
      </trkpt>
      <trkpt lat="49.51909" lon="0.6883">
        <ele>8</ele>
        <time>2018-06-14T18:27:12Z</time>
      </trkpt>
      <trkpt lat="49.51906" lon="0.68803">
        <ele>8</ele>
        <time>2018-06-14T18:27:16Z</time>
      </trkpt>
      <trkpt lat="49.51897" lon="0.68752">
        <ele>8</ele>
        <time>2018-06-14T18:27:26Z</time>
      </trkpt>
      <trkpt lat="49.51887" lon="0.68705">
        <ele>3</ele>
        <time>2018-06-14T18:27:34Z</time>
      </trkpt>
      <trkpt lat="49.51868" lon="0.68629">
        <ele>3</ele>
        <time>2018-06-14T18:27:48Z</time>
      </trkpt>
      <trkpt lat="49.51856" lon="0.68583">
        <ele>3</ele>
        <time>2018-06-14T18:27:57Z</time>
      </trkpt>
      <trkpt lat="49.5184" lon="0.68534">
        <ele>3</ele>
        <time>2018-06-14T18:28:06Z</time>
      </trkpt>
      <trkpt lat="49.51832" lon="0.68518">
        <ele>3</ele>
        <time>2018-06-14T18:28:10Z</time>
      </trkpt>
      <trkpt lat="49.51818" lon="0.68494">
        <ele>3</ele>
        <time>2018-06-14T18:28:15Z</time>
      </trkpt>
      <trkpt lat="49.51817" lon="0.68488">
        <ele>3</ele>
        <time>2018-06-14T18:28:17Z</time>
      </trkpt>
      <trkpt lat="49.51803" lon="0.68432">
        <ele>5</ele>
        <time>2018-06-14T18:28:27Z</time>
      </trkpt>
      <trkpt lat="49.51804" lon="0.68407">
        <ele>5</ele>
        <time>2018-06-14T18:28:31Z</time>
      </trkpt>
      <trkpt lat="49.51804" lon="0.68372">
        <ele>5</ele>
        <time>2018-06-14T18:28:37Z</time>
      </trkpt>
      <trkpt lat="49.51803" lon="0.68341">
        <ele>5</ele>
        <time>2018-06-14T18:28:43Z</time>
      </trkpt>
      <trkpt lat="49.518" lon="0.68309">
        <ele>5</ele>
        <time>2018-06-14T18:28:48Z</time>
      </trkpt>
      <trkpt lat="49.51795" lon="0.68276">
        <ele>5</ele>
        <time>2018-06-14T18:28:54Z</time>
      </trkpt>
      <trkpt lat="49.51787" lon="0.68246">
        <ele>5</ele>
        <time>2018-06-14T18:29:00Z</time>
      </trkpt>
      <trkpt lat="49.51779" lon="0.68214">
        <ele>4</ele>
        <time>2018-06-14T18:29:06Z</time>
      </trkpt>
      <trkpt lat="49.51766" lon="0.68181">
        <ele>4</ele>
        <time>2018-06-14T18:29:12Z</time>
      </trkpt>
      <trkpt lat="49.51757" lon="0.68157">
        <ele>4</ele>
        <time>2018-06-14T18:29:17Z</time>
      </trkpt>
      <trkpt lat="49.51745" lon="0.68133">
        <ele>4</ele>
        <time>2018-06-14T18:29:23Z</time>
      </trkpt>
      <trkpt lat="49.51738" lon="0.68117">
        <ele>4</ele>
        <time>2018-06-14T18:29:26Z</time>
      </trkpt>
      <trkpt lat="49.51726" lon="0.68092">
        <ele>4</ele>
        <time>2018-06-14T18:29:31Z</time>
      </trkpt>
      <trkpt lat="49.51714" lon="0.68073">
        <ele>4</ele>
        <time>2018-06-14T18:29:36Z</time>
      </trkpt>
      <trkpt lat="49.51707" lon="0.68063">
        <ele>4</ele>
        <time>2018-06-14T18:29:38Z</time>
      </trkpt>
      <trkpt lat="49.51702" lon="0.68058">
        <ele>4</ele>
        <time>2018-06-14T18:29:40Z</time>
      </trkpt>
      <trkpt lat="49.51697" lon="0.68055">
        <ele>4</ele>
        <time>2018-06-14T18:29:41Z</time>
      </trkpt>
      <trkpt lat="49.51693" lon="0.68046">
        <ele>4</ele>
        <time>2018-06-14T18:29:43Z</time>
      </trkpt>
      <trkpt lat="49.51683" lon="0.68032">
        <ele>4</ele>
        <time>2018-06-14T18:29:47Z</time>
      </trkpt>
      <trkpt lat="49.51674" lon="0.68014">
        <ele>4</ele>
        <time>2018-06-14T18:29:51Z</time>
      </trkpt>
      <trkpt lat="49.51645" lon="0.67949">
        <ele>4</ele>
        <time>2018-06-14T18:30:05Z</time>
      </trkpt>
      <trkpt lat="49.51637" lon="0.67934">
        <ele>4</ele>
        <time>2018-06-14T18:30:08Z</time>
      </trkpt>
      <trkpt lat="49.51624" lon="0.67925">
        <ele>4</ele>
        <time>2018-06-14T18:30:12Z</time>
      </trkpt>
      <trkpt lat="49.51611" lon="0.67918">
        <ele>4</ele>
        <time>2018-06-14T18:30:15Z</time>
      </trkpt>
      <trkpt lat="49.51594" lon="0.67908">
        <ele>4</ele>
        <time>2018-06-14T18:30:20Z</time>
      </trkpt>
      <trkpt lat="49.51589" lon="0.679">
        <ele>4</ele>
        <time>2018-06-14T18:30:22Z</time>
      </trkpt>
      <trkpt lat="49.51445" lon="0.67675">
        <ele>6</ele>
        <time>2018-06-14T18:31:17Z</time>
      </trkpt>
      <trkpt lat="49.51431" lon="0.67656">
        <ele>5</ele>
        <time>2018-06-14T18:31:22Z</time>
      </trkpt>
      <trkpt lat="49.51395" lon="0.67612">
        <ele>5</ele>
        <time>2018-06-14T18:31:34Z</time>
      </trkpt>
      <trkpt lat="49.51337" lon="0.67541">
        <ele>5</ele>
        <time>2018-06-14T18:31:54Z</time>
      </trkpt>
      <trkpt lat="49.51317" lon="0.67519">
        <ele>5</ele>
        <time>2018-06-14T18:32:01Z</time>
      </trkpt>
      <trkpt lat="49.51299" lon="0.675">
        <ele>7</ele>
        <time>2018-06-14T18:32:07Z</time>
      </trkpt>
      <trkpt lat="49.5128" lon="0.67481">
        <ele>7</ele>
        <time>2018-06-14T18:32:13Z</time>
      </trkpt>
      <trkpt lat="49.51222" lon="0.67425">
        <ele>7</ele>
        <time>2018-06-14T18:32:31Z</time>
      </trkpt>
      <trkpt lat="49.51182" lon="0.6739">
        <ele>7</ele>
        <time>2018-06-14T18:32:43Z</time>
      </trkpt>
      <trkpt lat="49.51139" lon="0.67355">
        <ele>4</ele>
        <time>2018-06-14T18:32:56Z</time>
      </trkpt>
      <trkpt lat="49.51092" lon="0.67319">
        <ele>4</ele>
        <time>2018-06-14T18:33:10Z</time>
      </trkpt>
      <trkpt lat="49.5105" lon="0.67288">
        <ele>4</ele>
        <time>2018-06-14T18:33:23Z</time>
      </trkpt>
      <trkpt lat="49.50993" lon="0.67253">
        <ele>7</ele>
        <time>2018-06-14T18:33:39Z</time>
      </trkpt>
      <trkpt lat="49.50925" lon="0.67211">
        <ele>7</ele>
        <time>2018-06-14T18:33:59Z</time>
      </trkpt>
      <trkpt lat="49.50804" lon="0.67151">
        <ele>1</ele>
        <time>2018-06-14T18:34:33Z</time>
      </trkpt>
      <trkpt lat="49.5073" lon="0.6712">
        <ele>1</ele>
        <time>2018-06-14T18:34:53Z</time>
      </trkpt>
      <trkpt lat="49.50705" lon="0.6711">
        <ele>1</ele>
        <time>2018-06-14T18:35:00Z</time>
      </trkpt>
      <trkpt lat="49.50704" lon="0.67101">
        <ele>1</ele>
        <time>2018-06-14T18:35:02Z</time>
      </trkpt>
      <trkpt lat="49.50697" lon="0.67101">
        <ele>1</ele>
        <time>2018-06-14T18:35:03Z</time>
      </trkpt>
      <trkpt lat="49.50689" lon="0.67099">
        <ele>4</ele>
        <time>2018-06-14T18:35:06Z</time>
      </trkpt>
      <trkpt lat="49.50675" lon="0.67095">
        <ele>4</ele>
        <time>2018-06-14T18:35:09Z</time>
      </trkpt>
      <trkpt lat="49.50387" lon="0.66975">
        <ele>6</ele>
        <time>2018-06-14T18:36:29Z</time>
      </trkpt>
      <trkpt lat="49.50343" lon="0.66957">
        <ele>24</ele>
        <time>2018-06-14T18:36:41Z</time>
      </trkpt>
      <trkpt lat="49.50338" lon="0.66958">
        <ele>24</ele>
        <time>2018-06-14T18:36:43Z</time>
      </trkpt>
      <trkpt lat="49.50182" lon="0.66891">
        <ele>10</ele>
        <time>2018-06-14T18:37:26Z</time>
      </trkpt>
      <trkpt lat="49.50187" lon="0.66891">
        <ele>10</ele>
        <time>2018-06-14T18:37:27Z</time>
      </trkpt>
      <trkpt lat="49.5019" lon="0.66888">
        <ele>10</ele>
        <time>2018-06-14T18:37:28Z</time>
      </trkpt>
      <trkpt lat="49.50192" lon="0.66882">
        <ele>10</ele>
        <time>2018-06-14T18:37:29Z</time>
      </trkpt>
      <trkpt lat="49.50192" lon="0.66872">
        <ele>10</ele>
        <time>2018-06-14T18:37:31Z</time>
      </trkpt>
      <trkpt lat="49.5015" lon="0.66848">
        <ele>10</ele>
        <time>2018-06-14T18:37:43Z</time>
      </trkpt>
      <trkpt lat="49.50018" lon="0.66772">
        <ele>14</ele>
        <time>2018-06-14T18:38:21Z</time>
      </trkpt>
      <trkpt lat="49.4998" lon="0.6675">
        <ele>14</ele>
        <time>2018-06-14T18:38:32Z</time>
      </trkpt>
      <trkpt lat="49.49938" lon="0.66725">
        <ele>14</ele>
        <time>2018-06-14T18:38:44Z</time>
      </trkpt>
      <trkpt lat="49.49834" lon="0.66653">
        <ele>12</ele>
        <time>2018-06-14T18:39:14Z</time>
      </trkpt>
      <trkpt lat="49.49804" lon="0.6663">
        <ele>12</ele>
        <time>2018-06-14T18:39:23Z</time>
      </trkpt>
      <trkpt lat="49.49778" lon="0.66609">
        <ele>12</ele>
        <time>2018-06-14T18:39:31Z</time>
      </trkpt>
      <trkpt lat="49.49748" lon="0.66586">
        <ele>9</ele>
        <time>2018-06-14T18:39:40Z</time>
      </trkpt>
      <trkpt lat="49.49704" lon="0.66547">
        <ele>9</ele>
        <time>2018-06-14T18:39:53Z</time>
      </trkpt>
      <trkpt lat="49.49696" lon="0.66541">
        <ele>9</ele>
        <time>2018-06-14T18:39:56Z</time>
      </trkpt>
      <trkpt lat="49.49692" lon="0.66538">
        <ele>9</ele>
        <time>2018-06-14T18:39:57Z</time>
      </trkpt>
      <trkpt lat="49.49684" lon="0.66527">
        <ele>9</ele>
        <time>2018-06-14T18:40:00Z</time>
      </trkpt>
      <trkpt lat="49.4966" lon="0.66506">
        <ele>9</ele>
        <time>2018-06-14T18:40:07Z</time>
      </trkpt>
      <trkpt lat="49.49653" lon="0.665">
        <ele>9</ele>
        <time>2018-06-14T18:40:09Z</time>
      </trkpt>
      <trkpt lat="49.49634" lon="0.66483">
        <ele>9</ele>
        <time>2018-06-14T18:40:15Z</time>
      </trkpt>
      <trkpt lat="49.49615" lon="0.66467">
        <ele>9</ele>
        <time>2018-06-14T18:40:21Z</time>
      </trkpt>
      <trkpt lat="49.49605" lon="0.66462">
        <ele>17</ele>
        <time>2018-06-14T18:40:24Z</time>
      </trkpt>
      <trkpt lat="49.4958" lon="0.66439">
        <ele>17</ele>
        <time>2018-06-14T18:40:32Z</time>
      </trkpt>
      <trkpt lat="49.49524" lon="0.6639">
        <ele>17</ele>
        <time>2018-06-14T18:40:49Z</time>
      </trkpt>
      <trkpt lat="49.49448" lon="0.66325">
        <ele>10</ele>
        <time>2018-06-14T18:41:12Z</time>
      </trkpt>
      <trkpt lat="49.49427" lon="0.66308">
        <ele>10</ele>
        <time>2018-06-14T18:41:18Z</time>
      </trkpt>
      <trkpt lat="49.49417" lon="0.66298">
        <ele>10</ele>
        <time>2018-06-14T18:41:21Z</time>
      </trkpt>
      <trkpt lat="49.49399" lon="0.66281">
        <ele>10</ele>
        <time>2018-06-14T18:41:27Z</time>
      </trkpt>
      <trkpt lat="49.49383" lon="0.66265">
        <ele>10</ele>
        <time>2018-06-14T18:41:32Z</time>
      </trkpt>
      <trkpt lat="49.49343" lon="0.66222">
        <ele>10</ele>
        <time>2018-06-14T18:41:45Z</time>
      </trkpt>
      <trkpt lat="49.49243" lon="0.66117">
        <ele>12</ele>
        <time>2018-06-14T18:42:18Z</time>
      </trkpt>
      <trkpt lat="49.49171" lon="0.66042">
        <ele>27</ele>
        <time>2018-06-14T18:42:41Z</time>
      </trkpt>
      <trkpt lat="49.49098" lon="0.65965">
        <ele>27</ele>
        <time>2018-06-14T18:43:04Z</time>
      </trkpt>
      <trkpt lat="49.49094" lon="0.6596">
        <ele>27</ele>
        <time>2018-06-14T18:43:06Z</time>
      </trkpt>
      <trkpt lat="49.49004" lon="0.65867">
        <ele>7</ele>
        <time>2018-06-14T18:43:35Z</time>
      </trkpt>
      <trkpt lat="49.48905" lon="0.65764">
        <ele>7</ele>
        <time>2018-06-14T18:44:07Z</time>
      </trkpt>
      <trkpt lat="49.48877" lon="0.65734">
        <ele>20</ele>
        <time>2018-06-14T18:44:16Z</time>
      </trkpt>
      <trkpt lat="49.48844" lon="0.65696">
        <ele>20</ele>
        <time>2018-06-14T18:44:27Z</time>
      </trkpt>
      <trkpt lat="49.48808" lon="0.65654">
        <ele>20</ele>
        <time>2018-06-14T18:44:39Z</time>
      </trkpt>
      <trkpt lat="49.48777" lon="0.65616">
        <ele>20</ele>
        <time>2018-06-14T18:44:50Z</time>
      </trkpt>
      <trkpt lat="49.48735" lon="0.65557">
        <ele>13</ele>
        <time>2018-06-14T18:45:05Z</time>
      </trkpt>
      <trkpt lat="49.48576" lon="0.6533">
        <ele>27</ele>
        <time>2018-06-14T18:46:03Z</time>
      </trkpt>
      <trkpt lat="49.48574" lon="0.65326">
        <ele>27</ele>
        <time>2018-06-14T18:46:04Z</time>
      </trkpt>
      <trkpt lat="49.4845" lon="0.65145">
        <ele>16</ele>
        <time>2018-06-14T18:46:49Z</time>
      </trkpt>
      <trkpt lat="49.48364" lon="0.65025">
        <ele>26</ele>
        <time>2018-06-14T18:47:20Z</time>
      </trkpt>
      <trkpt lat="49.48334" lon="0.64984">
        <ele>26</ele>
        <time>2018-06-14T18:47:31Z</time>
      </trkpt>
      <trkpt lat="49.48326" lon="0.64998">
        <ele>26</ele>
        <time>2018-06-14T18:47:34Z</time>
      </trkpt>
      <trkpt lat="49.48319" lon="0.6499">
        <ele>26</ele>
        <time>2018-06-14T18:47:36Z</time>
      </trkpt>
      <trkpt lat="49.48306" lon="0.64968">
        <ele>26</ele>
        <time>2018-06-14T18:47:42Z</time>
      </trkpt>
      <trkpt lat="49.48168" lon="0.64794">
        <ele>11</ele>
        <time>2018-06-14T18:48:29Z</time>
      </trkpt>
      <trkpt lat="49.48108" lon="0.64711">
        <ele>21</ele>
        <time>2018-06-14T18:48:51Z</time>
      </trkpt>
      <trkpt lat="49.48084" lon="0.64669">
        <ele>21</ele>
        <time>2018-06-14T18:49:01Z</time>
      </trkpt>
      <trkpt lat="49.47986" lon="0.64547">
        <ele>10</ele>
        <time>2018-06-14T18:49:34Z</time>
      </trkpt>
      <trkpt lat="49.47946" lon="0.6452">
        <ele>10</ele>
        <time>2018-06-14T18:49:46Z</time>
      </trkpt>
      <trkpt lat="49.47857" lon="0.64396">
        <ele>17</ele>
        <time>2018-06-14T18:50:18Z</time>
      </trkpt>
      <trkpt lat="49.47719" lon="0.64236">
        <ele>5</ele>
        <time>2018-06-14T18:51:04Z</time>
      </trkpt>
      <trkpt lat="49.47545" lon="0.6402">
        <ele>13</ele>
        <time>2018-06-14T18:52:04Z</time>
      </trkpt>
      <trkpt lat="49.47421" lon="0.63893">
        <ele>9</ele>
        <time>2018-06-14T18:52:44Z</time>
      </trkpt>
      <trkpt lat="49.47396" lon="0.63882">
        <ele>9</ele>
        <time>2018-06-14T18:52:51Z</time>
      </trkpt>
      <trkpt lat="49.4737" lon="0.63878">
        <ele>9</ele>
        <time>2018-06-14T18:52:58Z</time>
      </trkpt>
      <trkpt lat="49.47373" lon="0.63863">
        <ele>9</ele>
        <time>2018-06-14T18:53:00Z</time>
      </trkpt>
      <trkpt lat="49.47392" lon="0.63824">
        <ele>9</ele>
        <time>2018-06-14T18:53:09Z</time>
      </trkpt>
      <trkpt lat="49.4739" lon="0.63812">
        <ele>9</ele>
        <time>2018-06-14T18:53:11Z</time>
      </trkpt>
      <trkpt lat="49.47355" lon="0.63766">
        <ele>21</ele>
        <time>2018-06-14T18:53:23Z</time>
      </trkpt>
      <trkpt lat="49.47316" lon="0.63713">
        <ele>21</ele>
        <time>2018-06-14T18:53:37Z</time>
      </trkpt>
      <trkpt lat="49.47286" lon="0.63653">
        <ele>21</ele>
        <time>2018-06-14T18:53:50Z</time>
      </trkpt>
      <trkpt lat="49.47268" lon="0.63606">
        <ele>27</ele>
        <time>2018-06-14T18:54:00Z</time>
      </trkpt>
      <trkpt lat="49.4726" lon="0.636">
        <ele>27</ele>
        <time>2018-06-14T18:54:02Z</time>
      </trkpt>
      <trkpt lat="49.47097" lon="0.6343">
        <ele>37</ele>
        <time>2018-06-14T18:54:55Z</time>
      </trkpt>
      <trkpt lat="49.4703" lon="0.63356">
        <ele>37</ele>
        <time>2018-06-14T18:55:17Z</time>
      </trkpt>
      <trkpt lat="49.46992" lon="0.63296">
        <ele>33</ele>
        <time>2018-06-14T18:55:31Z</time>
      </trkpt>
      <trkpt lat="49.46931" lon="0.63198">
        <ele>33</ele>
        <time>2018-06-14T18:55:55Z</time>
      </trkpt>
      <trkpt lat="49.469" lon="0.63148">
        <ele>33</ele>
        <time>2018-06-14T18:56:07Z</time>
      </trkpt>
      <trkpt lat="49.46883" lon="0.6312">
        <ele>33</ele>
        <time>2018-06-14T18:56:14Z</time>
      </trkpt>
      <trkpt lat="49.46862" lon="0.63089">
        <ele>35</ele>
        <time>2018-06-14T18:56:21Z</time>
      </trkpt>
      <trkpt lat="49.46812" lon="0.63034">
        <ele>35</ele>
        <time>2018-06-14T18:56:38Z</time>
      </trkpt>
      <trkpt lat="49.46783" lon="0.62998">
        <ele>35</ele>
        <time>2018-06-14T18:56:48Z</time>
      </trkpt>
      <trkpt lat="49.46779" lon="0.62992">
        <ele>35</ele>
        <time>2018-06-14T18:56:49Z</time>
      </trkpt>
      <trkpt lat="49.46785" lon="0.62979">
        <ele>35</ele>
        <time>2018-06-14T18:56:52Z</time>
      </trkpt>
      <trkpt lat="49.46842" lon="0.62903">
        <ele>32</ele>
        <time>2018-06-14T18:57:12Z</time>
      </trkpt>
      <trkpt lat="49.46981" lon="0.62718">
        <ele>32</ele>
        <time>2018-06-14T18:58:01Z</time>
      </trkpt>
      <trkpt lat="49.47011" lon="0.62677">
        <ele>32</ele>
        <time>2018-06-14T18:58:12Z</time>
      </trkpt>
      <trkpt lat="49.47003" lon="0.62665">
        <ele>32</ele>
        <time>2018-06-14T18:58:15Z</time>
      </trkpt>
      <trkpt lat="49.46996" lon="0.62656">
        <ele>32</ele>
        <time>2018-06-14T18:58:17Z</time>
      </trkpt>
      <trkpt lat="49.46987" lon="0.62645">
        <ele>32</ele>
        <time>2018-06-14T18:58:21Z</time>
      </trkpt>
      <trkpt lat="49.4697" lon="0.62629">
        <ele>32</ele>
        <time>2018-06-14T18:58:26Z</time>
      </trkpt>
      <trkpt lat="49.46947" lon="0.62607">
        <ele>35</ele>
        <time>2018-06-14T18:58:33Z</time>
      </trkpt>
      <trkpt lat="49.46923" lon="0.62583">
        <ele>35</ele>
        <time>2018-06-14T18:58:41Z</time>
      </trkpt>
      <trkpt lat="49.46873" lon="0.62529">
        <ele>35</ele>
        <time>2018-06-14T18:58:57Z</time>
      </trkpt>
      <trkpt lat="49.46788" lon="0.62423">
        <ele>33</ele>
        <time>2018-06-14T18:59:26Z</time>
      </trkpt>
      <trkpt lat="49.46764" lon="0.62392">
        <ele>33</ele>
        <time>2018-06-14T18:59:35Z</time>
      </trkpt>
      <trkpt lat="49.46735" lon="0.62358">
        <ele>33</ele>
        <time>2018-06-14T18:59:44Z</time>
      </trkpt>
      <trkpt lat="49.46737" lon="0.62299">
        <ele>33</ele>
        <time>2018-06-14T18:59:55Z</time>
      </trkpt>
      <trkpt lat="49.46742" lon="0.62221">
        <ele>30</ele>
        <time>2018-06-14T19:00:08Z</time>
      </trkpt>
      <trkpt lat="49.46792" lon="0.61553">
        <ele>28</ele>
        <time>2018-06-14T19:02:05Z</time>
      </trkpt>
      <trkpt lat="49.4679" lon="0.61548">
        <ele>28</ele>
        <time>2018-06-14T19:02:06Z</time>
      </trkpt>
      <trkpt lat="49.46836" lon="0.61488">
        <ele>25</ele>
        <time>2018-06-14T19:02:22Z</time>
      </trkpt>
      <trkpt lat="49.46853" lon="0.61462">
        <ele>25</ele>
        <time>2018-06-14T19:02:29Z</time>
      </trkpt>
      <trkpt lat="49.46873" lon="0.61415">
        <ele>25</ele>
        <time>2018-06-14T19:02:38Z</time>
      </trkpt>
      <trkpt lat="49.46916" lon="0.6123">
        <ele>19</ele>
        <time>2018-06-14T19:03:13Z</time>
      </trkpt>
      <trkpt lat="49.46922" lon="0.61163">
        <ele>19</ele>
        <time>2018-06-14T19:03:24Z</time>
      </trkpt>
      <trkpt lat="49.46921" lon="0.61054">
        <ele>25</ele>
        <time>2018-06-14T19:03:43Z</time>
      </trkpt>
      <trkpt lat="49.46923" lon="0.61038">
        <ele>25</ele>
        <time>2018-06-14T19:03:46Z</time>
      </trkpt>
      <trkpt lat="49.46927" lon="0.61003">
        <ele>25</ele>
        <time>2018-06-14T19:03:52Z</time>
      </trkpt>
      <trkpt lat="49.46924" lon="0.60994">
        <ele>25</ele>
        <time>2018-06-14T19:03:54Z</time>
      </trkpt>
      <trkpt lat="49.46916" lon="0.60911">
        <ele>25</ele>
        <time>2018-06-14T19:04:08Z</time>
      </trkpt>
      <trkpt lat="49.46913" lon="0.60855">
        <ele>25</ele>
        <time>2018-06-14T19:04:18Z</time>
      </trkpt>
      <trkpt lat="49.46891" lon="0.60693">
        <ele>26</ele>
        <time>2018-06-14T19:04:47Z</time>
      </trkpt>
      <trkpt lat="49.46884" lon="0.60651">
        <ele>26</ele>
        <time>2018-06-14T19:04:54Z</time>
      </trkpt>
      <trkpt lat="49.46879" lon="0.60618">
        <ele>26</ele>
        <time>2018-06-14T19:05:00Z</time>
      </trkpt>
      <trkpt lat="49.46875" lon="0.60576">
        <ele>26</ele>
        <time>2018-06-14T19:05:08Z</time>
      </trkpt>
      <trkpt lat="49.46865" lon="0.60459">
        <ele>26</ele>
        <time>2018-06-14T19:05:28Z</time>
      </trkpt>
      <trkpt lat="49.4686" lon="0.60411">
        <ele>26</ele>
        <time>2018-06-14T19:05:37Z</time>
      </trkpt>
      <trkpt lat="49.4673" lon="0.60416">
        <ele>26</ele>
        <time>2018-06-14T19:06:11Z</time>
      </trkpt>
      <trkpt lat="49.46667" lon="0.60406">
        <ele>26</ele>
        <time>2018-06-14T19:06:28Z</time>
      </trkpt>
      <trkpt lat="49.46628" lon="0.60381">
        <ele>13</ele>
        <time>2018-06-14T19:06:40Z</time>
      </trkpt>
      <trkpt lat="49.46538" lon="0.60299">
        <ele>13</ele>
        <time>2018-06-14T19:07:08Z</time>
      </trkpt>
      <trkpt lat="49.46513" lon="0.6027">
        <ele>13</ele>
        <time>2018-06-14T19:07:16Z</time>
      </trkpt>
      <trkpt lat="49.46579" lon="0.59994">
        <ele>14</ele>
        <time>2018-06-14T19:08:07Z</time>
      </trkpt>
      <trkpt lat="49.46604" lon="0.59914">
        <ele>15</ele>
        <time>2018-06-14T19:08:22Z</time>
      </trkpt>
      <trkpt lat="49.46616" lon="0.59885">
        <ele>15</ele>
        <time>2018-06-14T19:08:28Z</time>
      </trkpt>
      <trkpt lat="49.46631" lon="0.59863">
        <ele>15</ele>
        <time>2018-06-14T19:08:34Z</time>
      </trkpt>
      <trkpt lat="49.4673" lon="0.59713">
        <ele>16</ele>
        <time>2018-06-14T19:09:11Z</time>
      </trkpt>
      <trkpt lat="49.46771" lon="0.59654">
        <ele>16</ele>
        <time>2018-06-14T19:09:26Z</time>
      </trkpt>
      <trkpt lat="49.46783" lon="0.59639">
        <ele>16</ele>
        <time>2018-06-14T19:09:30Z</time>
      </trkpt>
      <trkpt lat="49.46808" lon="0.59596">
        <ele>18</ele>
        <time>2018-06-14T19:09:40Z</time>
      </trkpt>
      <trkpt lat="49.46821" lon="0.59569">
        <ele>18</ele>
        <time>2018-06-14T19:09:46Z</time>
      </trkpt>
      <trkpt lat="49.46832" lon="0.5955">
        <ele>18</ele>
        <time>2018-06-14T19:09:50Z</time>
      </trkpt>
      <trkpt lat="49.46848" lon="0.59527">
        <ele>18</ele>
        <time>2018-06-14T19:09:56Z</time>
      </trkpt>
      <trkpt lat="49.4689" lon="0.59471">
        <ele>18</ele>
        <time>2018-06-14T19:10:11Z</time>
      </trkpt>
      <trkpt lat="49.46922" lon="0.59429">
        <ele>18</ele>
        <time>2018-06-14T19:10:22Z</time>
      </trkpt>
      <trkpt lat="49.46934" lon="0.59414">
        <ele>10</ele>
        <time>2018-06-14T19:10:26Z</time>
      </trkpt>
      <trkpt lat="49.46947" lon="0.59402">
        <ele>10</ele>
        <time>2018-06-14T19:10:31Z</time>
      </trkpt>
      <trkpt lat="49.46964" lon="0.59392">
        <ele>10</ele>
        <time>2018-06-14T19:10:35Z</time>
      </trkpt>
      <trkpt lat="49.46968" lon="0.59388">
        <ele>10</ele>
        <time>2018-06-14T19:10:37Z</time>
      </trkpt>
      <trkpt lat="49.46972" lon="0.59389">
        <ele>10</ele>
        <time>2018-06-14T19:10:38Z</time>
      </trkpt>
      <trkpt lat="49.47013" lon="0.59407">
        <ele>10</ele>
        <time>2018-06-14T19:10:49Z</time>
      </trkpt>
      <trkpt lat="49.4702" lon="0.59348">
        <ele>10</ele>
        <time>2018-06-14T19:11:00Z</time>
      </trkpt>
      <trkpt lat="49.47021" lon="0.59189">
        <ele>15</ele>
        <time>2018-06-14T19:11:27Z</time>
      </trkpt>
      <trkpt lat="49.47023" lon="0.59157">
        <ele>15</ele>
        <time>2018-06-14T19:11:33Z</time>
      </trkpt>
      <trkpt lat="49.47036" lon="0.59027">
        <ele>13</ele>
        <time>2018-06-14T19:11:56Z</time>
      </trkpt>
      <trkpt lat="49.47039" lon="0.59008">
        <ele>13</ele>
        <time>2018-06-14T19:11:59Z</time>
      </trkpt>
      <trkpt lat="49.47047" lon="0.58952">
        <ele>13</ele>
        <time>2018-06-14T19:12:09Z</time>
      </trkpt>
      <trkpt lat="49.47056" lon="0.58885">
        <ele>13</ele>
        <time>2018-06-14T19:12:21Z</time>
      </trkpt>
      <trkpt lat="49.47073" lon="0.58768">
        <ele>20</ele>
        <time>2018-06-14T19:12:42Z</time>
      </trkpt>
      <trkpt lat="49.47089" lon="0.5867">
        <ele>20</ele>
        <time>2018-06-14T19:12:59Z</time>
      </trkpt>
      <trkpt lat="49.47092" lon="0.58638">
        <ele>20</ele>
        <time>2018-06-14T19:13:05Z</time>
      </trkpt>
      <trkpt lat="49.47097" lon="0.58599">
        <ele>20</ele>
        <time>2018-06-14T19:13:12Z</time>
      </trkpt>
      <trkpt lat="49.471" lon="0.58559">
        <ele>20</ele>
        <time>2018-06-14T19:13:19Z</time>
      </trkpt>
      <trkpt lat="49.47101" lon="0.58523">
        <ele>16</ele>
        <time>2018-06-14T19:13:25Z</time>
      </trkpt>
      <trkpt lat="49.47103" lon="0.58476">
        <ele>16</ele>
        <time>2018-06-14T19:13:33Z</time>
      </trkpt>
      <trkpt lat="49.47096" lon="0.58436">
        <ele>16</ele>
        <time>2018-06-14T19:13:40Z</time>
      </trkpt>
      <trkpt lat="49.47089" lon="0.58398">
        <ele>16</ele>
        <time>2018-06-14T19:13:47Z</time>
      </trkpt>
      <trkpt lat="49.47089" lon="0.58374">
        <ele>16</ele>
        <time>2018-06-14T19:13:51Z</time>
      </trkpt>
      <trkpt lat="49.47091" lon="0.58332">
        <ele>16</ele>
        <time>2018-06-14T19:13:59Z</time>
      </trkpt>
      <trkpt lat="49.47107" lon="0.58172">
        <ele>13</ele>
        <time>2018-06-14T19:14:27Z</time>
      </trkpt>
      <trkpt lat="49.47116" lon="0.58137">
        <ele>13</ele>
        <time>2018-06-14T19:14:33Z</time>
      </trkpt>
      <trkpt lat="49.4713" lon="0.58082">
        <ele>13</ele>
        <time>2018-06-14T19:14:44Z</time>
      </trkpt>
      <trkpt lat="49.47132" lon="0.58065">
        <ele>13</ele>
        <time>2018-06-14T19:14:47Z</time>
      </trkpt>
      <trkpt lat="49.47131" lon="0.5803">
        <ele>5</ele>
        <time>2018-06-14T19:14:53Z</time>
      </trkpt>
      <trkpt lat="49.47128" lon="0.58003">
        <ele>5</ele>
        <time>2018-06-14T19:14:58Z</time>
      </trkpt>
      <trkpt lat="49.47112" lon="0.57885">
        <ele>5</ele>
        <time>2018-06-14T19:15:18Z</time>
      </trkpt>
      <trkpt lat="49.47107" lon="0.57872">
        <ele>5</ele>
        <time>2018-06-14T19:15:21Z</time>
      </trkpt>
      <trkpt lat="49.4715" lon="0.57842">
        <ele>5</ele>
        <time>2018-06-14T19:15:34Z</time>
      </trkpt>
      <trkpt lat="49.47189" lon="0.57816">
        <ele>5</ele>
        <time>2018-06-14T19:15:45Z</time>
      </trkpt>
      <trkpt lat="49.47234" lon="0.57787">
        <ele>5</ele>
        <time>2018-06-14T19:15:58Z</time>
      </trkpt>
      <trkpt lat="49.47273" lon="0.57764">
        <ele>5</ele>
        <time>2018-06-14T19:16:09Z</time>
      </trkpt>
      <trkpt lat="49.47296" lon="0.57749">
        <ele>5</ele>
        <time>2018-06-14T19:16:16Z</time>
      </trkpt>
      <trkpt lat="49.47314" lon="0.57737">
        <ele>7</ele>
        <time>2018-06-14T19:16:21Z</time>
      </trkpt>
      <trkpt lat="49.47332" lon="0.57725">
        <ele>7</ele>
        <time>2018-06-14T19:16:26Z</time>
      </trkpt>
      <trkpt lat="49.47353" lon="0.57708">
        <ele>7</ele>
        <time>2018-06-14T19:16:33Z</time>
      </trkpt>
      <trkpt lat="49.47382" lon="0.57684">
        <ele>7</ele>
        <time>2018-06-14T19:16:42Z</time>
      </trkpt>
      <trkpt lat="49.47407" lon="0.57665">
        <ele>7</ele>
        <time>2018-06-14T19:16:49Z</time>
      </trkpt>
      <trkpt lat="49.47427" lon="0.57651">
        <ele>7</ele>
        <time>2018-06-14T19:16:55Z</time>
      </trkpt>
      <trkpt lat="49.47447" lon="0.5764">
        <ele>7</ele>
        <time>2018-06-14T19:17:01Z</time>
      </trkpt>
      <trkpt lat="49.47529" lon="0.5759">
        <ele>10</ele>
        <time>2018-06-14T19:17:24Z</time>
      </trkpt>
      <trkpt lat="49.47562" lon="0.57571">
        <ele>10</ele>
        <time>2018-06-14T19:17:34Z</time>
      </trkpt>
      <trkpt lat="49.47586" lon="0.57557">
        <ele>10</ele>
        <time>2018-06-14T19:17:40Z</time>
      </trkpt>
      <trkpt lat="49.47617" lon="0.57541">
        <ele>10</ele>
        <time>2018-06-14T19:17:49Z</time>
      </trkpt>
      <trkpt lat="49.47643" lon="0.57528">
        <ele>10</ele>
        <time>2018-06-14T19:17:56Z</time>
      </trkpt>
      <trkpt lat="49.47682" lon="0.5751">
        <ele>10</ele>
        <time>2018-06-14T19:18:07Z</time>
      </trkpt>
      <trkpt lat="49.47761" lon="0.57477">
        <ele>10</ele>
        <time>2018-06-14T19:18:29Z</time>
      </trkpt>
      <trkpt lat="49.47788" lon="0.57464">
        <ele>6</ele>
        <time>2018-06-14T19:18:37Z</time>
      </trkpt>
      <trkpt lat="49.47824" lon="0.57447">
        <ele>6</ele>
        <time>2018-06-14T19:18:47Z</time>
      </trkpt>
      <trkpt lat="49.47877" lon="0.57416">
        <ele>6</ele>
        <time>2018-06-14T19:19:02Z</time>
      </trkpt>
      <trkpt lat="49.48" lon="0.57342">
        <ele>6</ele>
        <time>2018-06-14T19:19:37Z</time>
      </trkpt>
      <trkpt lat="49.48043" lon="0.57316">
        <ele>6</ele>
        <time>2018-06-14T19:19:50Z</time>
      </trkpt>
      <trkpt lat="49.48079" lon="0.57295">
        <ele>6</ele>
        <time>2018-06-14T19:20:00Z</time>
      </trkpt>
      <trkpt lat="49.48092" lon="0.57287">
        <ele>6</ele>
        <time>2018-06-14T19:20:04Z</time>
      </trkpt>
      <trkpt lat="49.48104" lon="0.57281">
        <ele>11</ele>
        <time>2018-06-14T19:20:07Z</time>
      </trkpt>
      <trkpt lat="49.48114" lon="0.57274">
        <ele>11</ele>
        <time>2018-06-14T19:20:10Z</time>
      </trkpt>
      <trkpt lat="49.48138" lon="0.57262">
        <ele>11</ele>
        <time>2018-06-14T19:20:17Z</time>
      </trkpt>
      <trkpt lat="49.48163" lon="0.57249">
        <ele>11</ele>
        <time>2018-06-14T19:20:24Z</time>
      </trkpt>
      <trkpt lat="49.48192" lon="0.57237">
        <ele>11</ele>
        <time>2018-06-14T19:20:32Z</time>
      </trkpt>
      <trkpt lat="49.48221" lon="0.5723">
        <ele>11</ele>
        <time>2018-06-14T19:20:40Z</time>
      </trkpt>
      <trkpt lat="49.48232" lon="0.57228">
        <ele>11</ele>
        <time>2018-06-14T19:20:43Z</time>
      </trkpt>
      <trkpt lat="49.48234" lon="0.5723">
        <ele>11</ele>
        <time>2018-06-14T19:20:43Z</time>
      </trkpt>
      <trkpt lat="49.48236" lon="0.5723">
        <ele>11</ele>
        <time>2018-06-14T19:20:44Z</time>
      </trkpt>
      <trkpt lat="49.48238" lon="0.5723">
        <ele>11</ele>
        <time>2018-06-14T19:20:44Z</time>
      </trkpt>
      <trkpt lat="49.48241" lon="0.57229">
        <ele>11</ele>
        <time>2018-06-14T19:20:45Z</time>
      </trkpt>
      <trkpt lat="49.48243" lon="0.57227">
        <ele>11</ele>
        <time>2018-06-14T19:20:46Z</time>
      </trkpt>
      <trkpt lat="49.48244" lon="0.57224">
        <ele>11</ele>
        <time>2018-06-14T19:20:46Z</time>
      </trkpt>
      <trkpt lat="49.48245" lon="0.5722">
        <ele>11</ele>
        <time>2018-06-14T19:20:47Z</time>
      </trkpt>
      <trkpt lat="49.48258" lon="0.57212">
        <ele>11</ele>
        <time>2018-06-14T19:20:51Z</time>
      </trkpt>
      <trkpt lat="49.48271" lon="0.57204">
        <ele>10</ele>
        <time>2018-06-14T19:20:54Z</time>
      </trkpt>
      <trkpt lat="49.48344" lon="0.57175">
        <ele>10</ele>
        <time>2018-06-14T19:21:15Z</time>
      </trkpt>
      <trkpt lat="49.48407" lon="0.57156">
        <ele>10</ele>
        <time>2018-06-14T19:21:32Z</time>
      </trkpt>
      <trkpt lat="49.48416" lon="0.57154">
        <ele>10</ele>
        <time>2018-06-14T19:21:34Z</time>
      </trkpt>
      <trkpt lat="49.48474" lon="0.5714">
        <ele>14</ele>
        <time>2018-06-14T19:21:50Z</time>
      </trkpt>
      <trkpt lat="49.4857" lon="0.57127">
        <ele>14</ele>
        <time>2018-06-14T19:22:16Z</time>
      </trkpt>
      <trkpt lat="49.48587" lon="0.57124">
        <ele>14</ele>
        <time>2018-06-14T19:22:20Z</time>
      </trkpt>
      <trkpt lat="49.486" lon="0.57123">
        <ele>15</ele>
        <time>2018-06-14T19:22:24Z</time>
      </trkpt>
      <trkpt lat="49.48607" lon="0.57129">
        <ele>15</ele>
        <time>2018-06-14T19:22:26Z</time>
      </trkpt>
      <trkpt lat="49.4861" lon="0.57135">
        <ele>15</ele>
        <time>2018-06-14T19:22:27Z</time>
      </trkpt>
      <trkpt lat="49.4861" lon="0.57141">
        <ele>15</ele>
        <time>2018-06-14T19:22:28Z</time>
      </trkpt>
      <trkpt lat="49.48611" lon="0.57148">
        <ele>15</ele>
        <time>2018-06-14T19:22:29Z</time>
      </trkpt>
      <trkpt lat="49.48613" lon="0.57152">
        <ele>15</ele>
        <time>2018-06-14T19:22:30Z</time>
      </trkpt>
      <trkpt lat="49.48616" lon="0.57155">
        <ele>15</ele>
        <time>2018-06-14T19:22:31Z</time>
      </trkpt>
      <trkpt lat="49.48619" lon="0.57156">
        <ele>15</ele>
        <time>2018-06-14T19:22:32Z</time>
      </trkpt>
      <trkpt lat="49.48622" lon="0.57155">
        <ele>15</ele>
        <time>2018-06-14T19:22:33Z</time>
      </trkpt>
      <trkpt lat="49.48625" lon="0.57153">
        <ele>15</ele>
        <time>2018-06-14T19:22:34Z</time>
      </trkpt>
      <trkpt lat="49.48627" lon="0.57149">
        <ele>15</ele>
        <time>2018-06-14T19:22:35Z</time>
      </trkpt>
      <trkpt lat="49.48629" lon="0.57145">
        <ele>15</ele>
        <time>2018-06-14T19:22:35Z</time>
      </trkpt>
      <trkpt lat="49.48629" lon="0.57141">
        <ele>15</ele>
        <time>2018-06-14T19:22:36Z</time>
      </trkpt>
      <trkpt lat="49.48629" lon="0.57136">
        <ele>15</ele>
        <time>2018-06-14T19:22:37Z</time>
      </trkpt>
      <trkpt lat="49.48628" lon="0.57133">
        <ele>15</ele>
        <time>2018-06-14T19:22:38Z</time>
      </trkpt>
      <trkpt lat="49.48625" lon="0.57129">
        <ele>15</ele>
        <time>2018-06-14T19:22:39Z</time>
      </trkpt>
      <trkpt lat="49.48621" lon="0.57126">
        <ele>15</ele>
        <time>2018-06-14T19:22:40Z</time>
      </trkpt>
      <trkpt lat="49.48622" lon="0.57101">
        <ele>15</ele>
        <time>2018-06-14T19:22:44Z</time>
      </trkpt>
      <trkpt lat="49.48628" lon="0.57084">
        <ele>15</ele>
        <time>2018-06-14T19:22:48Z</time>
      </trkpt>
      <trkpt lat="49.48642" lon="0.57062">
        <ele>15</ele>
        <time>2018-06-14T19:22:53Z</time>
      </trkpt>
      <trkpt lat="49.48689" lon="0.5701">
        <ele>18</ele>
        <time>2018-06-14T19:23:08Z</time>
      </trkpt>
      <trkpt lat="49.48732" lon="0.5696">
        <ele>18</ele>
        <time>2018-06-14T19:23:23Z</time>
      </trkpt>
      <trkpt lat="49.48737" lon="0.5695">
        <ele>18</ele>
        <time>2018-06-14T19:23:25Z</time>
      </trkpt>
      <trkpt lat="49.48738" lon="0.56952">
        <ele>18</ele>
        <time>2018-06-14T19:23:25Z</time>
      </trkpt>
      <trkpt lat="49.4874" lon="0.56952">
        <ele>18</ele>
        <time>2018-06-14T19:23:26Z</time>
      </trkpt>
      <trkpt lat="49.48742" lon="0.56951">
        <ele>18</ele>
        <time>2018-06-14T19:23:27Z</time>
      </trkpt>
      <trkpt lat="49.48744" lon="0.5695">
        <ele>18</ele>
        <time>2018-06-14T19:23:27Z</time>
      </trkpt>
      <trkpt lat="49.48745" lon="0.56947">
        <ele>18</ele>
        <time>2018-06-14T19:23:28Z</time>
      </trkpt>
      <trkpt lat="49.48746" lon="0.56944">
        <ele>18</ele>
        <time>2018-06-14T19:23:28Z</time>
      </trkpt>
      <trkpt lat="49.48745" lon="0.56941">
        <ele>18</ele>
        <time>2018-06-14T19:23:29Z</time>
      </trkpt>
      <trkpt lat="49.48745" lon="0.56939">
        <ele>18</ele>
        <time>2018-06-14T19:23:29Z</time>
      </trkpt>
      <trkpt lat="49.48774" lon="0.56897">
        <ele>18</ele>
        <time>2018-06-14T19:23:40Z</time>
      </trkpt>
      <trkpt lat="49.48802" lon="0.56848">
        <ele>14</ele>
        <time>2018-06-14T19:23:51Z</time>
      </trkpt>
      <trkpt lat="49.48804" lon="0.5685">
        <ele>14</ele>
        <time>2018-06-14T19:23:52Z</time>
      </trkpt>
      <trkpt lat="49.48806" lon="0.56852">
        <ele>14</ele>
        <time>2018-06-14T19:23:53Z</time>
      </trkpt>
      <trkpt lat="49.48808" lon="0.56852">
        <ele>14</ele>
        <time>2018-06-14T19:23:53Z</time>
      </trkpt>
      <trkpt lat="49.4881" lon="0.56851">
        <ele>14</ele>
        <time>2018-06-14T19:23:54Z</time>
      </trkpt>
      <trkpt lat="49.48812" lon="0.56849">
        <ele>14</ele>
        <time>2018-06-14T19:23:54Z</time>
      </trkpt>
      <trkpt lat="49.48814" lon="0.56846">
        <ele>14</ele>
        <time>2018-06-14T19:23:55Z</time>
      </trkpt>
      <trkpt lat="49.48814" lon="0.56843">
        <ele>14</ele>
        <time>2018-06-14T19:23:56Z</time>
      </trkpt>
      <trkpt lat="49.48814" lon="0.56839">
        <ele>14</ele>
        <time>2018-06-14T19:23:56Z</time>
      </trkpt>
      <trkpt lat="49.48813" lon="0.56836">
        <ele>14</ele>
        <time>2018-06-14T19:23:57Z</time>
      </trkpt>
      <trkpt lat="49.48811" lon="0.56834">
        <ele>14</ele>
        <time>2018-06-14T19:23:58Z</time>
      </trkpt>
      <trkpt lat="49.48809" lon="0.56832">
        <ele>14</ele>
        <time>2018-06-14T19:23:58Z</time>
      </trkpt>
      <trkpt lat="49.48813" lon="0.56821">
        <ele>14</ele>
        <time>2018-06-14T19:24:00Z</time>
      </trkpt>
      <trkpt lat="49.48839" lon="0.56767">
        <ele>14</ele>
        <time>2018-06-14T19:24:12Z</time>
      </trkpt>
      <trkpt lat="49.48856" lon="0.56727">
        <ele>14</ele>
        <time>2018-06-14T19:24:20Z</time>
      </trkpt>
      <trkpt lat="49.48863" lon="0.56714">
        <ele>14</ele>
        <time>2018-06-14T19:24:23Z</time>
      </trkpt>
      <trkpt lat="49.48866" lon="0.56716">
        <ele>14</ele>
        <time>2018-06-14T19:24:24Z</time>
      </trkpt>
      <trkpt lat="49.4887" lon="0.56716">
        <ele>14</ele>
        <time>2018-06-14T19:24:25Z</time>
      </trkpt>
      <trkpt lat="49.48873" lon="0.56715">
        <ele>14</ele>
        <time>2018-06-14T19:24:26Z</time>
      </trkpt>
      <trkpt lat="49.48876" lon="0.56712">
        <ele>14</ele>
        <time>2018-06-14T19:24:27Z</time>
      </trkpt>
      <trkpt lat="49.48878" lon="0.56708">
        <ele>14</ele>
        <time>2018-06-14T19:24:28Z</time>
      </trkpt>
      <trkpt lat="49.48879" lon="0.56702">
        <ele>14</ele>
        <time>2018-06-14T19:24:29Z</time>
      </trkpt>
      <trkpt lat="49.48879" lon="0.56697">
        <ele>14</ele>
        <time>2018-06-14T19:24:30Z</time>
      </trkpt>
      <trkpt lat="49.48878" lon="0.56692">
        <ele>14</ele>
        <time>2018-06-14T19:24:31Z</time>
      </trkpt>
      <trkpt lat="49.48876" lon="0.56687">
        <ele>16</ele>
        <time>2018-06-14T19:24:32Z</time>
      </trkpt>
      <trkpt lat="49.48879" lon="0.56678">
        <ele>16</ele>
        <time>2018-06-14T19:24:34Z</time>
      </trkpt>
      <trkpt lat="49.48888" lon="0.56651">
        <ele>16</ele>
        <time>2018-06-14T19:24:39Z</time>
      </trkpt>
      <trkpt lat="49.48906" lon="0.5661">
        <ele>16</ele>
        <time>2018-06-14T19:24:47Z</time>
      </trkpt>
      <trkpt lat="49.48912" lon="0.56598">
        <ele>16</ele>
        <time>2018-06-14T19:24:50Z</time>
      </trkpt>
      <trkpt lat="49.48916" lon="0.56596">
        <ele>16</ele>
        <time>2018-06-14T19:24:51Z</time>
      </trkpt>
      <trkpt lat="49.4892" lon="0.56597">
        <ele>16</ele>
        <time>2018-06-14T19:24:52Z</time>
      </trkpt>
      <trkpt lat="49.48923" lon="0.56595">
        <ele>16</ele>
        <time>2018-06-14T19:24:53Z</time>
      </trkpt>
      <trkpt lat="49.48925" lon="0.56593">
        <ele>16</ele>
        <time>2018-06-14T19:24:54Z</time>
      </trkpt>
      <trkpt lat="49.48926" lon="0.56591">
        <ele>16</ele>
        <time>2018-06-14T19:24:54Z</time>
      </trkpt>
      <trkpt lat="49.48948" lon="0.56543">
        <ele>16</ele>
        <time>2018-06-14T19:25:04Z</time>
      </trkpt>
      <trkpt lat="49.48952" lon="0.56535">
        <ele>16</ele>
        <time>2018-06-14T19:25:06Z</time>
      </trkpt>
      <trkpt lat="49.48952" lon="0.56529">
        <ele>16</ele>
        <time>2018-06-14T19:25:07Z</time>
      </trkpt>
      <trkpt lat="49.48956" lon="0.56534">
        <ele>16</ele>
        <time>2018-06-14T19:25:09Z</time>
      </trkpt>
      <trkpt lat="49.4896" lon="0.56537">
        <ele>16</ele>
        <time>2018-06-14T19:25:10Z</time>
      </trkpt>
      <trkpt lat="49.48974" lon="0.56554">
        <ele>16</ele>
        <time>2018-06-14T19:25:15Z</time>
      </trkpt>
      <trkpt lat="49.49003" lon="0.56583">
        <ele>17</ele>
        <time>2018-06-14T19:25:24Z</time>
      </trkpt>
      <trkpt lat="49.4902" lon="0.56601">
        <ele>17</ele>
        <time>2018-06-14T19:25:29Z</time>
      </trkpt>
      <trkpt lat="49.49029" lon="0.5661">
        <ele>17</ele>
        <time>2018-06-14T19:25:32Z</time>
      </trkpt>
      <trkpt lat="49.49034" lon="0.56617">
        <ele>17</ele>
        <time>2018-06-14T19:25:34Z</time>
      </trkpt>
      <trkpt lat="49.49034" lon="0.56627">
        <ele>17</ele>
        <time>2018-06-14T19:25:36Z</time>
      </trkpt>
      <trkpt lat="49.49033" lon="0.56634">
        <ele>17</ele>
        <time>2018-06-14T19:25:37Z</time>
      </trkpt>
      <trkpt lat="49.49032" lon="0.56643">
        <ele>17</ele>
        <time>2018-06-14T19:25:39Z</time>
      </trkpt>
      <trkpt lat="49.49053" lon="0.56663">
        <ele>17</ele>
        <time>2018-06-14T19:25:45Z</time>
      </trkpt>
      <trkpt lat="49.4904" lon="0.56761">
        <ele>19</ele>
        <time>2018-06-14T19:26:02Z</time>
      </trkpt>
      <trkpt lat="49.49037" lon="0.5676">
        <ele>19</ele>
        <time>2018-06-14T19:26:03Z</time>
      </trkpt>
      <trkpt lat="49.49035" lon="0.56778">
        <ele>19</ele>
        <time>2018-06-14T19:26:06Z</time>
      </trkpt>
      <trkpt lat="49.49033" lon="0.56794">
        <ele>19</ele>
        <time>2018-06-14T19:26:09Z</time>
      </trkpt>
      <trkpt lat="49.4903" lon="0.56799">
        <ele>19</ele>
        <time>2018-06-14T19:26:10Z</time>
      </trkpt>
      <trkpt lat="49.49025" lon="0.56802">
        <ele>19</ele>
        <time>2018-06-14T19:26:12Z</time>
      </trkpt>
      <trkpt lat="49.49018" lon="0.56798">
        <ele>19</ele>
        <time>2018-06-14T19:26:14Z</time>
      </trkpt>
      <trkpt lat="49.49011" lon="0.56793">
        <ele>19</ele>
        <time>2018-06-14T19:26:16Z</time>
      </trkpt>
      <trkpt lat="49.48995" lon="0.56791">
        <ele>19</ele>
        <time>2018-06-14T19:26:20Z</time>
      </trkpt>
      <trkpt lat="49.48985" lon="0.5679">
        <ele>19</ele>
        <time>2018-06-14T19:26:23Z</time>
      </trkpt>
      <trkpt lat="49.4898" lon="0.56794">
        <ele>19</ele>
        <time>2018-06-14T19:26:25Z</time>
      </trkpt>
      <trkpt lat="49.48979" lon="0.56795">
        <ele>19</ele>
        <time>2018-06-14T19:26:25Z</time>
      </trkpt>
    </trkseg>
  </trk>
</gpx>